GFSGBSN_850_thetae_000.txt.gz
Theta_e
314 314 316 316 317 317 317 316 315 315 312 312 307 304 306 308 306 308 309 308 308 309 307 309 312 311 310 316 317 317 315 314 318 318 321 322 322 320 324 327 327 327 328 327 326 326 326
314 312 315 316 316 317 317 316 316 314 312 313 311 303 304 308 309 310 311 311 309 309 310 309 311 312 312 314 314 314 317 315 317 319 321 322 322 321 320 324 327 327 327 328 327 326 326
313 311 312 314 314 316 316 316 316 315 313 312 311 306 303 307 308 310 311 311 311 308 307 309 308 309 313 313 313 314 314 315 315 315 317 320 321 322 321 321 324 327 328 327 327 327 326
316 313 309 313 314 315 316 316 316 315 315 313 308 310 304 307 311 309 310 312 312 311 309 308 309 312 312 313 313 313 313 313 313 312 314 316 318 320 321 321 323 327 327 330 328 327 327
317 316 312 311 313 315 316 316 316 316 316 315 311 310 310 309 311 310 311 309 309 311 310 310 309 311 311 312 312 312 313 312 313 313 314 314 315 318 320 321 324 327 330 330 330 328 327
318 316 314 312 314 315 316 315 315 316 315 315 313 310 312 305 309 309 310 310 312 311 310 310 312 312 311 311 312 311 312 312 312 312 312 315 315 318 319 321 324 326 330 328 330 328 328
315 317 315 313 312 314 315 315 315 315 315 315 314 308 310 307 308 311 311 309 310 310 311 310 311 311 312 312 311 311 311 312 312 312 313 314 317 318 317 319 320 323 326 330 328 328 328
312 314 316 315 312 313 313 314 315 315 315 315 314 310 309 307 308 309 310 310 311 311 312 312 311 311 311 312 312 311 311 311 312 313 312 314 316 315 316 317 320 322 326 328 327 328 327
308 313 316 316 313 313 313 315 315 315 315 314 313 312 307 305 308 309 310 310 310 310 310 310 311 311 312 311 312 312 312 311 312 312 312 313 314 314 315 316 319 321 325 328 329 328 326
304 308 311 314 315 313 314 314 315 315 315 314 313 311 306 306 307 308 310 311 312 309 310 311 309 312 311 310 311 311 312 311 312 312 312 313 313 313 316 316 316 320 322 325 328 330 330
303 304 307 310 312 313 314 314 315 315 316 315 313 310 305 306 310 310 311 311 311 311 315 311 311 310 311 310 311 311 311 311 312 312 312 313 312 313 314 316 316 319 321 325 327 329 329
302 304 304 308 311 312 314 314 314 316 316 315 314 310 307 307 309 310 311 310 310 311 314 312 311 311 312 310 310 311 311 312 311 312 311 311 312 313 314 315 316 318 320 322 328 326 333
301 303 303 305 307 310 313 314 314 315 316 315 314 311 309 308 308 308 309 310 312 314 312 314 312 311 311 313 312 311 311 312 312 313 314 313 313 313 312 315 317 321 323 327 330 328 328
301 302 303 305 306 310 312 313 313 314 316 315 315 314 310 309 310 311 309 309 315 314 313 311 311 311 314 312 312 311 312 312 312 312 313 313 314 314 312 313 320 321 323 325 333 331 326
300 302 303 305 305 307 310 313 313 314 316 315 315 313 312 310 311 311 309 312 314 316 315 314 312 313 314 313 312 312 312 313 311 311 313 318 314 315 314 313 320 320 320 318 329 322 325
300 300 302 304 305 302 305 313 313 314 316 315 315 313 312 312 311 310 310 312 313 314 312 312 316 312 313 312 311 311 311 311 312 312 311 312 317 316 317 317 319 322 321 325 329 328 329
300 300 301 302 304 302 304 313 314 315 315 316 315 312 313 313 311 310 312 312 312 312 312 313 314 314 313 311 311 310 310 311 312 313 311 311 314 317 317 322 323 326 326 328 329 327 327
300 300 300 301 303 302 305 313 315 315 315 315 313 313 312 312 312 312 312 312 313 314 314 314 313 314 312 313 311 311 312 313 312 311 312 312 313 319 319 320 321 324 327 327 328 327 324
299 300 300 301 302 304 305 309 315 315 315 315 312 314 312 311 314 313 312 313 312 314 316 315 316 314 313 312 311 310 313 313 311 313 314 313 315 321 320 323 323 326 326 325 325 324 325
297 299 299 301 301 303 304 310 315 314 315 315 313 316 313 312 312 315 314 315 314 312 313 314 316 315 314 313 311 315 313 315 313 313 318 317 319 317 326 325 324 327 327 325 325 326 324
296 298 298 300 302 303 303 308 314 314 314 315 312 314 313 314 313 314 315 315 316 315 315 315 316 315 316 315 314 313 314 315 314 310 316 315 321 322 322 323 324 325 325 324 324 323 325
295 297 298 299 301 301 303 305 308 314 314 314 311 312 315 316 313 314 314 315 316 315 316 318 316 318 318 316 314 315 314 315 314 315 313 316 320 322 322 321 323 325 324 324 323 323 323
295 296 298 299 300 301 303 305 310 313 314 313 312 312 313 314 316 316 316 315 317 315 314 315 316 316 320 318 316 315 315 315 316 316 317 318 320 322 321 321 321 323 322 323 323 322 323
295 296 298 298 299 300 302 303 307 312 313 314 314 313 312 314 312 315 316 316 317 316 316 317 317 318 319 318 318 317 317 315 315 316 317 318 320 321 319 320 322 319 316 319 321 321 319
295 295 298 298 299 300 300 302 304 308 312 313 313 313 313 314 314 313 312 317 316 314 317 317 318 317 318 317 320 321 320 319 315 312 314 317 320 322 322 322 322 321 316 318 319 320 319
295 295 297 297 299 299 300 303 306 311 312 312 312 313 311 312 312 312 313 315 315 314 313 313 314 312 317 315 321 322 321 320 319 317 314 319 319 322 320 321 324 317 315 314 316 318 313
295 295 297 297 298 299 300 302 304 309 312 312 312 312 312 311 312 312 311 314 314 313 313 310 310 311 313 315 322 321 322 319 321 320 320 321 321 323 323 322 320 316 314 314 317 319 313
294 295 297 298 298 299 300 302 304 310 312 311 311 312 312 311 312 312 310 310 314 313 314 311 313 313 316 318 321 319 320 321 320 318 320 321 321 322 321 323 322 314 314 317 316 314 314
294 295 296 298 298 299 300 301 304 310 311 311 310 311 312 311 312 312 311 310 310 312 312 312 313 316 318 319 318 316 316 314 321 322 317 321 319 321 320 320 315 315 314 314 315 314 314

GFSGBSN_850_thetae_003.txt.gz
Theta_e
316 314 311 308 316 316 316 317 317 316 315 312 312 309 303 304 308 307 308 309 308 309 309 308 311 312 311 314 317 317 315 316 317 318 319 321 322 322 320 323 326 325 326 327 328 327 326
318 317 316 313 309 315 315 317 317 316 316 315 312 312 306 302 307 309 310 311 311 308 310 310 308 312 311 314 310 312 315 314 316 317 320 319 322 322 322 320 321 325 326 325 326 327 326
319 320 318 316 312 310 315 315 317 315 316 315 313 312 309 302 304 307 310 311 312 311 308 309 309 308 310 311 313 313 314 315 317 316 316 321 320 322 322 321 322 323 326 326 327 327 327
315 317 320 318 315 309 314 314 315 316 315 315 315 312 308 306 303 308 309 310 311 312 311 310 309 309 310 310 310 313 313 315 315 315 316 315 317 317 320 321 321 324 326 329 326 326 327
308 315 317 319 316 314 312 314 315 315 315 315 315 313 308 310 305 311 310 311 310 309 311 310 310 309 310 310 311 312 313 313 313 313 314 313 315 315 318 320 322 321 326 326 328 325 326
305 307 313 316 318 315 312 313 314 316 316 316 315 315 310 310 306 310 310 311 310 311 309 309 309 312 311 311 311 311 313 312 312 312 312 315 315 315 315 319 322 323 324 324 327 326 327
305 306 307 312 315 316 314 313 315 316 316 316 316 315 310 310 308 309 310 310 309 310 310 310 310 310 312 312 312 312 311 313 313 312 311 312 314 316 315 315 318 318 320 324 325 325 326
305 305 306 308 312 314 316 312 313 314 315 316 315 315 313 309 308 308 311 310 310 311 311 311 311 311 311 312 312 311 311 311 312 312 310 312 313 313 314 314 317 318 320 321 321 323 326
302 304 304 304 308 311 314 314 313 313 315 315 315 315 313 309 306 309 310 310 310 310 310 311 311 311 311 311 312 312 311 311 311 311 312 312 312 312 314 314 316 317 319 320 321 323 325
302 303 304 304 305 306 312 314 314 314 315 315 315 314 312 309 306 307 309 309 310 310 311 311 309 312 312 312 312 312 312 311 311 311 311 311 311 312 313 315 314 316 315 318 320 323 330
301 302 301 304 305 306 309 312 313 314 315 315 315 313 311 307 308 307 308 309 311 311 311 310 310 310 312 311 311 311 312 312 312 311 312 312 312 312 313 314 314 315 314 316 321 324 325
300 301 301 302 303 305 306 309 312 314 315 315 316 313 310 307 310 310 311 311 310 311 309 313 311 311 311 312 312 311 311 312 312 312 312 311 311 312 312 312 313 315 317 319 321 322 326
298 300 300 301 302 304 306 308 310 311 315 316 315 313 308 306 309 310 310 309 312 312 311 313 312 311 311 313 312 312 312 313 314 314 313 312 312 311 312 313 314 314 316 321 320 323 324
297 300 300 300 300 303 306 307 309 308 315 316 315 312 308 307 308 308 309 311 314 312 311 312 311 311 313 311 312 312 311 313 312 310 311 311 309 312 312 313 314 314 315 320 319 324 323
298 299 299 301 300 302 304 305 308 308 315 316 315 311 308 309 310 309 309 311 312 313 315 314 313 314 314 312 311 313 311 312 311 310 309 314 312 312 312 314 314 314 317 317 320 324 326
297 298 298 300 300 302 304 305 306 312 315 316 314 311 310 309 311 309 310 311 312 314 314 314 316 313 313 311 313 311 312 311 311 310 309 312 313 312 313 313 315 315 317 320 320 327 330
296 296 298 299 299 302 304 304 305 309 315 316 313 312 311 310 311 310 312 311 312 313 313 314 315 314 311 311 311 311 310 310 310 311 310 311 311 312 314 316 318 317 319 321 320 320 329
296 296 298 298 298 301 302 303 304 310 312 316 312 314 312 311 312 311 312 311 312 314 314 314 313 314 314 311 311 309 309 310 311 311 312 312 314 315 313 318 315 318 320 320 320 324 323
296 296 297 299 298 301 301 302 305 311 314 314 313 313 312 312 312 313 312 313 312 314 315 316 315 315 314 313 314 310 311 311 311 312 313 312 315 317 319 320 319 321 320 322 322 323 323
296 296 296 298 298 300 301 303 304 312 313 314 313 315 313 312 312 312 313 314 315 313 313 314 316 315 316 313 311 313 310 312 312 312 313 312 316 317 321 323 322 324 320 323 322 323 320
296 296 296 297 298 300 301 302 303 307 315 314 314 314 313 313 312 314 314 315 316 315 313 314 315 315 316 314 311 312 313 313 313 316 313 313 314 311 313 315 319 322 323 320 317 323 320
296 295 296 297 298 299 301 301 303 307 313 314 313 313 312 312 312 313 314 316 316 316 315 317 316 317 316 317 312 313 314 313 312 315 312 310 313 313 322 323 324 324 323 323 323 324 322
296 295 296 296 299 299 300 300 301 304 309 314 313 313 315 315 314 314 315 313 315 315 315 314 315 316 317 317 317 316 316 313 313 310 311 313 315 321 322 324 325 326 324 322 322 322 322
296 295 295 296 297 298 299 301 302 304 306 307 313 313 312 315 314 315 315 314 315 316 316 315 314 314 316 316 317 317 317 313 313 312 310 311 316 320 321 317 320 318 316 320 321 321 320
296 295 295 296 297 299 299 300 302 304 310 312 314 313 313 315 314 314 312 310 314 315 316 315 315 314 315 318 318 319 318 318 315 312 314 314 315 321 320 319 319 316 314 317 320 320 318
295 295 295 296 297 298 299 300 302 304 308 311 314 314 312 312 313 312 311 314 312 313 313 314 315 313 318 317 320 320 322 320 318 319 314 315 317 321 317 317 324 317 315 313 315 319 312
295 295 295 296 297 299 299 300 302 304 308 311 313 313 313 311 312 313 312 313 313 314 314 311 311 312 316 318 320 318 319 315 319 320 320 320 319 318 319 320 317 315 314 313 319 317 312
295 295 295 295 297 299 299 300 302 304 308 311 312 313 312 312 312 312 310 310 312 312 314 311 314 313 315 318 319 319 320 318 318 316 319 320 321 322 321 322 320 314 314 314 312 313 312
295 295 294 295 296 297 299 300 302 304 306 310 311 312 312 312 312 312 311 311 311 311 312 312 313 314 315 317 317 316 314 316 316 320 315 321 317 320 320 319 314 313 314 315 314 313 312

GFSGBSN_850_thetae_006.txt.gz
Theta_e
317 319 320 318 317 313 310 316 315 317 317 316 315 312 311 304 304 308 307 309 309 309 309 309 309 311 310 314 316 316 316 315 315 318 321 322 321 321 319 320 322 322 321 326 328 328 327
313 315 318 319 319 317 314 308 315 315 317 315 315 314 312 309 303 308 309 310 310 310 309 310 308 311 311 312 310 313 315 316 316 315 318 318 320 319 321 319 319 321 322 324 325 325 326
306 308 312 316 317 319 316 311 313 314 315 315 315 315 313 311 303 305 309 310 311 311 309 307 309 308 310 310 311 311 313 314 315 316 316 320 316 322 322 321 321 321 322 321 322 325 325
306 306 307 311 314 317 318 315 310 314 314 315 315 315 314 309 306 304 306 310 310 313 311 310 308 310 310 311 309 312 313 314 315 316 316 316 314 320 318 320 320 321 322 324 322 324 325
305 305 306 306 308 313 316 316 314 312 314 314 314 315 315 310 309 304 311 309 311 310 311 311 311 310 310 311 310 310 312 313 313 315 314 315 313 315 316 320 321 320 321 322 323 324 325
304 303 305 306 306 308 313 316 316 312 314 315 315 315 314 312 309 307 311 310 310 312 310 310 310 311 311 311 311 311 311 312 312 313 312 314 314 313 314 319 322 321 321 319 321 324 325
303 303 303 305 305 305 309 312 315 314 313 313 315 315 315 313 310 307 311 310 309 309 309 310 310 310 311 312 311 311 311 312 312 312 310 311 314 315 313 313 315 317 318 318 318 319 322
301 302 301 304 304 304 303 308 312 315 313 314 315 316 316 314 310 308 310 310 310 310 310 310 310 310 311 311 312 311 311 312 312 312 310 311 313 311 312 312 315 316 316 317 317 317 319
299 298 301 302 303 304 305 303 305 312 314 313 314 315 315 315 310 308 308 310 310 310 310 311 311 310 311 311 311 312 311 311 312 312 312 311 311 310 312 314 315 315 315 315 317 317 318
299 299 299 300 302 303 304 304 305 310 314 313 314 315 315 313 310 307 309 310 310 310 310 310 310 311 311 311 312 311 311 311 311 311 311 311 310 311 311 313 313 314 314 316 317 319 320
299 299 298 300 301 301 302 303 306 307 311 313 314 315 315 313 311 307 307 309 309 310 300 308 309 310 312 312 312 312 312 311 312 310 310 310 311 311 311 311 312 314 313 314 316 317 318
299 298 298 299 300 301 301 302 305 306 307 309 315 315 314 311 309 307 307 309 310 305 304 311 311 310 312 312 312 311 312 312 312 311 311 309 310 311 310 310 310 313 313 314 315 317 320
298 297 297 299 299 301 301 302 304 305 308 309 312 315 314 312 307 308 310 311 308 305 309 312 312 311 311 312 312 312 312 313 313 313 312 312 311 310 312 313 311 311 313 318 318 316 318
298 297 297 297 299 299 300 301 304 305 307 308 309 315 313 310 307 309 311 308 307 308 310 311 311 311 312 311 313 312 313 313 312 311 313 313 311 311 311 312 313 313 313 316 314 315 316
298 297 297 297 299 299 300 301 304 304 305 307 307 315 312 308 309 309 309 310 306 310 312 312 311 312 313 312 312 313 313 311 309 310 311 312 311 310 310 311 312 313 313 313 316 317 320
298 297 296 298 298 299 300 301 303 305 304 307 307 312 311 307 308 309 309 309 309 311 313 313 315 313 313 313 312 311 312 310 311 310 309 308 308 310 311 311 311 312 312 314 314 316 321
297 298 297 297 297 298 299 300 303 303 305 307 310 309 308 307 309 308 310 307 310 312 313 314 315 315 313 309 310 311 310 310 309 309 309 308 310 311 310 312 313 313 313 314 313 316 322
297 297 297 297 297 297 298 300 301 303 304 306 310 310 309 310 310 309 312 311 311 312 313 314 314 314 313 309 311 309 310 308 310 309 310 310 313 312 312 310 312 311 312 313 316 316 320
297 297 297 296 296 296 299 300 301 303 307 310 310 311 309 310 311 310 311 311 311 314 314 315 315 313 312 312 311 309 309 309 310 310 310 312 314 314 315 313 312 316 313 315 316 319 320
297 297 297 296 296 296 299 300 301 301 303 310 309 313 311 310 311 311 311 312 313 313 313 314 315 314 315 315 310 312 311 311 310 310 312 312 313 314 315 318 316 317 317 316 316 320 319
296 296 297 296 297 297 298 300 301 301 305 311 311 313 311 311 312 312 312 314 314 314 313 314 313 314 316 315 312 312 312 310 313 313 313 312 314 311 313 313 314 315 320 318 320 319 319
296 296 296 296 296 297 298 300 301 301 307 311 312 313 311 311 312 313 312 315 315 315 316 316 315 316 314 316 311 312 312 313 313 313 313 311 313 312 314 318 317 319 320 320 320 317 317
296 296 296 295 296 297 298 299 301 302 303 305 312 313 313 311 312 313 314 314 314 313 314 314 315 315 316 315 315 315 316 314 312 315 311 311 312 315 322 323 323 325 321 321 314 314 315
296 296 296 296 295 297 298 299 301 302 302 303 310 314 314 315 313 314 314 313 313 313 314 314 314 314 315 315 316 317 316 315 312 311 311 311 313 315 321 323 322 317 319 318 319 318 317
296 296 296 296 295 297 298 300 301 302 304 306 310 313 313 314 313 313 313 312 311 313 313 315 314 314 315 315 318 318 317 317 314 313 309 309 314 316 319 318 318 317 314 319 321 321 316
295 296 295 296 295 297 298 299 301 302 303 307 312 313 312 313 314 313 312 311 312 311 313 313 313 314 314 317 319 321 319 316 317 317 312 313 314 319 316 317 322 316 314 312 314 319 312
295 295 295 295 295 296 297 299 300 301 302 307 312 313 313 313 312 312 311 311 312 312 312 311 311 313 316 318 319 319 318 315 316 316 317 317 317 316 316 319 315 314 313 312 320 316 312
295 295 295 294 295 296 297 298 299 301 303 305 311 313 313 312 312 312 312 311 311 311 313 312 314 314 315 318 318 319 318 314 316 314 316 317 319 318 318 319 316 314 313 315 311 311 311
295 294 295 294 295 295 296 298 299 300 303 306 311 312 313 312 312 312 312 312 312 311 311 312 313 314 315 317 317 318 315 313 318 317 314 318 317 320 315 315 312 312 313 314 313 312 310

GFSGBSN_850_thetae_009.txt.gz
Theta_e
307 309 311 313 316 317 319 317 311 313 315 316 317 316 315 312 309 304 308 307 308 309 309 309 308 308 309 316 318 314 314 314 319 321 322 323 322 320 319 318 320 320 321 322 323 325 326
307 307 307 308 310 312 316 318 317 310 313 314 316 316 315 314 311 304 308 307 309 309 310 310 308 311 311 311 309 315 317 316 315 317 319 320 320 320 320 318 318 319 319 320 323 323 323
305 305 306 307 306 308 312 316 316 316 311 314 314 315 315 314 313 308 306 309 311 311 309 308 309 309 311 310 310 309 314 316 316 316 314 313 318 320 320 320 320 320 320 319 319 321 323
304 305 305 305 305 306 307 310 314 316 314 312 314 314 315 314 313 309 304 308 312 312 312 310 308 309 309 311 309 312 311 313 314 315 316 316 316 318 319 319 319 320 319 322 319 320 322
302 303 303 303 303 304 306 306 310 314 317 313 313 314 314 314 314 308 306 308 310 310 312 311 312 310 310 311 311 310 312 312 313 314 315 315 313 314 316 319 320 318 319 320 321 320 322
301 301 301 301 302 303 305 305 306 310 314 316 313 313 315 314 314 309 306 311 310 311 311 311 310 311 311 311 311 311 310 312 312 313 314 313 314 315 316 318 319 319 320 318 319 321 321
300 300 300 300 301 302 303 304 305 307 311 313 313 314 315 314 313 309 308 311 309 310 310 311 311 311 310 311 311 311 310 311 312 312 310 310 314 316 314 313 316 314 316 318 317 316 316
300 300 300 300 300 300 302 303 303 305 305 310 313 314 316 316 314 310 308 311 309 309 309 310 310 310 311 311 311 311 311 312 312 312 309 311 311 311 311 310 312 313 316 317 315 315 317
299 300 299 299 299 299 301 302 303 304 304 304 311 313 315 315 315 311 309 309 310 310 309 309 310 310 310 310 311 311 311 312 311 311 310 311 311 310 311 311 313 313 313 314 314 314 314
300 300 298 298 298 300 301 301 302 304 303 305 309 314 315 316 312 311 309 308 310 310 304 307 310 311 310 311 311 311 311 311 311 311 312 312 311 310 310 311 311 313 312 314 314 314 314
300 299 299 298 297 299 299 300 302 302 303 305 306 312 314 315 312 311 311 307 310 309 301 307 309 311 312 310 312 312 311 311 311 310 309 312 310 310 310 310 310 312 312 312 314 315 314
299 299 299 298 297 298 299 300 302 302 302 304 306 307 313 315 312 312 309 307 309 302 303 310 310 311 313 312 312 311 312 311 311 311 310 309 309 309 310 310 309 311 312 312 312 313 315
299 299 298 298 298 298 300 300 301 301 303 304 306 305 309 315 312 308 307 309 307 304 308 311 311 310 310 312 312 312 313 313 314 314 312 313 311 309 311 311 310 310 311 315 317 316 315
299 298 298 298 298 298 300 299 300 302 304 304 306 305 305 314 313 307 308 309 305 306 308 310 310 310 311 310 311 311 313 313 312 310 313 312 313 310 309 311 312 311 311 312 314 316 312
298 298 298 297 298 298 299 299 299 302 303 304 306 306 304 310 310 307 309 309 306 306 309 311 310 311 312 312 312 312 313 312 311 310 312 310 310 309 310 310 311 313 314 310 312 313 319
297 298 298 298 298 297 298 299 298 302 303 304 305 306 305 309 308 309 309 307 306 309 310 310 312 312 312 312 312 312 311 309 310 309 309 310 311 308 310 309 310 310 310 314 313 316 317
298 297 298 298 298 297 298 300 300 301 302 303 305 305 307 309 309 309 310 306 308 310 313 313 313 314 312 312 311 310 309 308 309 309 310 309 307 308 309 311 311 312 312 312 311 312 313
297 297 297 297 297 296 297 299 300 301 303 305 305 305 308 308 310 310 310 309 309 311 312 313 313 314 313 310 310 308 309 309 308 308 311 309 310 310 309 309 311 311 311 311 314 307 311
297 297 296 297 297 296 297 299 300 301 301 302 306 308 307 308 310 309 309 310 311 312 313 313 314 313 313 311 311 309 308 308 309 309 310 310 313 312 315 313 310 312 311 310 311 313 313
297 297 296 297 296 296 297 299 300 301 301 304 308 308 308 308 310 308 308 311 311 311 311 313 315 314 313 314 310 311 310 310 309 310 310 310 313 313 313 315 313 312 314 311 311 313 313
296 296 296 296 296 296 298 299 300 302 303 307 307 309 307 309 310 309 310 312 312 313 313 312 314 314 315 315 313 311 311 310 311 311 311 311 313 312 312 312 313 314 316 313 313 313 314
296 296 296 296 296 296 297 299 300 302 303 310 311 312 309 308 311 310 311 311 314 313 314 315 315 314 314 316 312 310 311 311 312 313 312 312 313 311 313 312 312 312 313 315 314 314 315
296 296 296 296 296 296 297 299 300 301 301 303 305 312 311 309 311 311 311 312 313 314 314 314 314 315 316 315 313 312 314 313 313 313 313 311 312 314 315 318 317 316 314 314 317 316 317
296 296 296 296 296 296 297 298 300 301 301 303 305 307 312 311 311 312 313 312 312 313 313 314 314 315 314 314 315 315 315 315 314 312 311 312 311 314 316 317 325 319 319 317 318 316 315
296 296 296 296 296 295 297 298 300 301 303 304 306 309 313 314 311 312 313 313 312 312 313 312 313 314 314 314 317 317 317 317 315 310 312 310 312 316 322 318 318 318 320 319 318 317 315
296 296 296 296 295 295 297 298 299 301 303 305 311 312 312 313 313 313 313 312 313 312 312 313 313 314 314 316 318 319 317 315 314 316 309 309 311 316 317 319 319 315 315 314 316 320 317
295 295 295 295 295 295 296 297 299 300 302 304 310 312 312 312 313 313 312 311 311 310 309 311 312 312 312 315 318 318 317 313 315 315 316 315 315 316 317 319 314 313 312 312 320 317 310
295 295 295 295 295 295 296 296 298 299 301 303 309 312 313 313 312 313 312 312 311 310 312 312 313 313 314 317 317 317 314 313 314 312 314 315 316 316 314 317 314 312 312 314 311 310 311
296 295 295 295 295 294 295 296 298 298 300 302 306 312 312 311 312 312 312 311 311 312 312 311 313 313 315 316 315 316 316 311 313 315 312 316 314 315 313 313 311 312 312 312 311 311 309

GFSGBSN_850_thetae_012.txt.gz
Theta_e
306 307 307 306 306 309 310 312 314 316 318 311 314 315 317 317 314 312 305 307 307 308 310 309 308 308 312 319 320 315 315 316 319 323 324 321 321 319 317 317 319 320 319 321 322 322 322
304 305 306 305 306 307 308 308 309 313 317 316 311 314 315 316 315 314 308 308 307 309 311 311 310 311 310 312 312 318 315 316 317 322 324 322 321 320 319 318 317 318 318 319 319 321 322
303 303 303 304 304 305 305 306 306 308 314 316 313 313 314 315 315 314 311 306 309 311 310 309 310 309 312 310 310 310 316 316 316 318 318 316 318 319 319 318 319 320 319 317 318 319 319
302 303 303 302 302 302 303 303 304 305 310 314 315 312 314 314 315 313 312 307 310 312 313 310 308 309 309 310 309 310 311 315 315 315 315 315 317 318 319 318 318 320 319 320 317 317 319
302 302 302 301 302 302 302 302 303 304 305 310 313 313 314 314 315 314 312 307 308 311 312 313 312 310 311 311 311 309 311 312 314 314 315 315 314 315 316 317 317 318 316 318 317 317 319
302 301 301 300 301 301 301 301 301 303 304 306 309 313 313 314 315 314 311 307 309 310 311 312 311 311 311 311 311 310 310 311 313 313 313 313 313 314 314 314 313 316 318 319 319 318 315
301 300 300 300 300 300 299 300 301 303 304 305 306 310 313 313 315 315 310 310 310 309 311 311 311 311 310 311 311 311 310 310 312 312 311 311 313 316 315 313 314 315 315 317 317 316 316
300 300 301 301 300 299 299 300 301 301 302 305 305 306 312 314 316 315 310 309 309 308 309 310 311 310 311 311 311 311 310 311 311 311 309 311 311 311 312 313 314 314 315 315 313 313 314
301 301 300 300 300 299 299 299 301 300 302 303 304 304 308 313 316 314 311 308 309 309 308 308 309 310 311 310 310 311 311 311 310 310 311 311 310 309 311 311 313 312 312 311 311 311 311
300 301 300 299 299 299 299 298 299 300 302 303 303 303 305 312 315 313 310 309 309 309 300 305 309 310 310 310 310 310 311 311 310 311 310 311 310 310 310 310 310 312 310 312 313 313 312
300 300 300 299 299 299 298 299 299 300 301 302 301 302 306 311 314 312 312 310 308 308 303 307 309 310 310 310 311 311 311 311 310 309 310 311 310 310 311 310 309 310 310 311 312 314 312
300 300 299 299 299 298 298 299 300 300 301 302 303 304 305 306 312 313 311 308 309 300 302 309 309 312 311 310 312 311 311 311 311 311 310 309 309 309 309 309 309 310 310 311 311 313 314
299 299 298 298 298 298 298 299 298 299 300 303 304 305 304 305 309 312 309 309 307 305 308 310 311 310 312 312 312 312 312 312 313 314 313 312 311 310 310 310 308 310 311 313 316 315 312
299 298 298 297 298 298 298 298 298 299 300 303 304 305 305 304 304 311 307 306 309 306 307 309 309 309 310 311 311 313 313 314 312 312 313 313 309 311 309 310 310 309 310 312 313 313 310
298 298 298 297 297 298 298 298 299 300 301 303 305 306 304 304 306 310 308 310 308 306 309 310 309 309 310 310 311 311 313 313 311 312 312 312 308 309 309 309 311 313 311 309 311 310 313
299 298 297 297 297 297 297 298 299 300 301 303 304 305 304 303 308 308 308 308 306 307 309 310 311 310 312 312 311 313 312 309 311 311 309 310 311 307 309 309 309 311 311 314 312 313 312
297 297 297 297 297 297 297 298 300 301 301 303 303 304 304 304 309 308 310 308 306 310 311 311 311 311 312 312 311 312 309 308 308 308 309 309 310 308 310 310 310 311 312 312 313 314 311
297 297 297 297 297 296 297 297 299 301 302 303 304 305 306 305 308 307 310 306 309 310 312 313 312 313 312 310 311 309 308 307 308 308 310 310 311 309 308 307 309 309 310 310 312 308 308
297 297 297 297 296 296 296 298 299 301 302 301 304 307 308 306 309 310 309 309 310 311 312 313 313 313 313 312 311 309 308 308 308 308 309 309 312 313 311 311 311 312 311 310 310 310 309
296 296 297 296 296 296 296 298 299 301 302 302 305 307 309 306 308 309 309 309 310 310 311 313 314 313 313 314 310 310 309 309 308 308 309 309 312 312 312 314 312 314 312 311 311 312 311
296 296 297 296 296 296 296 297 299 301 302 304 307 306 304 306 308 309 309 309 310 312 311 311 314 313 314 316 314 312 309 309 309 309 311 310 312 312 312 311 311 313 313 313 311 311 311
295 296 296 296 296 297 296 297 300 301 302 306 308 309 306 306 309 308 308 311 311 311 313 313 313 313 314 316 314 312 312 311 312 310 311 311 312 311 312 312 313 314 312 312 314 311 310
296 296 296 296 296 296 296 297 299 300 302 302 303 307 309 309 311 309 309 310 309 312 312 312 312 314 314 315 314 313 313 312 313 313 312 312 311 314 315 313 316 315 313 313 313 314 312
296 296 296 296 296 296 296 297 299 300 301 302 302 305 310 311 311 310 310 309 312 312 312 313 313 314 314 314 314 314 312 312 313 314 313 311 310 312 314 315 322 319 316 313 312 312 313
296 296 296 295 296 296 295 297 298 300 301 303 305 306 312 311 311 309 312 310 310 312 312 312 312 313 314 314 316 317 317 315 315 314 312 312 310 314 318 320 319 319 317 314 313 314 313
296 296 296 295 296 296 295 297 297 299 301 304 309 310 311 310 309 311 311 311 313 312 312 313 313 313 313 315 316 319 316 315 314 314 308 311 310 314 315 320 319 313 317 316 316 322 314
296 297 296 295 295 295 295 296 297 298 299 303 310 310 311 312 311 311 311 312 312 311 311 310 311 311 313 316 316 317 317 312 313 315 316 313 313 314 314 318 314 312 311 315 322 319 310
295 294 296 295 295 295 295 296 296 298 299 302 307 309 311 312 312 312 312 311 311 310 310 311 312 312 313 315 316 316 315 312 312 310 312 313 313 316 315 317 314 311 311 314 311 310 309
295 295 295 295 294 295 295 296 295 297 298 301 304 310 311 311 312 312 312 312 312 312 311 312 312 313 313 316 314 316 316 309 311 313 310 314 312 313 312 312 309 312 311 312 311 310 310

GFSGBSN_850_thetae_015.txt.gz
Theta_e
304 304 304 304 304 304 304 306 306 307 308 311 315 313 314 315 317 316 314 312 305 307 310 309 308 307 314 320 321 316 316 316 319 324 322 322 321 317 317 317 318 320 319 320 321 321 321
303 304 304 304 303 303 303 304 304 305 305 307 312 315 312 314 315 315 314 313 305 307 309 313 310 310 308 314 316 319 316 314 318 322 323 322 320 319 318 317 317 317 318 318 319 319 320
303 303 303 303 302 302 303 303 303 303 304 305 309 313 314 314 314 317 314 313 307 308 309 310 311 309 311 309 309 309 316 316 316 322 322 322 321 318 318 318 318 319 320 318 318 318 319
302 302 302 302 302 301 301 301 301 302 302 304 305 310 312 313 314 315 315 313 309 310 313 311 309 310 309 310 309 310 313 316 318 320 315 314 315 318 318 318 316 319 318 320 316 317 318
301 302 301 302 302 302 301 301 300 300 302 303 303 306 309 313 314 315 315 312 309 311 311 313 312 310 311 311 310 310 310 315 315 315 315 315 315 315 317 317 316 317 317 318 317 316 318
301 301 302 301 301 301 301 301 301 300 302 301 302 303 306 310 313 315 316 311 307 309 310 313 312 311 311 311 311 311 310 311 312 314 314 313 313 314 315 317 315 315 318 317 317 317 315
302 301 302 301 302 300 301 301 300 300 301 301 302 302 303 305 313 314 314 309 310 310 310 311 310 311 310 311 310 310 310 311 312 313 312 311 315 315 314 313 313 314 315 316 315 315 314
302 301 301 302 301 301 300 300 300 300 299 299 302 303 303 303 310 314 314 310 310 309 309 309 311 311 311 310 311 311 310 311 311 311 309 311 313 312 311 313 314 315 316 316 314 312 312
301 302 302 301 300 300 300 300 299 299 298 300 301 302 304 303 306 311 312 312 311 310 307 308 309 310 311 310 311 311 310 311 310 310 310 312 310 309 311 312 313 314 314 313 313 311 311
302 301 301 301 300 299 300 300 299 299 299 301 301 301 303 302 306 310 311 309 309 309 300 305 308 309 310 310 310 310 310 311 310 311 311 311 310 310 310 311 311 313 310 312 312 312 312
301 301 301 300 299 299 299 299 299 299 300 299 301 303 302 303 307 311 310 309 309 307 301 306 308 309 309 310 309 310 311 311 310 310 310 310 310 310 311 311 308 311 309 310 312 313 313
300 300 300 299 299 299 298 298 299 300 299 298 301 303 303 305 306 306 310 309 308 303 304 309 309 311 311 310 311 310 311 311 310 310 310 308 308 308 309 309 309 310 311 311 311 312 315
300 300 299 298 298 298 298 298 299 299 299 300 301 304 304 305 306 307 309 309 308 304 307 310 310 312 311 311 312 311 312 312 313 312 313 312 312 309 309 309 308 310 312 314 314 315 313
300 299 299 298 298 298 297 298 298 299 300 300 301 304 304 305 306 305 308 307 310 306 307 308 309 311 312 310 311 312 312 313 311 312 312 310 309 311 310 310 310 310 311 313 313 312 312
299 299 298 298 298 297 297 298 298 299 300 302 302 304 305 305 304 303 306 311 308 306 309 309 309 310 310 310 311 312 313 313 312 311 313 311 310 308 308 308 309 311 312 310 312 311 313
298 298 298 297 297 297 297 297 298 299 301 302 302 303 305 304 304 303 306 310 306 308 309 309 311 309 310 311 311 311 312 309 311 311 310 310 310 306 308 308 309 311 310 312 312 313 313
298 297 297 297 297 297 297 297 299 299 301 302 302 303 304 303 303 304 309 307 307 309 309 309 310 310 310 312 309 312 309 308 309 308 310 309 310 307 309 310 310 311 312 313 312 313 314
298 297 296 297 296 296 296 297 298 300 302 302 300 306 304 305 303 303 309 307 309 310 312 312 310 310 310 310 312 311 310 306 307 307 311 309 311 310 308 308 309 309 311 311 313 311 311
298 297 297 296 296 296 297 297 298 300 302 302 301 304 305 305 308 309 308 309 309 311 312 312 312 312 311 310 312 309 307 307 307 308 308 309 311 309 309 310 309 311 310 310 310 310 311
297 297 297 296 296 296 297 297 298 300 302 302 302 305 306 306 307 308 308 309 310 310 311 312 313 312 313 313 310 310 308 308 307 308 309 309 310 310 311 312 312 313 311 310 311 313 311
297 297 297 296 297 296 296 297 298 299 302 304 304 303 305 307 308 308 308 308 311 311 311 310 313 314 313 315 313 312 309 308 308 308 310 310 312 311 311 310 311 311 313 312 312 311 312
297 297 297 297 297 296 296 296 298 299 301 303 303 307 306 306 308 308 309 308 308 310 312 312 312 312 313 314 313 313 311 309 310 308 310 311 312 312 312 312 312 312 312 312 312 312 311
297 297 296 296 296 296 295 295 298 299 301 302 302 305 307 308 308 309 307 309 309 310 311 312 311 312 314 313 313 313 313 312 310 311 311 312 312 313 314 314 314 316 314 313 312 312 311
297 297 297 296 296 296 296 295 298 298 300 301 302 304 307 309 309 308 307 307 310 310 312 313 311 313 314 313 314 313 314 313 312 312 312 313 310 312 314 314 320 319 315 313 313 312 311
297 296 296 296 296 295 296 295 296 298 300 301 303 304 309 309 308 308 307 307 308 310 312 312 312 313 313 314 313 316 316 315 314 312 312 313 312 315 316 317 318 317 316 315 314 314 311
296 296 296 296 295 296 296 295 296 297 299 301 306 306 308 308 308 309 310 309 311 310 312 312 312 312 312 312 313 317 317 313 312 312 307 312 312 315 314 317 322 314 315 312 314 319 312
296 296 295 296 295 295 296 295 296 295 298 301 306 306 309 312 310 310 309 311 312 311 312 310 311 312 313 312 313 317 317 311 313 314 313 313 313 315 315 316 314 312 310 315 319 316 308
294 295 295 294 295 295 295 295 296 291 297 300 303 306 306 310 311 310 310 311 311 311 311 310 311 312 312 314 315 315 316 310 311 309 312 312 313 314 314 316 313 310 313 315 310 309 309
290 294 295 294 294 294 295 296 294 293 297 298 301 306 310 310 312 312 311 312 312 312 311 311 312 312 312 314 314 315 315 308 309 313 308 312 311 312 311 311 309 311 310 312 311 308 309

GFSGBSN_850_thetae_018.txt.gz
Theta_e
305 305 304 304 304 303 303 304 304 304 304 305 306 308 313 315 314 315 317 315 313 306 307 309 308 308 318 319 321 318 316 317 320 324 323 322 321 320 321 320 320 321 320 320 320 321 321
304 304 303 303 303 304 303 302 302 302 302 304 305 305 310 313 314 314 317 315 314 308 307 312 310 309 312 318 318 320 317 315 319 323 323 322 322 320 319 319 320 318 320 320 320 320 320
303 302 303 303 303 304 302 302 302 302 301 302 303 304 306 310 312 314 315 316 313 309 307 310 312 310 311 311 310 312 315 318 319 323 323 323 321 320 320 319 319 318 319 318 318 318 319
302 303 303 303 303 303 303 302 302 302 301 301 302 302 303 307 310 313 315 316 312 308 309 310 310 310 311 310 310 310 311 317 318 320 321 320 321 319 317 318 317 319 319 321 319 320 320
303 303 302 302 302 302 302 302 302 301 301 302 301 302 301 305 308 312 314 316 312 308 312 313 312 310 313 311 310 310 310 315 320 316 316 318 318 317 318 317 319 318 320 320 320 318 319
303 303 303 303 302 302 301 301 301 301 301 301 301 301 302 302 304 310 314 316 312 309 311 313 313 312 312 312 311 311 310 314 314 315 315 316 315 316 316 319 322 320 320 318 319 318 318
302 303 303 303 302 302 301 301 301 301 300 300 300 300 302 303 303 304 312 314 310 310 312 312 311 311 311 311 310 310 311 312 313 315 316 314 315 316 316 316 317 316 317 318 317 316 316
303 303 303 302 302 302 301 300 300 300 300 299 300 301 301 301 303 303 306 310 310 311 310 310 310 311 311 311 311 311 311 312 312 314 314 314 315 315 314 315 315 316 317 317 316 315 314
303 303 302 301 301 301 300 299 300 300 300 299 300 299 301 302 301 302 304 311 310 310 310 310 310 311 311 311 312 312 311 312 313 314 315 315 314 312 313 314 315 316 316 316 315 313 313
301 301 301 300 300 300 299 299 299 300 299 300 299 299 301 302 301 302 305 308 310 310 313 310 310 310 310 311 312 311 311 312 312 314 314 314 313 312 313 314 314 316 313 314 313 314 315
301 300 300 300 299 298 298 299 298 299 299 300 300 300 301 302 302 305 307 307 309 308 315 309 309 309 310 310 311 311 311 311 313 313 313 314 312 313 312 312 312 313 311 311 312 314 313
299 300 299 299 298 298 298 298 299 299 299 299 300 301 301 303 303 303 307 307 307 309 314 309 309 311 311 310 311 311 311 311 311 312 312 312 310 311 312 311 311 311 312 312 312 313 317
299 299 298 298 298 298 298 298 298 299 299 300 301 302 302 303 303 303 306 307 309 316 308 309 310 311 310 311 312 312 312 312 313 314 313 312 312 311 310 311 311 312 311 314 315 316 315
299 299 298 298 298 298 298 298 298 299 300 301 301 303 303 304 304 305 306 306 314 311 311 309 310 310 312 310 312 312 312 313 312 312 314 313 316 313 311 311 312 311 312 314 314 314 313
299 298 298 298 298 298 298 298 298 299 300 301 302 303 304 304 304 305 304 312 313 310 310 310 311 311 312 310 312 311 312 312 311 312 314 313 311 310 311 311 311 312 313 312 314 314 315
298 298 298 298 298 297 297 297 298 299 300 302 301 302 304 305 304 304 304 313 308 310 309 310 312 310 311 311 312 312 312 312 312 312 311 312 313 309 311 310 311 312 311 313 314 313 314
298 298 298 298 297 296 297 297 298 300 301 302 301 302 304 304 303 303 310 310 310 309 310 311 311 311 311 311 311 311 313 311 311 312 312 312 311 311 310 311 312 311 312 314 313 314 313
298 297 298 298 297 296 297 297 298 299 300 302 302 303 303 304 305 304 310 309 310 310 312 312 311 311 312 312 312 312 313 311 309 311 312 312 311 312 311 310 310 310 311 311 314 314 314
298 298 297 297 297 297 297 296 298 299 301 302 301 301 304 305 309 310 308 310 311 312 313 313 313 312 311 312 313 312 311 309 309 311 312 311 312 312 314 312 310 311 311 311 312 312 314
299 297 297 297 297 297 297 296 298 299 302 303 302 305 305 305 308 309 310 311 312 311 313 313 313 313 313 312 312 312 311 310 308 310 309 310 312 312 315 316 314 315 312 311 312 314 314
298 297 297 297 297 297 297 296 297 299 302 303 302 304 306 309 309 310 310 311 312 312 312 312 313 314 314 314 313 313 312 311 309 309 310 311 313 312 311 311 312 313 313 313 312 312 313
298 297 297 297 297 297 297 295 297 298 301 302 301 305 307 308 308 310 310 310 311 312 312 312 312 313 314 314 314 314 312 313 313 310 311 311 312 313 313 313 313 314 314 314 313 313 313
298 298 297 297 296 296 296 295 297 298 300 301 302 303 306 308 309 309 310 310 310 311 311 312 312 313 313 313 312 313 312 312 311 312 312 312 313 314 316 315 316 318 315 315 314 313 313
297 297 297 296 296 296 295 295 296 297 299 300 301 303 307 309 310 310 309 310 310 310 313 312 312 313 313 313 314 314 314 314 314 314 311 312 312 312 315 316 321 318 316 316 316 315 313
297 296 296 296 296 296 295 295 296 296 298 301 303 304 306 310 310 309 309 309 311 311 312 312 312 312 312 313 314 314 316 316 315 314 314 312 314 316 318 318 317 318 316 318 316 317 314
296 295 295 295 295 295 295 294 296 292 296 301 303 302 305 310 310 309 310 308 310 311 311 312 311 312 312 314 314 314 317 315 316 315 312 313 314 315 316 318 320 320 314 314 314 320 313
295 295 295 296 296 295 294 295 296 291 297 298 302 302 304 309 311 309 311 311 312 312 313 311 312 313 312 315 314 313 316 314 317 316 314 314 314 315 314 317 316 315 312 315 319 318 311
293 295 295 294 293 294 295 294 292 291 296 297 301 302 302 305 311 309 310 311 311 312 313 311 312 312 313 314 313 315 317 315 315 314 315 316 317 316 316 316 319 312 315 318 315 312 310
290 295 293 289 293 293 293 290 292 294 293 296 299 302 304 305 311 310 310 311 311 311 311 311 313 312 313 313 313 315 315 313 316 317 311 317 316 317 316 317 314 312 314 313 310 310 309

GFSGBSN_850_thetae_021.txt.gz
Theta_e
304 304 304 304 304 304 304 304 304 303 303 303 302 305 306 307 313 313 314 316 317 314 309 307 308 307 317 320 322 319 318 320 322 323 323 322 321 321 322 321 320 321 320 319 320 321 321
304 304 304 304 304 304 303 303 303 303 303 303 303 303 305 304 309 312 314 315 317 314 309 307 310 308 316 320 319 320 316 319 322 324 324 323 323 321 322 321 321 321 321 321 321 321 321
304 304 305 303 303 304 303 303 303 303 303 303 302 303 302 302 305 309 313 315 316 314 310 308 312 311 313 316 314 315 320 319 323 324 324 323 322 321 322 322 321 321 322 321 321 321 321
305 305 305 304 304 303 303 303 303 302 302 303 302 302 302 303 303 307 311 314 315 315 309 308 310 312 313 312 313 310 313 318 321 323 323 322 322 320 320 319 319 320 321 323 322 321 320
305 304 304 304 304 304 302 302 303 301 302 302 302 302 301 302 303 305 309 314 314 314 309 310 311 313 314 312 310 312 313 317 320 319 321 322 321 319 319 321 320 320 322 323 322 321 320
304 304 304 305 304 303 302 303 301 300 300 301 301 300 300 300 302 303 305 309 314 313 311 313 313 313 312 313 313 312 312 317 318 317 319 319 318 318 319 320 323 322 322 321 321 320 320
304 303 303 303 304 302 302 302 300 300 300 300 300 299 301 300 302 303 304 307 314 311 314 313 313 313 314 313 312 312 312 316 316 317 317 316 317 319 319 318 319 319 319 320 319 319 318
303 302 302 302 302 301 300 300 300 300 299 300 299 299 301 299 301 302 303 304 307 311 313 312 312 313 313 313 313 312 312 315 315 317 316 316 317 316 316 316 318 318 319 319 318 317 316
302 302 302 301 300 300 299 299 299 299 299 299 299 300 300 300 301 301 303 302 307 310 312 312 312 312 312 312 314 313 312 313 316 316 316 317 317 315 316 316 316 317 317 317 317 316 315
301 301 301 300 300 299 299 299 299 298 299 300 300 300 300 301 301 305 305 301 307 309 313 312 312 311 312 312 313 313 313 313 314 315 315 316 315 313 315 316 315 317 316 316 316 316 318
301 301 300 300 299 299 299 299 299 299 300 299 299 300 301 301 303 302 305 305 307 306 320 311 311 311 312 312 312 313 312 313 314 315 314 316 314 315 314 314 314 315 313 313 313 314 314
301 300 299 299 299 299 298 298 299 299 299 300 300 301 302 303 303 302 303 306 308 310 319 311 310 312 311 311 312 312 312 312 312 313 313 314 312 313 314 313 313 312 313 313 313 313 316
301 300 299 299 298 298 297 298 299 299 299 300 301 302 302 303 303 305 304 306 308 315 310 311 310 311 311 311 312 312 313 313 314 314 314 313 313 311 311 313 312 312 313 316 317 317 316
300 299 299 299 298 298 297 298 298 299 299 301 302 302 304 304 303 304 304 307 312 313 312 309 311 311 312 311 311 311 312 313 312 312 314 314 317 313 312 313 313 313 313 315 315 314 314
299 298 298 298 297 298 297 298 298 299 300 301 302 303 305 305 304 304 305 310 315 313 311 311 311 312 312 311 313 312 312 313 312 312 316 316 315 312 312 312 312 312 313 313 314 313 314
300 299 298 297 297 297 297 298 298 299 300 301 302 302 304 304 304 304 307 312 311 311 311 311 312 311 312 311 313 312 312 312 311 312 312 314 316 312 312 312 312 312 312 313 314 314 314
300 299 298 298 297 298 297 297 297 300 300 302 302 301 305 304 303 306 311 311 311 310 311 312 312 312 311 311 311 311 312 313 312 313 312 312 313 312 311 311 312 312 313 313 313 314 316
300 299 298 298 297 298 297 297 298 300 301 303 301 304 304 303 307 307 310 311 310 311 313 312 312 312 312 312 312 313 314 313 312 312 313 312 312 314 313 311 311 312 312 311 314 314 314
299 299 298 297 297 297 297 296 298 299 301 304 301 301 303 305 310 309 308 311 311 313 314 314 313 313 312 313 314 313 313 311 310 312 313 312 313 314 316 314 312 312 312 312 313 314 316
297 298 298 297 297 297 297 295 298 299 302 304 302 305 304 305 309 309 311 312 313 313 314 314 314 312 313 313 314 314 313 311 310 311 310 312 312 314 316 316 314 316 313 313 314 316 315
298 298 298 297 297 296 297 295 298 299 303 303 303 307 306 309 310 310 311 312 313 313 313 313 313 314 314 314 314 314 313 312 311 311 311 311 315 313 313 313 314 315 315 315 314 315 315
297 297 297 297 297 297 296 296 297 299 302 303 302 304 306 308 310 311 311 312 312 313 312 313 314 314 314 315 315 315 314 313 313 312 312 311 314 313 312 313 313 315 315 316 316 316 315
297 297 296 297 297 297 296 296 297 297 301 302 303 303 304 309 310 311 312 312 312 312 313 313 313 313 314 314 313 313 313 312 312 313 312 312 313 313 316 314 316 320 318 317 317 316 315
297 296 296 295 294 296 296 296 297 294 300 302 302 303 306 310 310 311 310 311 311 311 313 313 313 313 314 314 314 314 314 314 313 313 312 313 313 313 317 316 322 321 316 316 318 318 314
296 295 296 296 296 295 295 296 297 292 299 303 302 303 305 310 310 310 310 311 311 310 312 312 312 313 313 313 315 315 316 316 315 315 315 312 313 316 318 318 318 320 318 317 318 318 315
296 295 292 295 291 293 295 296 294 291 297 301 303 303 304 308 311 310 311 311 313 313 313 312 312 312 313 314 314 314 315 317 317 315 313 314 312 316 317 318 320 319 316 315 315 321 314
297 295 290 290 290 289 292 292 293 293 292 298 301 302 304 306 312 310 311 311 310 311 314 313 313 313 313 314 316 314 314 315 317 317 315 314 314 316 316 317 316 316 315 315 321 319 313
296 295 291 290 290 289 290 294 295 295 292 293 299 302 302 303 309 311 310 312 312 313 314 313 313 313 313 314 313 314 317 316 316 316 317 317 317 316 315 315 318 315 317 319 317 314 313
296 295 294 291 290 291 290 294 294 295 295 293 297 298 300 302 309 310 310 311 312 312 313 313 314 313 313 313 312 314 316 315 316 317 315 318 317 319 317 319 317 315 315 314 313 313 312

GFSGBSN_850_thetae_024.txt.gz
Theta_e
305 305 305 306 305 305 304 305 304 304 304 304 304 304 304 303 305 307 310 313 315 317 315 314 306 307 314 318 321 321 320 323 323 321 323 321 320 320 320 319 319 319 320 320 320 321 321
306 306 306 306 306 305 305 305 304 304 304 304 304 304 304 303 303 304 307 311 314 315 316 313 307 309 313 318 320 320 317 319 321 322 323 322 320 320 321 320 320 320 321 321 320 320 321
306 306 306 305 304 305 306 304 303 303 303 303 303 304 303 303 302 303 304 309 313 315 317 312 307 310 313 316 315 317 320 319 322 323 323 323 323 322 322 322 321 321 322 321 321 321 321
306 305 305 306 305 306 305 304 304 303 302 302 300 302 303 302 301 302 303 307 311 315 316 312 309 312 314 313 314 314 315 319 320 323 323 323 323 321 320 320 320 321 321 322 320 320 321
304 305 304 304 303 304 304 303 302 302 302 302 301 300 301 301 300 301 303 303 308 314 317 311 310 313 313 313 313 313 313 318 321 321 323 322 322 320 319 320 321 320 320 321 321 321 321
305 304 303 303 303 303 302 302 301 301 300 300 300 300 300 299 301 301 303 303 306 311 314 310 313 312 313 314 313 312 313 317 319 320 321 322 320 319 319 321 322 321 320 320 320 320 320
302 303 302 303 302 302 301 301 300 300 300 300 299 299 299 300 300 301 301 304 306 312 313 313 313 313 312 314 313 313 313 317 317 319 319 320 320 319 319 319 320 320 320 319 319 318 317
303 302 303 302 301 301 300 300 300 300 300 299 299 299 299 300 300 301 301 304 305 309 313 313 314 314 314 313 314 313 314 317 317 319 317 317 317 317 317 317 318 318 318 318 317 317 316
302 302 302 301 300 300 300 299 299 299 299 299 299 299 300 301 301 301 302 303 302 305 312 313 313 313 313 313 314 313 314 315 316 317 316 317 316 316 316 317 317 317 317 317 316 316 314
301 302 301 300 300 299 299 298 299 299 299 300 300 300 301 301 300 303 304 305 303 304 310 313 313 313 313 314 314 313 314 315 315 317 316 316 315 314 316 317 316 317 315 315 316 315 315
301 302 300 299 300 299 299 298 299 299 299 299 300 301 301 303 303 302 303 305 303 305 318 312 312 312 313 314 313 313 313 313 315 315 315 317 316 315 315 315 314 315 314 313 313 313 312
301 301 300 299 299 298 298 298 298 299 299 299 301 301 302 303 304 303 303 304 304 309 315 313 310 312 313 313 313 312 313 313 313 314 314 315 312 313 314 313 313 312 313 313 313 313 311
300 301 299 299 298 298 299 298 298 299 299 300 301 302 303 303 303 303 304 305 308 311 310 312 312 311 312 313 313 313 313 314 314 314 315 314 313 312 312 313 313 313 313 313 314 315 311
301 301 299 299 298 298 299 299 299 298 299 300 302 303 304 304 305 305 304 306 310 313 312 309 311 312 311 312 312 312 313 314 313 312 315 313 315 313 311 312 314 313 313 313 315 314 313
300 300 300 299 298 298 298 299 298 298 300 301 302 303 304 304 305 304 306 309 312 312 310 311 312 313 312 311 312 312 313 313 312 312 314 314 315 312 312 312 313 313 313 312 313 311 309
300 300 300 298 298 298 298 299 298 300 301 303 303 302 304 305 304 304 307 311 309 311 311 311 312 312 311 312 313 312 312 311 311 311 311 314 315 312 313 312 312 312 311 312 312 308 312
299 300 299 297 297 297 297 299 298 300 301 303 302 302 303 304 304 305 309 308 311 311 311 313 312 312 311 311 313 312 312 312 311 311 311 312 313 312 311 311 312 312 313 312 312 313 310
299 299 299 298 297 297 298 297 298 299 302 304 302 304 304 304 307 307 309 307 311 313 313 312 312 312 311 310 312 311 312 312 311 312 312 311 313 313 312 310 310 311 311 310 313 309 310
298 299 299 297 297 297 297 297 298 300 303 304 302 302 303 304 308 309 306 311 312 313 314 314 313 312 311 311 312 313 314 311 312 312 313 312 313 311 313 312 311 311 311 312 311 312 312
298 298 298 297 297 297 297 296 297 301 304 303 303 305 305 305 308 308 309 312 314 313 314 313 313 312 312 312 314 314 313 311 311 312 311 311 313 311 311 314 313 312 313 312 313 314 314
298 298 297 297 298 297 296 296 296 301 304 304 305 307 307 311 311 308 311 313 313 313 313 313 313 313 313 314 314 313 313 312 311 311 311 311 313 310 312 312 312 312 313 313 314 315 316
297 297 296 296 296 296 295 296 295 300 304 304 304 305 305 309 310 310 312 312 313 313 314 313 314 314 314 314 314 314 313 313 313 311 311 311 309 313 312 312 312 312 313 313 314 316 316
297 296 296 297 297 297 296 297 293 298 302 302 304 305 305 309 311 311 312 312 312 313 313 313 313 313 314 315 314 314 313 312 312 312 312 313 313 313 314 314 313 317 316 318 318 316 317
297 296 294 296 295 293 296 296 293 292 301 303 303 303 306 311 310 311 311 311 312 312 313 313 313 314 314 313 313 314 314 313 313 311 311 313 313 313 314 313 317 321 316 316 316 317 317
297 297 296 293 294 292 290 291 291 292 295 302 303 304 305 310 310 310 311 311 311 313 313 313 313 313 313 313 315 316 316 315 315 314 312 312 313 315 317 317 314 317 318 317 318 317 314
297 298 296 295 293 293 290 292 295 293 292 300 302 303 304 306 311 311 311 312 312 311 312 313 312 311 313 314 314 314 314 317 317 315 312 313 312 315 315 317 318 319 315 314 315 320 313
298 297 297 295 295 292 294 292 295 295 292 292 301 301 303 305 309 311 311 311 311 311 313 313 313 313 313 314 315 314 313 314 315 318 314 315 315 315 315 317 314 313 314 316 320 316 313
297 295 298 295 296 295 295 295 295 294 295 293 296 300 299 301 307 309 311 311 311 313 314 313 313 312 313 315 314 314 314 315 315 314 316 315 314 315 314 316 313 314 315 317 314 314 314
297 296 296 296 296 296 295 295 295 294 294 295 296 298 296 299 305 310 310 311 312 313 313 313 314 313 314 313 311 313 314 314 315 318 314 315 315 317 313 314 314 316 315 316 314 312 312

GFSGBSN_850_thetae_027.txt.gz
Theta_e
307 307 306 305 306 306 306 306 306 305 304 304 304 304 304 304 304 304 304 305 309 312 315 319 314 307 308 315 318 321 321 323 322 319 316 319 321 320 318 317 318 318 318 320 320 320 319
307 307 305 306 306 307 306 305 305 305 304 304 304 303 304 304 303 304 302 303 305 310 315 317 313 309 310 316 316 319 319 321 322 321 318 322 321 320 319 318 316 318 319 319 320 320 320
305 305 306 305 304 304 303 304 304 303 303 303 304 302 301 303 303 303 302 302 303 309 313 317 313 310 310 313 318 320 317 319 320 322 320 321 322 322 321 321 320 320 320 319 320 321 319
305 307 305 304 303 303 303 303 302 302 302 301 301 301 300 302 302 302 300 302 302 305 311 316 313 311 312 309 315 317 319 319 321 322 321 322 323 322 320 320 319 319 319 321 319 319 320
305 304 304 303 304 303 302 302 301 301 300 300 300 300 300 300 299 299 301 301 303 303 309 315 312 312 312 312 312 315 314 318 320 321 322 322 323 320 319 319 320 318 318 318 319 318 319
303 303 304 304 303 302 302 301 301 300 301 301 300 299 299 299 299 300 300 301 302 303 307 314 312 312 311 313 313 313 313 318 320 321 322 322 320 320 319 319 322 320 318 317 318 318 319
303 303 303 303 302 302 301 301 300 300 300 300 299 299 299 300 300 300 301 301 304 305 309 310 312 312 313 314 312 312 313 317 319 320 322 321 320 321 318 317 318 319 319 317 316 316 315
302 303 303 302 301 301 301 301 300 300 300 300 299 300 300 300 300 301 301 301 302 305 305 311 313 313 313 313 313 312 315 318 317 318 317 317 318 318 318 318 319 317 317 316 315 315 314
302 302 302 302 300 301 300 300 300 300 300 300 300 300 301 301 302 301 302 302 303 302 306 312 313 313 313 313 313 312 314 317 316 317 316 316 315 315 315 316 316 315 316 316 315 313 311
302 302 302 301 300 300 300 300 300 300 299 300 300 300 301 303 302 302 302 303 305 303 308 313 313 313 313 314 314 312 315 315 316 317 316 316 315 314 315 316 315 316 312 314 314 312 313
301 301 301 301 300 300 300 300 300 300 299 300 300 301 301 302 304 302 302 303 305 302 314 311 313 312 312 313 313 313 314 314 315 316 315 317 316 315 314 315 314 314 312 312 312 311 309
300 301 301 300 299 299 299 299 300 299 299 299 300 302 302 304 303 303 303 304 304 305 313 312 311 313 313 313 313 313 313 313 314 315 314 313 312 313 314 312 312 311 312 311 311 309 306
301 301 301 300 299 299 299 299 299 299 299 300 302 303 304 304 303 303 303 303 305 308 309 312 314 313 313 314 313 313 314 314 314 314 316 315 313 311 311 312 312 311 309 305 312 312 309
300 301 301 299 298 298 298 298 299 298 300 302 302 303 303 303 303 303 304 304 306 313 312 311 313 312 313 313 312 313 314 314 312 311 312 314 310 311 310 311 311 311 310 306 312 311 311
300 300 300 299 298 299 298 299 298 300 301 303 304 303 304 304 304 304 305 305 310 313 311 313 312 312 312 312 312 313 312 313 311 311 310 309 311 311 310 310 311 311 310 310 310 309 302
299 300 299 299 298 298 298 299 299 300 304 304 302 303 304 304 303 304 306 310 307 310 311 311 313 311 312 312 312 312 312 311 311 310 309 313 313 312 312 311 311 310 309 307 303 304 310
299 299 299 299 298 298 298 298 299 301 303 302 303 303 304 304 305 305 308 306 308 310 310 312 311 312 309 312 311 311 311 311 310 310 309 312 312 311 312 311 310 311 312 311 309 307 306
299 299 298 297 298 297 298 298 298 303 303 303 302 303 303 305 304 306 308 304 307 311 312 311 310 309 309 309 311 311 311 311 310 311 311 311 312 313 309 309 309 309 310 309 308 305 306
299 298 297 297 298 296 297 298 296 303 303 302 302 303 305 306 306 308 306 308 312 314 313 313 312 310 309 310 310 311 312 311 310 311 311 311 312 306 309 310 310 311 310 310 311 309 310
298 297 297 296 297 295 296 298 295 303 304 303 304 303 306 307 307 306 309 312 313 313 313 312 310 309 311 311 310 312 312 310 311 311 311 310 311 305 308 309 310 309 311 310 311 313 311
298 297 296 297 297 297 297 297 295 304 305 304 305 304 306 303 308 307 309 312 313 313 312 311 313 311 311 313 312 312 311 310 310 311 310 309 309 307 309 310 310 308 310 311 311 312 314
298 297 296 296 295 295 295 293 293 303 305 305 304 304 304 305 307 309 310 311 312 313 312 312 314 314 314 314 313 313 312 310 310 309 309 309 306 309 310 310 310 311 311 311 311 312 313
298 298 296 296 293 292 291 291 292 299 304 304 304 304 304 306 307 307 309 310 312 312 312 312 312 313 315 314 313 313 312 311 311 308 309 311 308 312 308 311 311 314 313 313 316 316 317
298 298 296 296 295 291 292 292 292 293 300 302 303 303 305 307 307 309 310 311 311 312 312 312 313 313 314 313 313 314 313 313 312 309 310 312 312 313 312 312 312 317 315 315 315 316 316
296 298 298 296 296 294 291 294 293 292 292 301 302 304 304 306 307 309 310 310 312 312 312 312 313 313 313 313 313 315 315 315 314 310 310 311 313 315 317 316 313 314 318 316 316 317 314
296 299 297 297 297 295 295 293 295 293 292 295 302 302 304 304 306 309 309 310 308 308 310 312 311 311 312 312 312 312 313 315 316 314 312 312 312 315 315 316 316 315 314 314 313 317 313
295 298 297 297 297 297 296 295 295 294 294 293 300 301 302 303 307 308 311 310 311 310 309 312 312 312 313 311 313 312 309 313 314 315 315 315 314 315 315 317 314 310 312 315 319 315 312
294 297 297 295 296 296 296 296 295 296 294 294 295 299 299 301 306 307 308 311 311 311 310 312 311 311 311 312 312 310 310 312 313 312 313 314 314 315 315 315 313 310 313 316 313 313 313
294 297 297 294 294 297 297 296 296 296 296 294 294 295 297 297 303 307 308 310 311 312 313 312 313 312 312 312 308 310 313 311 311 313 311 315 312 315 311 311 309 314 314 314 314 312 311

GFSGBSN_850_thetae_030.txt.gz
Theta_e
306 306 306 306 305 305 306 305 305 303 304 304 304 304 304 304 304 304 304 303 303 304 310 314 315 317 310 313 315 322 321 317 322 321 322 321 320 321 318 317 319 317 317 319 320 320 318
306 306 308 305 305 305 305 304 303 303 303 303 302 302 302 301 302 302 303 303 303 303 307 312 314 314 310 313 310 320 320 321 322 320 320 318 321 321 318 317 316 316 318 318 319 319 319
307 306 305 305 304 305 304 303 302 302 303 302 302 301 301 301 301 302 302 302 302 303 305 311 315 313 311 308 317 316 318 321 321 319 318 316 321 320 319 320 320 319 319 318 318 319 319
305 304 304 304 304 304 303 303 302 303 302 301 301 301 300 300 300 301 300 300 300 301 302 310 313 313 310 309 318 317 317 319 320 321 321 317 322 322 321 319 318 318 317 320 318 318 318
304 304 304 304 304 303 303 301 302 303 301 300 300 300 300 300 299 300 300 300 301 301 302 306 312 313 311 310 311 318 318 319 321 322 322 321 322 321 319 318 317 317 318 318 318 317 317
304 304 303 304 303 302 302 302 301 301 301 300 300 299 299 299 300 300 301 300 300 301 302 303 310 311 311 311 312 315 316 318 320 321 321 321 321 321 318 317 319 319 318 316 317 316 317
303 303 303 303 302 301 301 301 300 301 300 300 301 301 301 301 301 302 300 301 302 305 304 312 313 311 311 311 312 313 313 317 320 320 323 321 322 323 321 318 317 318 319 317 315 315 314
302 303 303 302 302 301 301 301 301 300 300 300 300 300 301 301 302 302 300 301 301 303 304 308 312 313 311 313 312 313 313 318 319 320 318 318 321 319 320 320 319 318 317 316 314 314 314
302 302 303 302 301 300 300 300 300 301 301 300 300 300 301 302 302 301 301 301 302 303 304 308 311 312 313 312 312 312 313 317 317 318 317 319 317 317 316 317 315 315 315 315 315 312 311
302 302 302 302 301 300 300 300 300 301 301 299 300 301 301 302 303 302 302 302 303 303 306 313 313 312 313 313 313 312 316 316 316 316 316 315 313 315 315 316 314 315 312 313 312 312 312
301 301 302 301 300 299 299 299 300 300 299 299 300 302 302 302 303 303 302 302 303 303 311 308 311 312 313 313 312 312 314 315 315 316 315 316 315 314 315 315 313 314 311 311 311 310 308
301 301 300 300 300 299 300 299 300 300 300 301 301 302 303 303 302 303 302 304 303 305 312 311 312 313 313 313 312 313 313 314 315 316 314 313 311 313 313 311 312 311 310 309 309 307 304
301 300 300 301 300 300 298 300 301 300 301 303 303 303 303 304 303 302 303 303 304 305 308 310 314 312 313 313 313 314 314 313 314 317 317 315 313 311 311 311 311 309 307 304 305 305 308
300 300 299 300 299 299 299 299 300 302 304 303 303 303 304 303 303 303 304 302 305 312 312 311 313 312 314 313 314 314 314 314 312 311 311 311 314 311 310 311 311 310 308 306 309 310 309
299 299 300 299 299 299 299 300 300 303 303 303 303 303 304 304 303 304 305 305 308 310 312 313 312 312 313 311 314 313 313 314 312 310 310 308 310 310 310 310 310 311 308 308 309 308 302
299 299 299 298 299 299 298 299 301 303 302 303 303 304 303 303 304 305 306 309 307 309 311 311 310 311 313 311 313 312 312 311 311 310 309 310 310 312 311 310 310 309 308 309 304 300 308
299 297 298 298 298 297 298 299 301 303 303 303 302 303 304 305 305 305 307 305 308 310 311 311 310 310 311 311 309 311 310 310 309 309 309 310 309 311 312 310 310 310 311 309 306 303 304
297 295 297 297 298 298 299 295 303 304 303 303 303 298 304 305 305 306 307 304 306 310 311 311 308 308 309 310 310 309 309 309 310 309 310 310 310 305 311 309 308 309 309 307 304 303 304
297 293 296 296 296 298 299 294 303 304 303 303 303 304 307 306 303 308 306 306 307 313 312 312 310 309 308 309 310 309 310 310 309 309 310 310 308 305 309 310 308 310 309 309 309 309 302
297 294 294 295 291 294 294 293 303 305 303 304 304 299 306 307 306 307 308 311 312 311 310 308 308 308 309 310 309 311 311 311 311 311 311 310 308 304 307 307 307 306 309 309 310 307 309
297 297 294 296 291 291 291 292 301 304 304 304 304 304 305 302 307 307 308 310 312 312 311 311 310 310 312 313 312 313 311 309 310 311 310 309 304 304 307 308 308 307 309 309 309 310 310
297 297 294 296 292 290 290 292 295 303 305 304 303 304 304 304 306 307 308 310 311 311 311 312 313 314 312 314 312 312 310 309 310 309 308 308 304 307 310 308 309 309 309 309 310 310 311
294 298 295 296 295 291 290 290 293 299 303 302 303 304 304 305 304 306 308 310 311 311 311 312 312 313 313 314 313 311 310 310 308 308 308 308 306 311 309 309 309 312 311 312 312 311 311
294 298 297 296 296 294 291 291 291 293 301 302 302 303 305 305 305 307 309 310 310 311 312 312 312 312 313 312 313 313 312 310 309 308 310 310 311 313 310 309 310 314 312 312 312 314 314
295 295 299 295 296 296 295 292 294 291 293 300 302 302 303 305 305 308 309 310 311 311 311 312 312 312 312 313 312 315 315 314 313 310 310 310 312 312 314 314 312 314 316 316 315 314 314
296 295 298 297 295 297 296 295 295 291 291 293 301 301 302 303 304 307 309 308 308 308 308 312 311 311 312 311 311 312 315 311 316 314 310 311 312 314 315 314 316 313 313 313 312 314 312
297 294 298 297 295 296 296 295 295 296 291 291 298 298 301 302 304 307 309 310 310 308 307 310 312 311 312 309 312 310 307 311 316 315 316 314 314 315 315 316 313 310 310 314 317 313 313
294 294 298 298 296 295 296 296 296 296 295 292 292 297 298 298 302 305 307 309 311 309 307 309 310 310 309 309 309 309 309 310 312 311 312 314 314 314 315 316 313 310 313 316 312 313 313
296 294 296 298 297 294 297 296 296 295 295 295 294 292 294 296 300 302 304 306 310 311 312 311 311 310 311 308 306 308 311 312 309 311 309 314 311 312 311 311 309 311 313 314 313 312 311

GFSGBSN_850_thetae_033.txt.gz
Theta_e
307 308 306 306 306 306 306 305 304 303 303 303 303 302 302 301 302 303 303 303 303 304 304 306 311 314 315 311 311 321 322 319 319 320 321 322 321 319 318 317 318 317 317 319 320 320 319
307 306 306 306 305 305 304 304 303 303 303 303 302 301 302 301 302 302 301 301 302 302 303 304 309 312 315 311 313 315 321 317 320 319 320 322 321 320 319 317 317 317 318 318 318 318 318
307 305 305 305 305 304 303 303 303 302 303 303 302 301 301 300 301 300 300 301 301 302 303 305 308 312 313 313 310 318 319 317 320 321 320 322 320 320 319 318 318 318 318 318 318 318 318
306 304 305 305 305 303 303 303 301 302 301 302 301 300 300 300 300 300 300 299 300 300 302 303 308 311 312 314 314 316 318 320 318 319 319 318 321 321 319 319 318 318 317 319 317 317 318
304 304 305 304 303 303 303 302 301 302 301 301 301 301 301 300 300 300 300 300 300 300 302 303 306 309 312 311 311 316 318 319 320 320 319 317 319 321 319 316 317 316 317 318 318 316 317
304 304 303 304 303 302 302 302 301 302 300 300 301 300 301 301 301 301 301 301 300 300 300 302 305 310 311 311 312 316 317 318 320 321 321 320 320 318 316 316 319 318 318 316 316 315 316
303 303 303 303 303 302 302 300 301 301 301 302 301 300 300 301 302 303 301 300 302 304 302 305 309 309 312 312 311 316 316 317 319 320 322 320 322 322 320 316 316 315 317 317 315 314 313
303 303 302 303 302 301 300 301 300 300 301 301 300 300 300 301 301 303 302 300 300 302 303 305 309 310 312 312 312 314 314 316 319 320 318 320 322 319 319 318 319 319 319 317 314 313 313
303 302 302 302 301 301 300 301 301 300 301 301 299 300 300 301 302 302 301 300 301 303 304 305 307 312 312 312 313 313 313 318 318 318 318 319 319 319 320 321 321 314 315 315 315 311 310
302 302 302 302 301 301 301 300 300 301 300 301 301 300 301 303 302 303 302 301 302 303 306 309 310 313 312 312 312 313 314 317 316 318 316 316 316 318 319 319 313 314 311 313 311 312 313
301 302 301 302 301 300 299 301 301 301 302 303 303 302 303 303 303 302 301 302 303 303 311 308 311 311 313 312 312 313 315 315 316 316 316 316 314 316 317 316 313 314 310 311 310 309 308
300 301 301 301 300 300 301 300 301 303 304 303 303 303 303 302 303 302 303 303 303 305 310 309 311 314 312 312 313 314 313 315 315 315 313 312 311 312 312 311 311 310 309 307 307 306 305
300 301 301 299 300 300 300 300 302 303 303 303 303 302 302 302 302 303 303 303 305 305 308 310 313 312 312 314 314 314 314 314 316 317 317 314 313 310 310 311 310 308 308 305 304 304 307
301 300 300 299 300 298 300 301 302 303 303 303 303 303 302 303 303 303 304 303 307 309 312 311 313 312 314 313 314 314 314 314 311 312 315 315 316 311 310 310 311 310 309 307 306 308 308
299 299 299 298 298 298 300 300 302 303 303 303 303 303 302 303 304 304 305 303 307 308 312 313 312 313 312 312 314 314 313 312 312 310 311 307 310 310 310 310 310 311 306 307 307 306 302
298 299 298 299 298 298 299 299 303 302 302 302 304 304 305 304 305 305 303 309 308 309 310 308 310 311 312 312 313 314 312 311 311 310 308 308 310 311 310 310 309 309 307 306 300 302 307
296 297 298 297 291 293 294 301 304 303 302 302 302 304 304 305 305 305 305 306 310 310 310 309 310 309 309 309 310 311 311 309 310 309 309 309 308 311 311 310 310 309 309 306 305 303 303
295 295 298 297 291 292 293 299 305 304 303 303 303 298 307 306 303 303 307 305 306 309 311 309 307 308 309 308 309 309 309 309 309 308 310 309 307 308 311 308 307 308 308 307 304 303 303
295 295 295 295 292 291 293 297 304 305 304 303 304 304 307 307 308 309 307 308 307 312 311 310 308 308 308 308 309 308 308 309 309 308 309 309 306 302 309 308 307 309 308 307 306 306 300
295 295 294 293 292 291 291 294 303 305 304 304 304 299 306 307 306 308 308 310 311 310 308 307 307 308 308 309 307 309 310 311 309 309 310 309 306 304 305 307 306 305 308 307 306 304 305
295 294 295 293 292 291 291 292 297 304 305 304 304 303 304 303 305 305 307 309 311 311 310 309 308 309 310 311 311 311 310 310 311 311 310 308 305 303 306 307 307 307 308 308 306 308 307
295 295 295 294 293 292 291 291 293 302 304 305 303 304 304 303 304 304 306 309 311 311 311 312 310 311 312 313 311 311 309 309 311 309 309 307 306 305 305 307 307 307 308 308 308 308 309
295 295 296 296 294 292 291 291 291 298 303 302 303 304 304 304 303 305 307 310 310 310 311 311 312 312 313 313 311 309 310 309 308 308 308 308 306 310 310 307 308 311 309 309 309 308 309
296 295 299 296 295 294 293 291 291 292 300 302 302 303 304 304 303 305 307 309 310 311 310 312 312 312 313 312 312 312 310 308 308 307 308 309 310 312 311 306 308 310 310 309 310 311 309
299 295 298 296 296 293 296 293 293 293 292 300 302 302 303 304 304 305 308 309 310 310 310 311 312 312 312 312 311 314 314 313 311 309 310 309 311 311 312 313 310 313 314 314 314 313 311
298 295 297 298 297 294 296 296 294 296 291 293 300 301 302 303 302 304 306 308 307 307 307 311 311 311 312 309 310 313 312 312 315 314 310 311 310 314 314 314 316 312 312 313 312 314 311
297 297 295 297 298 295 296 296 295 296 295 292 295 297 299 301 303 305 305 307 308 306 305 308 311 310 311 308 310 309 307 309 314 314 315 314 314 313 315 316 312 310 309 313 316 313 313
297 296 295 296 299 297 294 296 295 295 295 294 294 293 294 297 299 302 304 307 309 308 307 309 310 309 307 309 309 308 308 308 310 311 314 315 314 315 313 315 312 310 313 315 312 312 311
296 296 296 296 299 299 296 295 296 295 295 295 294 294 294 293 294 298 301 304 304 306 310 309 309 308 309 306 305 306 309 309 307 310 308 313 310 310 310 311 309 309 311 312 312 311 310

GFSGBSN_850_thetae_036.txt.gz
Theta_e
309 307 306 306 305 306 305 305 304 303 303 303 304 303 303 302 302 302 302 302 303 303 302 304 304 307 311 314 314 319 321 319 309 317 322 321 320 320 317 317 317 317 317 319 320 320 319
309 307 306 305 305 306 305 304 303 302 302 302 302 302 302 300 301 301 300 301 301 302 303 304 304 305 310 313 313 315 317 320 313 319 321 322 320 320 318 317 317 317 318 318 318 318 317
305 305 305 305 305 305 304 303 303 302 302 302 302 302 301 301 301 300 301 301 301 303 303 303 304 304 310 313 313 312 315 319 314 319 321 321 321 319 317 316 318 316 317 316 316 317 317
305 305 305 305 304 304 303 303 303 301 302 301 302 301 302 302 301 300 301 301 301 301 302 302 302 307 311 312 313 313 315 319 319 320 320 320 320 320 318 318 317 317 317 319 317 316 318
304 305 304 304 304 303 303 302 302 301 301 302 302 302 302 301 301 302 302 302 302 301 301 302 303 306 312 312 314 314 317 318 319 318 318 318 319 320 318 315 317 316 316 317 318 315 316
304 304 303 303 304 303 302 302 302 301 301 302 302 302 301 301 301 302 302 301 300 300 300 301 302 307 311 312 312 313 315 319 318 318 318 318 319 317 314 317 317 319 318 316 317 314 315
304 304 303 302 303 303 303 302 302 301 301 301 302 302 300 301 301 302 302 301 301 302 302 301 305 309 311 312 312 312 315 318 319 319 320 319 321 320 318 316 315 315 316 316 315 313 313
303 303 303 301 303 303 303 302 301 302 302 302 301 301 300 301 301 302 302 300 300 302 302 301 304 307 312 312 312 313 314 318 319 321 315 319 321 317 316 316 318 318 318 318 314 312 312
302 302 302 301 302 302 302 301 301 303 303 304 304 304 302 301 302 302 302 300 300 302 303 305 306 310 312 311 313 313 314 318 317 319 318 320 319 319 319 319 319 315 317 315 315 311 308
302 303 302 301 301 302 302 301 302 303 304 304 303 303 303 303 302 301 301 300 301 302 297 308 309 313 312 310 312 313 316 316 317 318 315 315 318 320 320 321 316 318 312 312 311 312 314
300 303 301 300 301 301 301 302 302 303 303 303 303 303 303 302 302 302 301 302 302 303 305 308 309 311 312 311 312 313 314 315 317 317 317 315 318 319 320 317 315 316 310 310 309 308 308
301 302 300 299 300 300 301 302 302 303 303 303 302 302 302 301 301 301 302 302 303 300 311 309 310 313 312 312 313 314 314 315 314 314 314 313 313 315 316 313 312 309 308 306 305 306 305
302 301 299 299 301 301 301 301 303 303 303 303 302 303 303 302 302 303 303 303 302 305 308 311 312 312 312 314 314 314 314 314 317 316 316 314 312 310 310 311 309 309 309 306 305 302 308
300 300 298 298 297 300 299 301 302 302 303 303 302 303 303 303 303 303 304 300 305 311 313 311 312 312 314 313 314 314 314 314 311 313 314 314 316 312 310 311 311 309 309 307 310 307 307
301 299 299 296 292 296 296 303 303 302 302 303 304 304 304 304 304 304 304 305 307 309 312 313 312 313 313 313 315 313 312 313 311 309 311 307 310 309 309 309 309 310 307 306 305 303 302
300 301 298 298 292 293 295 303 304 303 303 302 302 303 305 305 305 305 304 310 310 309 309 308 310 310 312 312 312 313 312 311 311 309 307 308 309 310 310 309 308 309 306 306 299 302 307
299 302 296 298 293 291 294 302 305 304 303 304 303 303 307 306 306 307 307 308 311 310 310 309 309 309 309 309 310 311 310 309 309 309 307 307 307 312 309 310 309 309 308 305 304 302 303
296 302 298 294 294 291 292 297 305 305 304 304 305 302 307 308 305 304 309 306 307 309 310 307 307 307 308 308 308 309 310 309 309 308 309 308 307 307 310 307 307 308 307 305 303 302 303
297 299 300 295 293 292 292 293 302 305 304 304 304 305 308 308 309 308 308 308 308 310 309 308 308 307 307 308 309 307 308 308 308 308 309 308 305 303 308 307 307 309 307 306 304 303 300
296 296 300 296 295 293 292 292 296 304 304 304 305 301 306 308 306 308 308 308 310 309 308 307 307 307 307 308 307 308 309 310 308 309 309 308 305 304 305 305 306 306 308 306 305 303 304
298 297 301 297 296 294 292 292 292 302 305 304 305 303 303 303 304 303 305 307 310 310 309 308 308 308 308 310 311 310 309 310 310 311 308 307 305 303 306 306 306 306 308 307 304 306 305
300 297 299 300 297 295 293 292 291 297 304 304 304 304 305 303 303 302 304 308 309 310 310 310 308 310 312 310 309 310 308 308 310 308 308 306 306 305 304 307 306 307 306 306 306 307 307
301 300 296 300 298 296 293 293 292 292 303 302 302 303 303 304 302 304 305 307 309 309 310 311 312 312 313 312 310 309 309 308 308 307 307 309 306 306 303 306 307 309 308 308 308 307 308
300 300 298 299 298 296 294 295 293 292 296 302 301 302 303 303 302 305 305 306 310 310 310 311 311 311 312 311 311 310 308 307 308 307 307 308 308 308 310 306 308 309 308 309 309 309 307
299 299 298 298 299 297 294 295 295 296 291 299 300 302 302 303 303 303 306 307 309 309 310 311 312 312 312 311 309 313 313 312 310 309 309 308 309 309 310 311 309 312 311 311 312 314 309
298 298 297 297 298 298 296 295 295 297 295 293 297 300 301 302 300 303 304 306 306 306 307 310 311 311 312 307 309 312 310 310 314 313 309 310 308 311 312 314 313 312 312 312 311 315 311
298 297 297 296 297 299 298 294 296 295 295 294 293 292 298 300 301 303 303 305 307 305 304 306 310 310 311 306 309 309 306 307 313 314 314 314 314 314 312 314 311 309 309 313 316 313 311
298 296 297 297 296 299 299 298 294 295 295 295 294 294 293 295 296 298 302 305 307 307 305 307 309 308 305 310 310 308 305 306 308 310 311 312 313 314 312 314 313 310 312 315 312 311 311
298 296 296 296 296 298 299 299 297 295 295 295 295 294 294 294 293 293 293 295 301 304 306 309 307 307 308 305 304 304 308 305 305 309 307 311 308 309 309 309 308 310 311 312 311 312 311

GFSGBSN_850_thetae_039.txt.gz
Theta_e
307 306 307 307 306 305 306 305 304 304 303 303 302 302 302 302 303 302 301 301 302 302 303 304 304 303 303 310 314 316 318 317 316 316 319 321 321 320 320 317 316 317 317 318 318 318 318
305 307 307 306 304 304 305 304 304 303 303 302 302 302 302 302 301 302 300 301 300 301 302 303 303 303 304 311 313 315 315 314 314 318 320 321 320 320 319 318 318 317 318 318 318 318 318
305 306 306 304 304 305 304 304 303 302 302 302 303 302 302 302 302 302 301 300 301 300 301 303 302 303 304 308 313 314 314 314 316 319 320 321 320 320 318 316 317 316 317 316 317 317 317
306 306 305 304 304 304 304 303 303 303 302 301 302 301 302 303 302 301 302 302 301 301 301 301 302 304 306 309 312 313 314 316 318 318 319 320 319 318 317 316 316 317 316 319 316 316 317
306 305 304 304 304 304 304 304 303 302 302 302 302 301 302 302 301 301 302 302 302 301 302 301 302 305 309 311 313 312 314 319 318 319 318 319 319 319 317 316 318 316 317 317 318 316 316
306 305 304 304 303 304 304 303 303 303 303 304 303 302 302 300 300 301 302 301 300 300 300 301 302 305 308 311 312 313 313 318 317 318 317 318 318 318 315 317 319 318 317 317 316 314 315
305 303 303 303 303 302 303 303 303 303 304 305 305 302 301 301 301 302 301 301 301 301 300 301 302 306 311 311 312 313 314 318 318 317 319 317 318 319 319 316 313 315 316 317 315 312 313
304 303 303 302 302 303 303 303 304 304 305 304 304 304 304 303 300 301 302 301 300 301 301 301 302 304 309 312 312 312 315 318 317 318 318 318 318 316 316 315 316 316 317 316 315 311 312
303 304 303 301 302 302 302 304 304 305 303 303 302 302 303 303 303 303 302 300 300 302 302 305 306 308 310 311 313 312 313 316 310 313 317 317 318 317 317 317 318 316 317 315 316 311 308
301 303 302 300 302 302 302 303 305 305 304 302 302 302 302 302 301 301 301 300 300 302 299 307 308 312 311 311 313 313 315 316 317 309 315 317 317 319 319 319 317 318 312 313 312 313 316
300 303 300 300 301 302 302 304 304 303 303 302 302 301 301 301 300 301 301 301 301 302 301 309 309 310 311 310 312 314 315 315 317 316 316 314 318 320 320 319 316 316 310 310 309 310 309
297 299 299 299 298 300 302 303 301 302 302 302 303 303 303 301 301 301 301 302 302 297 308 309 309 312 312 312 313 313 314 314 314 313 313 313 312 315 316 314 312 308 308 306 305 307 312
298 298 297 296 297 299 301 303 302 302 302 302 303 303 304 303 303 303 303 303 298 305 306 310 311 312 312 313 314 314 314 315 316 316 316 314 311 310 312 312 310 310 312 313 310 310 315
298 298 296 295 294 294 298 302 302 302 303 303 303 303 305 305 304 303 303 298 310 313 313 311 312 313 313 312 314 314 315 314 310 313 315 315 316 311 310 311 312 310 311 312 314 308 309
298 298 296 295 294 292 294 300 304 303 303 303 303 304 306 305 305 304 304 309 308 311 312 312 310 311 312 312 314 314 313 313 310 309 313 310 312 309 308 308 309 310 311 305 306 303 306
298 298 297 295 294 293 292 295 303 305 304 304 305 305 307 307 306 305 302 311 311 309 308 307 310 310 312 312 313 312 311 310 310 308 307 308 313 310 309 309 308 309 306 310 304 306 310
297 298 297 296 295 293 293 293 298 305 304 304 307 305 308 308 308 307 306 307 309 309 309 308 308 308 310 310 309 310 309 309 309 308 306 306 309 312 310 310 310 309 308 305 304 304 308
297 298 299 298 296 294 293 293 294 303 304 304 306 302 309 308 305 306 309 307 307 309 310 307 306 307 307 307 308 309 309 308 308 308 309 307 307 312 310 307 306 307 307 305 307 306 303
298 298 300 300 299 296 294 293 293 299 304 304 304 306 309 308 304 305 305 308 307 308 307 307 307 307 306 307 309 307 308 307 308 308 309 307 305 304 307 307 306 309 306 305 303 303 304
300 299 299 301 301 300 295 293 293 295 304 304 305 300 307 308 305 307 307 307 309 308 307 306 306 306 306 307 306 308 307 309 308 308 309 307 305 305 305 306 306 307 308 305 305 306 305
301 301 300 300 299 300 298 294 293 293 303 304 305 302 303 301 303 303 304 307 310 310 309 307 307 307 308 309 310 309 309 309 308 310 307 307 306 303 306 306 306 307 308 306 304 305 307
301 301 300 299 299 299 299 294 293 293 301 303 303 302 303 302 302 303 304 307 309 310 309 309 307 309 310 308 307 309 308 308 309 307 307 306 308 305 304 307 306 307 307 307 307 307 306
299 301 300 299 299 299 298 295 294 292 297 302 301 302 302 302 301 303 305 307 308 308 309 310 310 312 312 311 310 309 308 308 307 307 307 308 305 304 304 306 307 310 307 307 307 306 308
300 299 298 298 299 299 297 295 295 295 292 300 300 301 302 302 301 303 304 305 309 309 310 310 311 310 311 310 308 308 308 307 307 306 306 307 307 305 308 305 309 308 307 307 308 308 307
300 299 298 298 298 298 298 295 296 298 293 294 299 300 301 302 302 302 304 305 308 308 309 310 311 311 312 311 309 312 312 311 309 309 308 308 308 309 310 311 309 311 309 309 311 314 308
298 298 297 297 297 299 299 297 296 295 295 293 292 297 299 301 299 302 303 303 304 305 305 310 311 311 311 308 309 311 310 309 312 311 309 309 305 308 311 311 312 310 313 312 311 316 310
299 298 297 297 296 296 298 298 297 295 295 295 294 293 296 299 299 301 302 304 307 304 303 305 310 310 310 305 309 309 307 306 312 311 313 313 313 312 312 312 309 308 310 313 316 315 310
299 298 297 297 296 296 298 298 299 297 295 295 294 294 294 293 293 296 300 303 306 307 304 306 308 307 304 308 310 310 305 305 308 308 311 311 312 313 312 312 310 309 311 316 314 311 311
300 298 297 297 297 296 295 296 299 298 295 296 295 295 296 295 294 294 294 293 295 303 302 307 306 305 307 304 303 303 306 303 304 309 306 312 307 309 308 308 306 309 311 311 311 311 311

GFSGBSN_850_thetae_042.txt.gz
Theta_e
306 308 306 306 305 304 306 306 305 304 304 304 303 303 303 302 301 301 302 302 301 302 301 303 304 305 304 306 310 315 317 316 318 317 319 320 320 321 321 320 319 319 319 318 318 320 320
306 306 306 306 305 304 305 305 305 304 304 304 302 302 302 302 302 303 302 302 301 302 301 302 303 304 305 306 310 313 314 315 319 317 319 320 317 320 320 320 320 318 319 318 318 319 319
306 305 306 304 304 305 305 305 305 304 304 304 304 303 301 302 303 303 302 302 302 302 301 301 303 304 305 305 311 313 314 315 317 316 317 320 318 319 319 319 319 319 319 319 319 318 319
305 305 305 304 304 305 304 304 304 304 304 304 304 304 302 301 303 301 302 302 302 302 302 301 301 303 303 303 312 313 313 314 316 317 318 320 319 318 319 317 318 319 319 321 318 319 319
304 305 304 303 304 304 305 304 304 304 305 304 303 304 303 303 301 301 301 302 302 302 303 301 302 304 305 307 309 313 313 315 317 317 319 318 319 318 317 319 319 319 317 317 318 318 318
303 303 303 303 303 305 304 303 304 304 304 306 303 302 304 301 298 301 302 301 300 300 301 302 302 304 306 310 312 313 313 314 318 318 318 317 318 320 318 318 316 318 316 317 316 317 319
301 303 303 302 303 303 303 304 303 305 305 306 302 303 303 303 301 301 301 301 302 302 302 302 302 305 309 311 312 313 313 312 318 317 318 317 320 321 319 317 316 317 316 315 316 315 316
300 303 302 301 303 303 303 303 304 305 304 303 302 301 302 303 303 301 301 301 301 302 302 302 302 303 305 311 313 313 313 316 316 318 317 318 319 318 318 318 317 317 316 316 317 315 316
299 300 301 301 301 302 303 303 304 304 303 302 302 301 302 302 302 303 301 300 301 301 304 305 305 306 310 312 313 313 313 314 316 318 318 318 317 317 318 318 318 318 317 319 318 315 313
299 299 297 299 300 301 303 303 304 302 302 303 303 302 300 300 300 301 301 300 300 302 308 309 308 310 311 313 314 314 313 312 310 316 318 318 318 317 317 318 318 320 316 317 316 318 319
300 299 297 298 297 300 302 304 304 302 302 303 303 304 302 300 300 302 301 300 301 303 312 309 308 310 311 312 313 314 311 315 312 311 314 316 319 319 318 318 318 317 314 314 313 316 317
300 298 296 296 296 295 300 302 302 303 302 303 304 304 304 304 301 301 302 302 302 309 313 310 310 312 312 313 314 314 315 313 313 314 313 312 313 316 316 313 316 311 312 311 312 315 322
300 299 296 295 294 294 297 303 302 303 302 302 303 303 305 305 304 304 302 304 311 314 308 311 313 313 313 314 314 314 316 316 317 316 315 312 312 313 312 312 311 314 317 321 322 322 322
300 299 297 296 294 293 293 297 304 304 303 304 303 303 306 306 305 304 304 307 315 312 311 311 313 313 315 314 314 314 316 317 314 316 317 319 318 313 312 313 314 316 318 321 321 316 314
299 299 298 298 295 294 293 293 299 305 304 304 305 306 306 306 306 305 306 312 312 312 312 313 312 314 314 314 315 315 314 316 313 313 318 316 316 310 310 310 313 313 318 309 313 309 315
298 299 300 300 300 295 294 294 294 302 304 305 306 306 307 308 307 307 312 313 313 310 310 310 312 312 313 313 315 315 316 312 312 310 310 312 316 311 310 310 310 313 310 316 315 318 318
298 299 300 301 301 302 295 294 294 295 305 304 307 308 308 308 308 310 310 311 311 310 309 310 311 311 312 313 313 313 312 311 311 310 309 311 314 313 311 313 314 312 313 310 312 311 315
298 300 300 301 301 301 302 294 294 294 302 304 306 315 308 308 312 311 312 309 308 311 310 309 309 310 311 310 312 312 311 312 309 310 312 310 313 315 313 309 309 310 313 311 315 313 310
299 301 300 301 300 299 299 301 294 294 300 304 304 307 309 309 314 313 310 310 310 310 309 309 309 309 309 310 312 311 310 309 309 310 312 310 312 314 312 311 309 311 311 310 308 310 313
300 301 301 300 300 299 298 299 296 294 298 304 305 314 309 308 306 311 311 311 311 309 309 307 308 308 309 310 309 310 311 310 308 310 308 309 309 312 312 312 312 312 311 309 311 314 313
298 301 301 300 299 299 298 298 298 293 295 304 305 305 304 313 310 308 308 310 311 312 310 308 309 309 309 310 310 311 311 310 310 310 309 311 313 309 310 309 310 311 311 310 310 312 314
297 298 300 299 298 299 298 298 297 293 294 303 304 303 304 305 304 307 307 311 311 311 311 310 310 310 311 311 310 311 311 311 311 310 310 309 313 309 311 309 309 310 310 311 310 311 310
296 300 300 299 297 299 298 297 294 294 294 301 301 301 302 304 306 308 310 310 310 310 311 311 310 312 312 312 311 310 310 310 310 311 310 311 311 312 313 309 310 313 312 311 311 310 311
299 300 298 297 297 299 299 297 296 295 292 298 298 300 302 308 306 308 307 307 310 311 312 311 311 312 310 308 308 309 309 309 310 309 310 311 311 311 313 311 316 312 310 311 311 310 310
299 298 298 297 297 298 300 298 297 295 295 293 297 299 300 304 304 304 305 307 308 309 311 311 311 311 310 310 312 312 312 311 311 310 310 310 312 313 312 311 312 312 310 311 312 314 310
298 298 297 297 297 296 297 299 298 297 295 294 293 294 299 300 303 302 303 304 310 310 310 311 311 311 311 311 313 313 314 312 313 312 311 310 311 312 312 312 315 315 313 311 313 318 312
299 299 298 297 297 297 296 299 299 298 296 294 294 294 294 297 298 300 302 305 306 306 309 308 310 311 310 313 313 312 313 310 313 311 313 312 312 313 313 312 312 311 313 314 320 318 311
301 300 299 298 297 297 297 296 298 299 297 296 295 294 295 295 294 295 299 301 305 307 309 307 310 309 310 313 313 313 312 311 312 311 311 312 312 314 312 313 312 310 313 317 315 312 313
301 299 299 298 296 297 297 296 296 298 298 297 296 295 295 295 296 295 294 294 294 300 301 306 308 308 310 313 311 311 311 309 312 314 309 312 312 312 312 312 310 310 312 312 312 311 311

GFSGBSN_850_thetae_045.txt.gz
Theta_e
307 307 306 306 306 306 306 306 306 306 305 306 305 305 303 302 302 302 303 302 302 302 303 302 303 305 306 307 307 314 315 317 319 318 317 319 317 320 321 319 318 320 320 319 319 320 320
307 307 306 306 306 305 305 305 305 305 305 305 305 305 305 303 302 303 303 302 301 301 301 302 303 304 306 308 307 313 315 317 320 320 316 318 316 320 320 319 319 319 320 319 318 320 320
306 305 306 305 305 304 306 306 303 305 305 305 305 304 304 304 302 303 303 301 302 303 302 301 303 304 306 307 308 309 314 315 318 319 316 318 316 320 320 319 319 319 319 320 319 319 320
304 305 306 304 304 305 305 303 305 305 305 305 304 302 303 304 302 303 300 302 302 302 302 302 302 305 305 305 306 310 312 315 319 319 316 318 319 318 319 319 319 319 320 321 319 319 319
303 305 306 305 304 305 304 305 304 305 306 305 303 302 303 303 303 300 301 302 301 301 303 302 303 304 306 306 306 308 312 314 317 318 317 319 319 318 319 319 320 319 319 319 319 319 319
302 304 304 303 304 305 304 304 304 306 305 305 303 301 303 303 302 300 301 301 300 301 303 304 304 305 305 308 310 312 314 315 317 317 317 318 319 320 318 318 319 318 318 317 318 319 318
301 302 306 302 303 304 303 303 305 305 306 307 303 301 303 303 302 301 302 302 305 304 304 303 303 305 308 309 313 314 313 314 317 316 318 318 320 320 318 317 316 315 316 316 316 317 318
301 301 303 301 302 304 303 303 305 305 307 305 303 301 302 303 302 300 300 303 303 304 303 302 303 303 304 306 313 314 313 315 317 317 316 319 320 318 317 316 316 317 316 316 317 316 316
302 301 300 300 299 303 303 303 304 304 303 304 304 301 301 303 303 303 303 302 301 302 305 304 305 306 310 312 313 315 312 312 317 317 318 318 318 317 318 317 317 317 316 315 317 317 316
301 301 299 298 297 300 302 302 304 304 303 303 305 304 300 299 303 302 303 300 301 303 310 308 308 309 312 313 314 313 311 311 311 317 317 318 316 318 319 318 316 317 317 317 318 318 316
301 301 299 297 296 295 299 301 302 304 303 303 303 305 305 299 303 304 301 300 301 304 315 306 306 310 311 314 314 314 311 312 313 315 315 317 319 318 319 318 316 318 318 317 317 318 319
300 300 300 298 296 295 294 296 299 303 303 303 303 303 305 305 302 301 302 302 304 311 314 312 312 312 314 314 315 314 313 313 312 313 313 313 314 315 317 317 317 315 316 316 316 318 322
300 299 300 301 299 295 295 294 294 298 304 304 304 303 306 305 307 304 302 306 312 316 310 312 314 314 314 315 315 314 314 316 315 315 315 312 311 313 313 316 315 316 317 320 322 323 321
300 299 301 301 302 302 295 295 294 295 303 304 305 307 306 306 305 305 306 310 315 313 314 312 314 314 316 315 314 316 317 318 315 316 317 319 317 309 311 315 316 317 319 322 320 321 320
300 300 301 302 302 301 301 296 295 295 300 304 306 307 307 307 306 306 308 313 315 314 313 313 314 315 315 316 315 316 316 317 316 315 319 320 317 310 311 312 315 315 320 313 315 312 316
299 300 301 302 301 301 300 300 300 296 296 304 307 306 308 307 307 308 314 313 314 312 312 312 314 314 316 316 316 316 317 314 314 312 313 316 318 312 312 312 311 315 315 318 319 322 318
299 300 301 302 301 301 300 299 300 298 296 304 307 311 309 308 310 313 313 312 312 311 311 312 313 313 314 314 316 315 315 314 313 312 312 314 316 314 313 314 316 313 315 314 316 315 319
298 300 301 302 301 300 300 298 298 299 296 304 306 316 309 308 315 314 315 312 309 312 311 311 312 312 313 313 315 314 314 315 312 312 314 312 315 316 316 312 311 313 315 315 318 318 313
298 299 301 301 300 300 299 298 298 299 294 303 308 311 309 309 317 315 313 312 312 312 311 310 311 311 311 312 314 313 312 311 311 312 313 312 315 315 315 313 312 313 313 314 313 313 317
298 298 299 299 300 300 298 297 298 298 294 303 308 313 313 311 311 314 313 313 312 311 311 309 310 310 311 312 311 313 312 312 310 312 309 310 312 314 316 315 314 314 313 313 313 318 316
297 296 297 299 300 298 298 299 299 295 294 303 308 311 307 316 313 312 312 312 312 312 311 310 310 311 311 312 312 312 312 311 311 310 311 312 316 312 311 311 312 313 313 313 313 313 317
296 296 299 298 297 299 299 299 296 293 294 304 304 304 305 310 309 311 310 313 313 312 312 311 311 310 310 311 311 312 312 312 312 312 312 312 313 312 313 311 311 312 311 312 312 312 312
296 298 298 297 298 299 300 298 298 293 293 301 300 302 303 308 310 311 312 313 312 312 312 312 311 311 312 312 311 312 311 311 311 311 312 312 313 313 314 311 312 314 313 312 312 312 312
297 298 298 297 297 297 299 299 298 296 293 297 298 299 302 311 309 311 310 310 311 312 313 311 312 312 310 310 310 310 311 311 311 311 311 312 313 313 314 312 315 314 312 312 312 312 312
298 298 298 297 297 297 296 298 299 298 295 295 293 297 300 304 306 307 308 309 310 311 312 312 313 312 311 312 312 312 312 312 312 311 311 311 312 314 313 314 313 312 312 312 313 315 312
298 299 299 298 297 297 297 297 299 299 297 295 294 294 298 300 304 303 305 306 311 312 311 312 312 311 312 313 313 312 314 312 313 313 311 311 311 312 313 312 315 316 313 312 313 319 313
299 300 300 299 298 297 297 297 297 299 298 297 295 294 296 298 298 300 304 305 307 309 312 311 312 312 312 314 313 312 311 312 313 312 313 312 312 313 313 312 312 312 314 314 319 319 313
302 301 299 298 298 296 297 297 297 297 299 298 297 295 295 297 297 296 298 300 302 307 311 310 312 312 313 314 313 312 312 312 312 312 312 312 312 312 312 314 312 311 315 317 316 314 314
301 300 299 298 297 297 297 297 298 298 298 298 297 297 296 296 297 296 295 295 296 300 301 306 308 310 312 313 313 313 312 312 312 312 311 312 312 312 312 312 311 311 313 314 313 314 312

GFSGBSN_850_thetae_048.txt.gz
Theta_e
307 308 308 307 306 306 307 307 304 304 306 306 308 305 305 305 305 302 303 302 302 304 303 302 302 303 305 305 308 310 312 312 315 318 318 320 315 320 320 320 319 320 319 319 319 320 320
307 307 306 307 305 306 305 304 306 306 306 307 306 304 305 304 305 302 303 303 303 303 302 302 302 303 304 308 307 309 314 317 316 319 317 319 315 319 319 318 318 319 319 320 319 320 320
307 308 306 305 305 305 305 306 305 306 307 306 305 304 304 304 304 302 303 302 301 302 302 302 302 304 306 307 308 311 311 317 318 317 317 318 316 317 320 319 318 319 319 319 319 319 320
304 305 306 304 306 304 305 305 305 306 306 305 304 303 304 304 304 303 303 300 301 302 302 302 301 305 305 305 307 308 311 315 316 318 317 317 318 317 319 319 319 319 319 320 319 319 319
303 304 302 302 303 304 307 306 305 306 306 305 304 302 303 303 303 301 298 302 301 300 301 303 301 305 305 306 305 307 308 313 317 318 318 317 318 319 319 319 320 319 319 319 320 318 319
302 303 302 298 301 303 306 307 305 305 306 306 304 301 303 303 302 301 301 301 300 303 303 304 305 305 305 307 306 306 308 313 317 318 318 318 318 319 319 319 322 319 318 318 319 318 319
302 302 301 298 301 301 305 305 304 305 306 306 305 300 302 303 300 302 302 304 304 304 304 304 304 304 305 307 309 308 313 314 316 317 317 318 318 320 319 317 317 316 316 316 317 318 318
302 301 301 299 298 301 302 303 302 303 306 304 305 303 301 302 301 301 302 303 303 303 304 303 303 303 304 306 311 313 314 315 317 318 316 318 320 317 318 317 317 316 315 315 316 317 317
301 301 301 299 297 299 300 301 303 302 303 304 304 305 300 301 303 302 304 302 301 302 305 305 305 307 309 309 312 314 313 313 316 316 317 317 316 317 317 317 317 315 315 314 316 317 316
301 301 301 301 297 295 296 298 297 302 303 303 303 303 304 302 304 303 304 300 301 303 309 309 309 310 311 312 314 311 312 313 313 316 316 317 317 317 318 318 317 317 315 315 317 317 317
301 301 301 302 302 300 296 295 295 295 302 304 304 303 305 300 304 305 302 300 302 304 314 307 308 309 310 314 312 311 311 311 314 317 317 318 318 318 320 319 316 317 317 317 317 318 317
300 300 301 302 302 302 301 297 295 294 295 304 304 304 305 307 305 302 301 302 305 308 314 311 311 310 314 314 314 312 314 311 312 314 313 314 314 316 317 318 317 317 316 316 316 316 319
300 300 301 302 302 301 300 300 300 296 295 303 306 307 306 305 307 306 304 306 310 313 310 313 314 314 314 315 314 312 311 313 313 315 315 312 312 312 314 318 317 316 316 318 316 315 317
300 300 301 302 302 301 300 299 299 300 296 302 305 308 308 306 306 305 306 309 313 313 314 313 314 314 316 315 315 313 313 315 315 315 316 317 315 312 310 315 316 316 316 318 317 317 315
299 300 301 301 302 301 300 299 298 299 298 300 305 307 309 308 306 308 307 312 312 312 314 314 314 315 316 315 315 316 317 317 315 316 318 317 316 310 310 313 314 317 319 312 315 312 312
299 299 300 300 301 300 299 299 299 299 300 299 306 308 309 308 308 309 313 313 313 312 312 312 314 314 317 316 317 316 316 315 314 313 313 315 317 312 311 312 312 314 314 317 315 317 316
298 299 299 300 300 299 299 299 299 300 301 298 308 311 312 308 311 311 312 310 312 311 311 312 313 314 315 315 316 315 315 314 313 312 312 315 315 315 312 313 315 315 315 314 314 313 317
298 301 298 299 298 298 299 298 298 299 301 297 310 314 312 309 314 317 315 312 311 312 311 311 312 312 314 314 315 314 315 314 312 312 314 312 314 316 315 312 313 314 316 315 318 317 311
299 301 297 298 298 299 298 299 299 298 294 297 308 310 312 308 317 316 312 312 312 312 311 311 311 312 311 313 314 313 313 311 311 313 313 312 314 312 314 312 311 313 313 315 313 313 317
301 298 298 297 298 298 300 299 297 293 294 301 308 311 314 313 312 314 313 313 313 311 312 310 310 311 312 312 311 313 313 312 311 312 309 310 312 313 314 314 314 312 313 313 312 311 315
299 298 298 298 298 299 300 299 297 293 297 306 308 309 307 315 313 313 312 312 313 313 312 310 311 311 312 312 312 312 313 312 311 310 311 312 311 308 311 311 312 313 313 313 310 312 310
299 298 298 298 298 298 299 299 298 293 297 300 303 303 304 308 310 311 310 314 313 313 312 312 311 311 311 312 311 312 312 311 312 311 311 311 310 311 310 311 311 311 311 311 312 312 311
299 298 298 298 298 297 299 299 299 297 294 299 298 301 302 306 311 311 312 313 313 312 312 312 312 311 311 313 312 312 311 311 311 311 310 311 310 309 311 311 311 311 311 311 311 311 311
298 298 299 298 298 298 297 298 299 299 294 296 296 299 302 308 309 310 310 310 312 312 313 311 312 312 310 310 311 311 311 311 311 311 310 311 312 309 308 310 309 312 312 312 311 311 310
297 298 299 299 298 297 297 297 299 299 298 296 293 296 299 301 302 306 306 308 309 311 311 313 313 312 311 312 311 311 311 311 311 311 310 310 312 313 311 309 311 311 312 312 312 312 310
298 300 300 299 298 298 297 298 297 298 299 298 295 294 297 298 300 299 302 305 307 310 311 312 312 312 312 313 313 312 313 310 313 312 311 310 310 310 312 311 313 316 312 312 312 316 312
299 301 300 299 298 297 297 298 298 297 299 298 298 296 297 298 298 297 302 304 305 308 310 312 312 312 312 312 312 312 312 311 312 312 313 312 312 311 313 313 310 313 312 313 318 316 312
301 301 300 299 297 297 297 297 299 298 298 298 298 297 297 297 297 298 297 298 299 302 308 308 311 311 313 312 312 312 309 310 310 310 311 311 312 312 312 313 310 313 314 316 314 314 312
301 300 300 299 297 297 298 298 298 298 298 298 297 297 297 296 297 297 297 297 296 297 299 303 308 309 310 311 311 310 311 309 310 310 309 310 309 310 309 310 310 313 313 314 313 313 313

GFSGBSN_850_thetae_051.txt.gz
Theta_e
306 307 308 305 306 307 307 307 308 306 307 307 306 306 304 304 304 304 303 303 302 304 303 302 302 303 305 305 307 309 312 309 313 317 317 320 318 322 319 320 321 320 319 321 321 322 321
304 306 309 305 306 307 307 307 305 306 307 307 306 304 304 303 303 304 303 303 303 303 302 302 302 303 304 307 306 308 311 313 317 317 319 318 314 319 320 319 318 319 320 319 319 320 320
303 304 304 303 303 307 307 306 306 306 307 306 305 303 305 303 304 303 303 303 299 302 302 302 301 303 304 304 307 310 311 316 316 316 318 319 314 318 319 317 319 318 319 319 319 319 319
302 302 304 303 303 305 306 307 306 306 306 306 304 300 303 302 303 302 302 300 299 302 301 302 302 304 304 303 306 307 310 314 315 317 317 317 316 317 318 319 318 317 318 320 319 318 319
302 302 304 303 303 302 306 306 306 306 306 306 305 301 304 303 301 298 298 301 300 300 300 302 301 303 305 307 305 307 307 311 315 316 317 316 318 318 318 317 318 318 319 319 319 317 318
302 302 301 301 302 302 301 305 305 306 306 306 306 301 304 301 300 301 301 300 302 303 303 303 304 304 304 307 307 305 307 311 315 316 317 316 317 316 317 316 320 319 319 318 319 318 318
301 301 301 301 299 298 298 298 303 305 306 306 304 303 302 303 300 301 303 303 303 304 304 304 303 304 304 306 307 304 308 312 315 317 318 317 316 318 318 317 316 316 317 316 317 316 318
301 301 301 302 301 298 296 296 296 302 304 304 303 305 300 302 302 300 303 303 303 304 304 304 304 304 305 306 309 306 309 315 317 316 317 317 316 315 316 316 316 315 315 316 315 316 317
301 301 301 302 302 302 301 298 295 295 298 303 303 303 304 302 302 302 301 301 301 304 305 306 307 307 308 309 309 308 313 314 316 317 317 318 316 315 318 316 317 315 312 313 315 315 315
300 301 301 302 302 301 300 300 300 296 294 300 304 303 304 302 303 303 304 300 302 304 306 307 309 308 308 311 311 312 312 312 314 316 316 315 315 317 316 318 315 315 313 313 316 315 316
300 300 301 302 302 301 300 300 299 300 296 295 304 304 304 306 302 305 305 300 302 304 306 309 309 307 308 309 310 311 312 312 315 315 316 316 317 317 318 318 315 315 315 315 315 315 315
300 300 300 301 301 301 300 299 299 299 301 295 304 306 305 307 306 305 301 302 306 302 310 311 310 310 312 313 312 312 312 312 312 313 312 313 314 314 316 317 318 315 314 314 312 312 312
300 300 300 301 301 302 300 300 300 300 300 297 304 307 307 306 308 307 306 305 306 304 309 309 313 314 314 315 312 312 313 314 315 314 315 314 312 312 314 317 316 316 314 318 315 311 312
299 300 300 301 300 301 300 299 300 300 300 299 304 306 308 307 306 306 307 306 309 312 312 312 314 313 315 315 313 313 313 315 313 313 314 314 315 314 311 313 316 317 313 313 315 314 313
299 300 300 301 300 301 298 299 300 301 301 299 305 306 309 308 307 308 307 306 311 311 314 314 314 315 315 315 315 310 310 316 315 315 314 316 315 310 311 313 313 316 318 312 313 311 306
300 299 301 299 299 299 299 299 300 301 302 297 307 308 309 308 308 309 305 307 307 311 311 312 315 314 317 316 315 315 316 315 315 315 314 315 313 312 311 312 312 314 313 316 309 314 314
300 299 301 299 299 299 299 300 300 300 301 297 309 310 311 307 309 310 305 305 311 311 311 311 311 313 314 316 316 315 314 313 312 313 312 313 312 314 313 314 316 315 316 313 313 310 313
298 302 299 299 299 299 300 300 299 296 300 297 310 305 312 307 309 311 305 309 311 311 311 310 311 311 312 313 314 313 314 313 312 311 313 312 312 315 314 314 314 314 315 314 313 314 308
299 300 299 300 299 299 300 300 297 294 295 299 306 309 311 308 310 310 310 312 312 312 310 310 311 311 310 311 313 312 312 311 311 311 311 311 310 313 313 311 312 313 314 316 315 311 312
300 300 300 299 299 299 299 300 299 294 298 305 308 308 311 312 311 312 311 311 312 310 311 309 310 310 310 311 310 311 311 311 310 310 309 310 310 308 309 311 311 312 314 315 314 311 313
301 301 299 299 299 299 299 299 299 294 298 306 305 307 305 307 311 308 310 311 312 312 311 310 310 309 310 310 310 311 311 311 310 310 310 309 306 304 310 312 311 312 311 313 311 312 311
301 299 299 299 299 298 298 298 299 296 296 297 301 302 302 303 307 309 309 312 312 312 311 310 310 310 309 310 310 310 310 309 310 309 310 308 305 306 304 310 310 310 310 310 311 311 311
300 298 299 299 299 298 298 297 298 298 293 294 297 300 301 303 305 307 309 311 311 311 311 311 311 310 310 312 311 310 310 309 309 309 308 309 306 302 305 309 309 309 309 309 310 310 311
299 298 299 300 299 299 298 297 298 298 297 293 295 298 300 302 302 302 306 308 308 309 311 311 312 311 310 310 310 310 310 310 309 308 308 309 308 303 302 306 306 307 309 309 309 309 308
298 299 300 300 298 298 297 298 297 298 298 297 295 295 297 296 299 299 301 305 306 308 310 312 312 311 311 311 309 310 310 310 310 310 309 307 310 311 305 307 306 310 311 311 310 311 309
298 300 300 299 298 297 298 299 299 298 298 298 298 297 296 296 297 299 299 301 304 305 308 312 312 311 312 310 313 312 312 309 311 311 310 310 310 307 312 309 310 313 311 311 312 314 310
298 301 300 299 297 297 298 297 298 299 298 298 298 297 297 297 298 298 298 300 303 304 305 310 311 311 312 308 309 310 307 309 310 311 311 311 311 310 312 312 308 307 311 312 314 312 311
301 301 300 299 298 298 297 297 298 298 298 297 297 297 297 296 297 298 297 297 297 299 305 306 309 309 308 309 308 309 306 306 309 308 309 308 309 312 312 312 309 311 313 315 312 312 312
301 300 300 299 298 297 297 298 298 297 297 297 297 298 297 296 297 297 297 297 297 296 296 301 305 307 308 308 307 306 308 306 306 309 306 309 306 306 307 307 307 313 313 314 314 314 312

GFSGBSN_850_thetae_057.txt.gz
Theta_e
303 303 305 305 304 303 306 307 308 306 308 308 307 305 303 305 303 302 303 303 301 302 302 301 300 301 304 305 306 307 310 310 312 312 314 315 316 317 320 320 322 320 320 321 322 322 323
303 302 302 303 303 302 304 306 306 306 307 308 307 303 303 302 303 302 302 302 300 301 301 301 301 301 304 305 305 305 308 309 310 311 312 316 314 318 319 320 321 321 322 322 323 322 322
302 302 302 302 303 302 303 304 304 306 306 307 307 305 304 301 300 302 302 300 298 301 301 301 302 302 303 302 303 306 307 312 311 311 311 317 314 318 319 317 321 320 321 320 321 323 323
302 302 301 302 304 303 302 302 302 305 306 307 307 306 302 299 298 298 299 300 300 300 300 300 303 301 302 304 305 304 306 313 314 311 313 315 317 318 317 317 318 316 317 321 319 320 320
303 301 301 302 303 302 304 303 301 302 303 306 306 306 304 300 300 301 300 300 302 301 301 301 302 302 303 306 305 306 308 312 313 312 316 314 316 317 317 314 315 316 318 318 319 318 318
305 301 301 302 302 302 302 302 303 304 301 302 305 304 302 302 300 300 302 301 303 303 304 304 304 303 304 304 305 307 307 309 314 316 316 316 316 314 313 314 320 316 316 317 319 317 317
307 302 301 301 302 302 301 300 299 302 305 301 299 303 303 301 301 300 301 302 302 302 303 302 303 304 303 306 306 306 305 311 314 315 317 315 314 316 314 314 314 314 316 317 316 316 317
310 302 301 300 301 302 302 301 300 302 301 301 301 303 303 301 301 301 301 300 302 303 304 306 307 306 307 306 308 305 308 310 314 317 316 316 315 314 314 314 314 314 315 316 315 315 317
311 303 301 300 301 301 302 302 300 300 301 300 299 301 303 303 301 301 300 301 303 304 304 307 308 307 308 308 309 306 309 310 313 317 315 315 314 314 317 316 314 313 313 313 315 314 314
311 304 301 301 301 301 302 302 300 301 302 301 300 300 304 305 303 302 302 300 302 303 299 309 308 307 309 309 310 307 309 310 312 311 316 316 314 316 317 316 314 316 312 313 314 315 316
311 304 301 302 301 303 301 301 300 301 301 302 300 300 305 305 303 303 304 301 301 305 304 308 307 307 309 310 309 308 310 312 314 315 315 315 315 315 316 316 313 315 312 311 312 313 314
311 304 301 302 302 303 302 301 301 300 301 301 300 301 305 306 306 304 305 301 304 297 302 307 309 308 309 310 312 310 312 313 313 314 313 313 313 313 315 315 314 312 311 310 309 309 312
312 303 302 303 303 302 302 301 301 301 300 301 299 304 306 306 307 306 306 304 300 301 304 306 313 309 311 312 311 312 313 313 314 315 316 314 313 312 313 315 315 313 313 312 312 314 312
311 302 303 303 303 302 302 301 301 300 299 300 300 305 307 306 306 305 306 299 302 304 307 309 313 313 313 313 312 312 313 314 313 311 312 314 316 314 311 313 314 314 313 311 314 314 311
310 304 303 304 304 303 302 301 301 300 298 300 301 305 308 307 307 307 306 298 303 304 310 313 313 314 314 314 311 312 312 312 312 311 310 309 312 311 312 312 312 315 316 309 308 306 304
307 305 302 304 305 303 301 300 301 300 298 299 304 307 308 307 308 307 300 305 303 307 311 311 313 312 314 314 314 313 313 312 314 313 309 311 311 312 312 312 312 314 312 315 306 309 312
308 304 302 304 304 302 301 300 300 300 298 302 308 310 309 306 308 307 299 301 307 310 310 310 311 311 312 313 312 313 313 312 314 314 311 308 310 311 312 314 315 315 317 313 311 308 309
308 302 303 304 303 302 300 300 299 300 298 303 309 303 309 306 308 308 301 306 310 310 310 309 308 310 311 311 313 312 312 311 314 313 313 311 308 313 313 312 313 314 315 314 315 311 305
306 303 303 304 302 301 300 300 299 299 298 304 308 309 308 307 306 303 307 310 310 310 310 309 309 309 309 310 310 311 310 309 312 312 312 311 310 313 313 312 313 315 315 315 313 308 306
305 303 304 303 301 300 300 299 299 297 298 306 307 303 308 308 308 309 309 310 309 310 309 308 308 308 309 309 308 310 310 309 310 309 311 310 307 306 310 309 310 315 314 314 315 314 314
305 304 304 302 301 300 299 299 300 298 296 305 305 302 303 301 307 306 307 310 310 311 309 309 308 308 309 309 310 310 310 309 309 309 308 307 306 303 306 309 309 309 310 314 315 315 315
306 303 302 301 300 299 299 299 300 299 295 296 299 300 302 301 302 303 306 311 310 310 310 309 308 309 308 308 307 308 309 308 309 308 308 304 304 303 302 307 308 309 308 310 313 314 314
305 303 302 301 300 299 299 299 299 299 296 294 297 299 301 301 299 303 304 306 309 308 310 310 308 309 308 309 309 308 309 308 307 307 307 306 304 300 301 304 306 307 307 307 310 311 313
305 302 302 301 299 298 299 299 299 299 299 298 295 296 299 300 298 299 299 300 306 305 308 309 311 309 309 310 309 308 308 307 307 306 306 305 304 300 299 303 302 305 305 306 307 308 309
305 303 301 300 298 298 298 299 299 298 298 298 298 296 295 295 296 297 297 300 303 305 307 308 311 310 311 309 306 308 306 308 308 306 305 305 306 303 302 300 304 306 308 308 308 309 306
304 302 301 299 298 298 298 298 298 298 297 297 297 298 297 295 295 297 296 298 301 302 303 308 311 311 311 307 308 309 308 307 308 309 306 308 308 304 305 308 307 304 308 309 308 309 309
304 301 301 299 298 298 298 298 299 298 297 297 297 297 297 297 297 297 296 296 297 297 300 304 303 308 310 307 308 308 305 305 309 308 310 310 310 306 306 310 306 304 305 310 310 308 310
303 301 300 299 299 298 298 298 297 297 297 297 297 296 296 296 296 297 297 296 297 296 299 299 306 308 306 309 308 306 304 304 305 307 306 307 308 310 310 311 307 306 310 311 308 312 311
301 301 300 299 299 298 297 298 297 297 297 297 296 296 295 296 296 296 296 296 296 296 296 296 299 299 303 308 305 304 306 302 303 306 303 307 304 305 306 306 305 307 310 312 312 313 312

GFSGBSN_850_thetae_060.txt.gz
Theta_e
305 303 302 304 304 303 303 304 303 306 306 308 308 307 305 302 303 302 302 302 301 301 301 302 302 301 303 306 306 306 309 311 312 310 314 317 316 315 318 320 321 319 322 322 322 322 323
308 303 302 302 304 305 302 301 302 305 306 307 307 306 304 301 300 301 302 302 299 300 301 301 302 301 303 303 304 305 307 309 310 311 313 316 315 315 318 319 320 320 320 320 322 322 322
309 304 302 302 304 303 303 303 303 303 306 306 306 306 306 303 298 299 301 299 298 300 301 301 301 302 302 302 305 304 305 308 309 310 311 315 315 316 318 318 320 320 320 320 322 321 321
311 305 302 301 303 303 302 304 303 304 304 303 306 306 305 302 300 299 298 300 300 301 301 300 303 301 301 303 305 304 305 308 309 310 311 315 315 315 317 317 318 317 317 322 321 322 322
312 307 304 302 302 303 303 302 301 304 305 305 302 305 305 305 300 300 300 300 302 301 301 302 303 303 303 306 305 305 305 309 310 311 310 316 316 316 315 314 316 317 316 318 321 322 322
313 309 305 302 301 302 303 303 302 304 306 306 305 303 305 303 304 300 300 301 302 302 303 304 304 303 303 304 305 305 306 312 313 311 311 314 315 313 313 315 320 318 316 317 319 320 321
314 311 305 302 301 301 302 303 302 303 306 305 304 301 303 302 302 300 301 300 301 302 303 303 303 304 304 305 305 306 309 312 313 312 314 313 315 316 313 313 312 312 314 317 316 316 317
313 313 307 303 301 301 302 302 303 302 301 305 305 300 303 303 301 301 301 302 303 303 305 306 307 307 308 308 307 306 310 311 314 313 311 315 314 313 313 313 313 314 314 316 315 315 317
313 313 309 303 301 302 303 302 302 302 301 304 303 301 302 304 301 301 301 302 303 303 304 306 307 307 308 309 309 308 309 310 312 314 313 314 312 313 315 314 314 312 313 312 315 313 313
314 312 310 303 302 302 303 303 302 301 301 302 301 300 302 304 303 302 302 300 301 303 297 307 308 307 309 309 309 308 309 309 312 315 315 314 313 315 317 315 313 315 312 311 313 314 316
315 312 310 302 302 302 303 303 302 301 301 300 300 299 304 304 304 303 304 301 301 305 300 305 307 308 309 310 308 309 309 311 312 314 313 315 314 315 316 315 313 314 310 311 312 311 313
316 313 309 302 303 303 304 303 302 301 300 298 299 299 305 306 306 303 303 301 305 297 305 308 309 308 309 311 311 309 311 312 313 313 313 313 312 313 315 314 312 309 310 309 307 309 309
316 313 309 303 303 304 304 303 301 301 298 298 299 303 306 306 307 306 305 304 298 301 303 309 312 308 309 312 311 309 310 311 314 314 316 315 314 311 313 316 313 312 314 314 316 312 311
315 313 307 305 303 304 305 302 301 301 298 299 299 305 307 306 306 305 305 299 301 302 306 308 312 311 311 312 312 312 311 313 312 312 312 313 317 313 310 312 314 312 313 311 314 314 311
314 312 306 305 303 304 304 301 301 301 298 299 300 306 307 307 307 306 305 297 300 302 309 312 313 314 314 313 311 312 312 313 313 309 312 309 313 311 312 311 311 313 311 307 306 304 303
312 311 307 304 304 304 302 301 300 301 299 300 305 306 308 306 307 307 300 304 302 305 310 311 312 312 313 313 312 312 312 312 314 311 308 309 311 312 312 311 311 312 309 312 309 310 312
312 309 307 303 305 303 301 301 301 301 299 301 307 308 308 306 307 307 299 301 306 308 309 309 310 310 311 313 312 313 312 312 313 311 308 307 308 312 312 313 316 315 315 312 309 306 308
312 309 306 304 305 302 301 300 300 301 299 302 309 304 308 306 308 307 300 304 309 309 309 308 308 309 310 310 312 312 311 310 313 312 311 309 309 313 313 312 312 312 315 313 316 310 305
312 309 305 305 304 301 301 300 300 300 299 303 307 308 307 306 306 301 304 309 310 310 309 308 308 309 308 310 311 310 310 308 313 311 310 309 306 312 313 312 312 315 313 314 313 309 303
312 308 304 305 303 301 300 299 300 300 297 305 307 302 307 307 307 307 308 309 309 309 309 308 308 308 308 309 307 309 309 309 311 312 312 310 307 306 308 308 309 313 313 313 314 315 314
311 306 304 304 302 301 300 299 300 300 297 304 305 301 303 302 307 303 306 308 309 310 308 308 307 308 308 309 309 310 309 309 308 311 310 311 307 303 306 307 309 310 311 313 315 315 315
309 305 305 303 301 300 299 299 300 300 296 297 299 300 302 301 301 303 306 308 311 309 309 309 308 308 307 308 307 308 308 308 309 307 307 304 306 302 302 306 307 308 307 309 312 313 314
307 305 304 302 300 299 299 299 300 300 299 295 296 299 301 299 298 303 302 303 308 307 309 309 307 309 307 307 308 307 308 308 306 306 306 306 305 301 301 304 305 306 307 307 308 309 311
306 305 303 301 299 299 299 299 299 299 300 299 296 296 299 301 297 299 298 299 304 305 307 308 310 309 309 309 307 307 307 306 306 305 305 303 302 299 298 301 301 303 304 305 306 307 308
305 305 302 300 299 299 299 299 299 299 299 299 298 298 295 295 295 296 296 299 303 305 307 307 310 310 310 308 306 308 306 307 307 305 305 303 303 302 301 300 303 305 308 306 307 308 305
305 304 302 300 299 299 298 299 299 298 298 298 298 298 297 294 295 296 295 297 298 298 303 306 309 310 310 307 308 309 309 307 308 309 306 307 305 304 304 304 306 303 305 308 306 308 308
306 303 301 300 300 299 298 298 298 298 298 298 297 296 297 297 296 296 295 295 296 295 296 302 302 307 308 306 309 308 305 304 307 307 310 310 309 307 306 305 305 303 304 307 308 307 309
305 303 301 300 300 299 298 298 297 297 297 297 297 296 296 296 296 296 296 296 296 296 295 297 303 305 307 308 309 307 304 302 305 305 306 307 308 307 306 308 305 305 308 311 307 311 311
304 302 301 300 300 299 298 298 297 297 297 297 296 296 295 296 296 296 296 295 295 296 296 296 298 300 301 306 304 303 305 301 301 305 303 306 304 305 305 305 304 305 308 309 310 311 311

GFSGBSN_850_thetae_063.txt.gz
Theta_e
311 308 303 303 303 304 304 306 304 303 305 306 306 307 307 305 299 302 302 302 302 300 301 301 301 300 302 305 305 305 308 311 310 310 314 317 316 316 318 319 320 320 322 321 322 322 322
315 310 305 303 302 304 303 305 306 306 306 304 306 306 306 306 301 298 301 301 299 299 301 301 300 301 301 302 303 304 305 308 310 309 313 316 316 315 318 319 319 319 321 321 322 322 322
316 313 308 304 302 303 304 305 303 306 307 307 303 304 305 306 301 299 298 299 299 299 300 300 301 303 301 301 304 305 303 306 308 310 310 314 315 315 317 318 319 318 321 319 321 322 322
317 314 312 306 302 302 303 305 304 305 307 305 304 302 303 305 305 300 300 300 300 301 300 300 302 301 300 302 304 305 304 304 308 309 310 311 315 315 316 318 317 318 319 323 321 321 321
318 314 313 310 303 301 302 304 304 306 307 306 305 304 301 305 305 303 300 300 301 302 302 303 303 303 303 304 305 305 305 305 307 309 310 312 315 315 315 317 318 318 321 320 321 320 322
319 317 311 311 304 301 303 303 304 305 306 306 305 305 301 303 303 302 300 300 301 302 303 303 303 303 303 305 305 305 307 308 309 311 312 314 315 314 312 318 319 319 319 318 321 322 322
321 318 311 311 305 301 303 303 303 304 305 306 305 305 300 304 302 301 301 301 301 302 305 305 304 303 305 305 305 306 308 310 310 312 312 311 316 317 315 313 313 314 316 318 316 320 322
319 317 313 311 307 301 302 303 303 304 305 304 304 303 300 304 303 301 301 302 303 304 305 307 307 307 308 308 307 309 310 311 311 312 310 313 315 313 313 312 314 315 315 317 315 317 320
321 318 314 312 307 302 303 303 303 303 302 304 303 301 300 305 304 301 301 301 303 303 304 306 307 306 308 308 308 308 310 310 311 310 312 315 314 313 315 313 313 312 315 313 316 314 314
320 317 314 313 307 303 303 304 303 302 302 302 300 301 299 305 304 302 302 300 301 302 296 303 307 307 308 309 309 308 309 309 311 310 312 314 313 315 315 314 312 315 311 312 313 315 319
321 317 315 313 308 303 304 304 303 301 301 299 299 300 300 305 305 302 303 302 301 305 303 305 307 308 309 308 308 309 310 311 310 312 314 314 314 316 316 314 312 313 310 311 311 313 313
321 318 315 312 308 303 304 304 303 301 300 299 299 300 305 306 306 303 303 301 305 298 305 306 309 308 310 311 310 309 312 312 311 313 313 313 312 313 314 313 311 308 310 309 308 311 316
321 318 314 312 306 304 305 305 302 301 300 298 299 304 306 306 306 305 304 304 298 301 301 311 310 308 309 311 310 310 311 313 314 314 315 315 313 311 312 314 312 311 312 315 315 313 316
321 318 315 311 306 304 305 305 302 300 300 298 300 306 307 306 306 305 305 300 301 301 307 309 311 310 311 311 312 312 311 314 312 313 314 316 316 313 311 312 314 313 313 312 315 315 313
322 319 314 310 306 304 305 304 302 300 300 299 302 306 307 307 306 306 304 296 300 301 310 312 311 313 312 312 311 312 312 314 312 310 313 310 315 311 312 311 311 313 313 307 307 303 308
321 319 312 309 306 304 305 303 301 300 299 301 304 307 307 307 307 306 302 304 302 303 309 310 312 312 312 312 312 313 313 312 314 310 308 308 314 312 312 311 311 311 309 313 311 312 314
321 317 312 308 305 305 305 302 301 300 298 303 306 308 307 306 307 307 299 300 305 307 309 309 310 311 311 312 312 312 311 312 312 311 307 306 309 314 313 314 316 314 313 311 310 309 313
320 316 312 308 304 305 304 301 300 300 298 304 308 305 307 306 308 307 301 303 308 309 309 308 308 309 310 311 312 312 311 311 312 310 310 308 308 313 313 312 312 313 314 311 312 310 306
320 316 311 309 304 305 302 301 300 300 298 304 308 306 306 306 307 301 303 308 309 309 309 307 308 308 308 312 310 310 310 308 312 310 309 308 307 312 313 311 311 313 313 314 310 309 305
321 316 311 308 305 304 302 300 300 300 298 304 307 302 307 307 306 307 307 308 308 309 308 307 307 307 308 308 307 309 309 308 311 312 310 308 306 306 309 309 310 313 312 312 313 316 314
321 315 310 306 305 303 301 300 300 300 297 304 305 301 303 304 307 303 305 307 308 309 308 307 307 307 308 308 309 309 308 308 308 312 310 309 306 302 306 307 309 310 311 312 312 313 314
321 313 310 306 305 302 300 300 300 300 296 298 301 301 302 300 301 302 304 307 310 309 309 308 307 308 307 307 308 308 307 307 309 307 308 304 305 303 303 306 307 309 308 310 312 313 313
317 311 308 306 303 301 300 300 300 300 298 296 297 298 301 298 298 302 301 303 308 306 309 308 307 308 307 307 307 307 307 307 307 306 305 305 305 302 304 303 304 307 306 306 308 309 311
313 308 306 305 302 301 299 300 300 300 300 300 297 297 301 299 298 300 297 299 305 304 308 308 310 308 308 309 306 307 307 305 305 303 304 303 304 302 304 302 303 304 303 305 306 306 307
311 306 306 304 301 300 299 299 299 300 299 299 299 298 296 295 296 296 296 298 301 304 306 306 310 308 310 307 306 307 306 308 307 305 305 302 302 303 304 301 303 305 307 304 305 308 304
310 306 306 303 301 300 299 299 299 299 299 298 298 299 298 294 294 296 295 296 296 298 303 304 307 309 309 306 308 309 308 306 307 308 305 305 305 305 304 304 306 302 305 307 306 309 307
309 306 305 303 300 299 299 299 298 298 298 298 298 297 298 296 296 296 294 295 296 295 295 300 299 306 307 306 309 308 305 304 307 308 310 310 309 307 307 306 305 302 303 306 307 307 308
307 306 305 302 300 299 299 299 298 298 298 298 297 297 297 296 296 296 296 296 296 295 295 297 303 304 307 308 309 306 303 302 304 304 305 307 307 307 306 309 305 304 306 310 306 309 310
305 306 304 301 300 299 298 298 298 298 297 297 297 296 296 297 296 295 295 295 295 296 296 295 298 300 300 305 304 302 305 300 300 304 301 306 304 305 305 305 303 304 306 306 306 306 307

GFSGBSN_850_thetae_066.txt.gz
Theta_e
316 314 313 311 307 303 303 306 306 304 305 307 306 306 307 307 305 299 300 301 301 299 300 301 300 300 300 304 305 305 306 309 309 312 314 316 318 316 318 320 322 321 323 323 322 323 323
318 316 312 312 310 304 302 304 306 306 305 307 308 305 305 306 306 299 297 300 299 299 299 301 303 300 302 302 302 303 304 308 308 310 314 315 316 316 316 319 322 322 322 322 323 322 323
321 318 313 312 311 306 302 303 305 306 307 307 306 307 304 304 306 302 300 299 299 300 300 303 304 302 303 302 303 304 304 305 309 308 311 315 315 316 317 319 320 321 323 323 323 323 324
321 319 318 312 313 308 303 303 304 306 307 306 307 306 306 303 305 305 300 300 299 301 301 302 301 302 302 301 303 304 304 304 308 309 309 313 315 316 317 319 320 322 322 324 324 323 323
322 320 320 316 311 311 304 303 304 304 306 306 306 306 305 303 304 303 301 300 300 302 302 303 303 303 304 304 305 305 305 305 307 309 309 312 315 316 317 319 320 320 320 321 324 323 324
322 322 320 317 311 311 304 303 304 304 305 306 306 305 305 304 304 302 301 302 301 301 303 303 303 304 303 305 305 305 305 305 308 309 312 311 315 317 317 319 319 318 319 320 322 323 323
323 322 320 317 312 311 304 303 304 304 304 305 305 304 304 303 304 301 302 303 302 303 304 306 306 305 306 305 303 304 307 306 310 310 313 309 317 318 316 317 315 316 318 319 319 321 323
323 323 321 317 313 311 305 303 304 305 304 304 304 303 303 301 304 301 301 303 304 304 307 306 307 307 307 308 308 307 308 310 311 313 311 311 317 316 316 316 317 318 319 319 319 322 324
324 323 322 317 315 311 305 303 304 305 302 302 302 302 302 301 305 301 301 301 303 302 307 306 307 308 308 308 309 310 310 311 312 312 312 314 316 316 317 316 317 317 318 319 319 323 322
324 323 322 318 315 311 306 304 305 305 302 301 299 299 300 303 305 301 301 301 301 302 309 309 308 308 309 308 309 309 310 310 311 312 312 315 315 317 316 316 316 318 316 318 318 319 319
324 324 323 318 314 312 306 304 305 305 302 301 299 300 300 305 304 303 303 301 301 305 314 308 310 308 308 309 309 310 310 310 311 312 312 316 316 317 317 316 315 316 315 317 317 317 318
325 325 323 319 314 311 306 304 305 304 301 300 299 301 304 305 304 304 303 301 305 310 313 310 310 309 311 310 309 311 312 310 311 312 313 314 313 316 316 314 315 312 315 316 316 317 319
325 324 323 320 315 311 307 305 305 303 301 300 300 304 306 306 306 304 305 303 312 315 305 311 311 310 311 311 310 311 312 312 314 314 315 316 315 314 314 315 313 315 316 318 318 320 318
325 325 323 320 315 311 307 305 304 302 301 300 301 306 306 306 306 305 305 306 314 308 310 311 311 311 313 312 311 311 314 314 313 314 317 317 319 316 313 316 316 316 316 317 317 317 316
325 325 324 321 315 310 307 306 304 301 300 299 302 306 306 306 306 305 305 313 313 310 311 312 312 313 314 312 313 312 313 314 313 315 317 316 316 313 313 313 315 316 317 312 314 310 315
325 324 324 322 314 309 307 306 303 301 300 300 303 306 306 306 306 306 307 310 309 306 311 312 314 313 313 313 314 314 315 313 313 312 310 313 316 313 313 314 314 316 313 317 318 319 317
325 325 324 322 313 309 307 306 302 300 300 301 304 308 307 307 307 307 311 310 308 308 309 312 312 313 313 313 314 313 314 313 313 311 310 311 315 315 315 316 316 316 316 315 315 316 317
326 326 323 319 313 309 307 306 302 300 299 303 306 309 306 306 308 308 310 307 308 310 310 310 310 311 313 313 314 315 315 314 313 311 312 310 313 314 316 313 313 315 316 316 317 317 315
325 325 322 318 312 309 307 305 301 301 299 305 308 306 305 306 308 308 308 309 310 310 310 309 310 310 310 314 315 312 313 310 312 311 312 311 313 314 314 312 311 313 314 315 315 315 316
325 324 322 317 312 308 306 303 301 301 299 303 307 307 306 306 306 308 310 310 310 309 309 308 309 309 310 311 310 312 312 311 312 313 310 310 311 313 315 314 313 314 313 313 314 317 315
324 322 322 317 311 307 306 302 301 301 298 304 305 307 305 307 307 308 307 308 310 311 309 308 308 309 310 312 311 312 311 311 311 312 312 313 314 309 309 310 313 313 313 313 314 314 315
321 322 320 315 309 306 304 302 301 300 298 303 302 304 302 304 304 307 307 310 310 310 310 310 309 308 309 310 311 312 311 312 313 310 312 310 312 308 310 308 310 312 312 313 313 313 313
323 321 320 312 307 306 303 301 301 301 298 297 298 300 304 300 303 307 309 308 309 308 310 309 309 309 309 309 308 307 309 310 311 312 312 313 311 311 314 307 308 310 310 311 312 313 313
323 322 319 311 307 304 302 301 300 300 300 299 299 299 303 304 304 307 301 301 307 306 310 309 310 310 309 308 305 307 307 307 308 307 309 310 311 310 312 307 312 307 305 307 308 309 310
323 321 316 309 306 303 302 301 300 300 300 300 299 297 300 302 301 299 299 302 303 305 308 309 309 307 309 307 310 311 311 310 309 307 307 308 310 310 312 311 309 309 309 309 309 311 309
321 319 310 307 305 302 301 300 300 300 300 300 300 299 297 300 298 297 299 298 303 303 307 305 307 309 308 310 311 312 312 310 311 310 307 307 308 310 309 310 309 309 308 308 308 312 310
318 317 308 305 303 301 301 300 300 299 299 299 299 299 299 297 295 296 298 298 296 298 304 303 300 307 307 310 313 311 310 307 311 311 311 310 310 312 310 310 309 308 305 307 312 312 310
317 314 307 304 301 301 301 300 299 299 299 298 298 298 298 296 295 296 296 296 296 296 303 298 304 305 306 311 311 311 310 308 308 308 310 311 312 311 311 311 310 305 307 311 309 308 308
315 311 306 303 300 300 300 299 299 299 298 298 297 297 297 297 295 295 295 295 296 296 297 296 299 301 300 305 307 307 308 305 307 309 305 309 309 310 310 309 306 305 307 306 306 307 307

GFSGBSN_850_thetae_069.txt.gz
Theta_e
319 320 317 314 312 310 306 303 304 305 305 306 308 307 307 305 307 306 299 298 301 299 298 300 302 301 304 305 305 307 305 308 309 307 313 316 318 318 318 322 323 326 324 324 325 324 324
323 322 320 318 314 310 307 303 303 305 306 307 307 307 307 305 306 307 301 299 299 300 301 302 304 303 305 305 304 306 305 307 308 309 312 316 317 317 316 320 323 323 322 324 324 324 323
324 321 321 320 319 311 308 305 303 305 306 306 307 307 306 306 304 306 306 300 300 300 301 301 301 305 305 304 304 306 305 307 308 307 312 315 316 317 316 319 321 320 321 319 323 324 323
325 322 322 321 320 314 309 307 304 305 306 306 307 306 306 306 304 305 305 304 300 300 302 302 302 305 305 303 304 306 306 307 308 307 310 312 315 318 317 318 321 321 320 322 322 323 324
325 323 322 321 319 316 310 309 304 305 304 306 306 306 305 305 305 305 302 301 300 301 302 303 305 306 306 304 306 307 305 307 307 307 308 309 315 317 319 320 321 323 324 324 322 321 324
326 323 323 322 320 317 311 309 305 304 304 305 305 306 305 304 303 304 302 302 301 301 305 306 306 306 306 304 304 305 307 307 309 310 310 311 314 318 318 319 319 318 320 321 322 321 323
326 324 325 322 322 317 312 310 306 304 304 305 304 305 303 304 301 305 302 305 305 306 305 307 307 307 308 307 304 305 307 307 309 309 310 310 315 318 317 317 316 316 317 319 321 322 323
326 325 325 322 322 318 313 311 307 304 305 304 303 303 301 302 302 305 301 306 305 305 308 307 308 308 309 308 306 306 308 308 310 313 309 312 318 316 315 316 316 316 318 318 319 321 321
323 325 326 323 323 318 314 311 306 305 305 303 302 302 300 301 305 303 305 304 303 302 309 308 308 309 308 309 308 309 309 311 312 313 312 315 317 315 316 317 317 317 317 317 319 321 322
322 325 324 324 324 320 314 311 306 305 306 303 301 300 301 301 306 305 305 302 301 302 311 310 309 309 310 309 309 310 311 311 312 314 314 315 315 317 316 316 316 317 316 318 320 322 321
323 325 324 325 324 321 314 311 307 305 305 302 300 300 301 304 306 305 305 302 301 306 316 310 311 309 310 310 310 311 311 311 312 313 314 317 316 316 316 316 316 317 317 319 319 320 318
322 323 325 325 324 321 315 310 307 305 305 301 299 301 304 306 305 305 303 302 306 311 315 310 311 310 310 310 311 312 312 312 312 313 313 315 314 316 316 316 316 316 317 317 317 317 319
320 322 325 325 324 322 316 310 307 306 304 301 300 305 307 307 308 304 305 307 311 319 309 312 311 312 311 310 311 312 313 313 313 314 315 316 316 315 316 317 315 316 316 319 318 319 319
321 321 324 325 324 322 316 310 307 306 303 301 301 306 307 307 306 306 306 309 316 312 313 312 312 313 314 312 312 312 313 315 313 313 317 319 319 316 315 315 315 317 315 317 317 318 317
321 320 322 325 324 322 317 310 307 305 302 300 302 306 307 306 306 306 307 313 315 313 312 313 313 316 314 313 313 313 314 314 314 312 318 318 317 315 315 315 316 316 318 314 316 314 316
322 320 321 325 325 323 317 310 307 305 301 299 305 308 307 306 306 306 308 312 312 310 312 313 314 314 315 314 314 313 314 314 314 315 313 315 316 314 314 315 315 317 315 317 317 319 314
323 320 321 325 325 322 316 310 307 304 301 300 307 308 307 306 306 308 312 313 312 311 312 314 313 314 313 314 314 314 315 314 314 314 312 315 315 315 316 317 317 316 316 316 316 317 318
323 319 321 324 325 322 314 309 307 303 300 303 308 309 306 306 309 309 311 311 309 312 311 312 312 313 314 314 315 315 315 315 314 312 313 313 316 316 316 315 315 316 316 316 317 317 315
321 320 320 323 323 321 313 308 307 302 300 304 309 306 306 306 308 309 311 311 311 311 312 311 312 312 313 314 315 314 315 312 314 313 313 313 315 316 316 315 314 315 315 316 315 317 319
316 320 320 322 321 320 311 307 305 302 300 306 308 308 306 305 308 310 311 312 312 311 311 310 311 311 312 314 313 314 314 313 313 313 311 311 314 316 317 316 315 315 314 315 316 319 317
309 321 321 322 320 318 309 307 304 301 300 304 308 310 308 308 308 308 311 311 311 312 311 310 311 312 313 314 313 314 313 314 314 312 312 314 316 312 311 313 314 314 314 314 316 315 317
314 318 320 323 320 316 308 306 302 301 299 303 306 307 305 309 308 309 309 311 311 312 311 311 310 311 311 313 313 314 314 314 314 313 314 313 315 312 312 311 311 313 313 314 314 314 314
314 316 321 319 320 312 308 305 302 301 299 303 302 304 307 307 309 310 311 311 311 311 311 311 310 310 311 311 309 309 311 312 312 314 314 315 313 313 316 310 310 312 311 312 313 314 314
315 317 320 319 320 308 306 303 301 301 299 299 299 302 305 307 308 310 308 308 310 310 312 311 311 311 310 309 308 309 310 311 311 312 313 314 314 314 315 310 314 310 307 308 310 311 310
304 305 320 318 318 309 306 302 302 301 300 298 299 300 304 306 306 305 304 307 307 308 311 311 310 308 309 309 311 312 312 311 311 310 311 312 313 314 315 314 312 310 309 310 310 312 311
307 307 316 317 315 308 304 302 301 301 300 300 299 298 300 304 304 303 304 305 309 310 310 308 306 309 309 311 312 312 313 312 312 311 309 310 311 312 311 312 311 312 309 309 310 313 311
310 309 313 313 310 307 302 301 301 300 300 300 299 299 300 300 297 299 303 304 301 305 309 308 305 309 309 312 312 312 312 309 311 311 311 311 311 312 312 311 311 309 307 308 311 313 310
309 310 313 311 308 304 301 301 300 300 299 299 299 299 300 299 297 298 297 299 298 300 308 302 308 307 308 311 311 312 310 310 309 310 311 311 311 312 311 313 311 308 308 311 310 309 309
306 310 311 308 308 302 300 300 300 299 299 298 298 298 299 299 296 296 296 296 297 297 300 301 303 302 302 307 310 310 309 309 309 310 308 310 310 311 310 311 307 308 308 307 307 307 307

GFSGBSN_850_thetae_072.txt.gz
Theta_e
324 324 322 321 320 318 314 312 309 305 305 306 308 308 308 307 306 306 308 304 299 300 305 303 304 304 301 306 306 307 306 306 307 308 309 313 316 318 319 319 321 322 322 323 326 325 326
324 324 324 323 321 320 319 312 310 304 305 306 307 307 307 307 306 305 306 307 301 300 304 304 302 304 306 306 304 306 306 308 308 308 309 313 315 317 318 317 320 316 321 325 324 325 325
321 324 325 324 321 321 319 314 311 306 304 305 307 307 306 306 306 306 305 306 306 300 300 305 302 304 306 306 304 305 306 307 308 306 307 313 314 316 318 317 320 319 320 324 324 324 324
322 325 326 325 321 321 320 315 311 307 304 305 306 306 306 305 305 305 305 305 302 300 301 302 303 304 306 305 303 306 306 307 307 306 307 308 313 315 318 317 320 319 318 324 324 322 322
322 324 326 327 322 321 321 317 313 308 305 305 305 305 305 305 304 305 304 302 302 302 303 303 305 307 306 306 307 306 306 307 307 307 307 309 313 316 318 319 320 321 319 321 322 322 323
321 322 326 325 324 321 322 319 313 309 305 304 305 304 303 304 304 303 303 302 303 302 305 307 307 307 307 307 305 305 306 307 308 307 309 309 314 317 318 319 322 321 322 318 320 321 321
319 323 323 324 325 324 322 320 314 309 305 304 305 302 300 303 303 302 302 305 307 307 306 308 308 308 308 306 304 305 306 307 309 307 309 308 314 319 319 317 317 317 319 321 320 321 321
321 322 324 323 324 325 323 320 315 310 306 305 305 302 301 301 301 304 302 307 307 305 307 309 308 309 308 306 307 306 307 308 309 310 309 313 315 316 316 317 317 316 318 320 320 321 319
321 322 323 323 324 324 323 321 315 310 306 305 305 302 301 301 303 305 305 305 304 303 308 309 309 309 308 308 308 307 309 309 311 311 313 316 317 315 316 317 316 316 316 319 321 322 321
322 322 322 323 324 325 325 322 316 310 307 306 304 301 300 301 307 307 306 304 301 303 310 311 310 310 310 309 310 310 309 311 312 314 314 316 316 316 317 318 316 316 316 318 320 320 322
317 322 322 323 323 324 325 322 316 309 307 306 303 301 301 301 307 307 307 303 301 307 316 310 310 309 311 310 310 310 312 312 313 314 314 316 317 317 317 316 316 318 317 318 320 320 318
312 317 323 323 322 323 325 323 317 309 307 306 302 301 303 305 306 307 304 302 308 310 312 310 311 311 310 311 311 312 312 312 313 314 314 315 315 316 316 316 316 316 318 317 317 317 318
309 311 317 323 322 322 323 322 317 309 306 306 301 303 306 306 308 306 304 307 312 315 309 312 312 311 310 310 312 312 312 313 314 313 314 315 317 316 316 316 316 316 316 317 316 316 316
309 310 312 320 323 321 322 323 317 309 306 304 301 306 307 308 306 306 307 309 313 313 312 311 312 312 312 311 311 312 312 314 314 314 316 317 318 317 315 316 316 316 315 316 316 316 315
307 309 310 316 323 321 321 321 316 308 306 302 301 306 308 306 306 306 308 311 315 313 311 311 313 314 313 312 313 312 314 314 313 314 317 317 317 315 316 315 316 316 316 314 316 314 313
306 307 309 313 320 321 321 320 312 307 306 301 303 307 307 306 306 306 309 312 312 312 312 312 315 315 314 313 313 313 313 314 314 314 314 315 316 315 315 315 316 317 314 314 313 315 314
305 308 307 311 317 321 321 318 311 307 303 300 307 307 307 306 306 308 310 311 312 311 313 313 314 314 314 313 313 313 314 314 314 315 313 314 313 316 315 316 317 316 315 316 315 314 315
300 305 307 309 309 321 321 317 310 306 301 301 308 310 306 306 308 310 310 312 310 312 312 312 312 314 314 314 314 314 314 314 313 313 313 313 314 313 316 315 315 315 315 314 315 315 312
301 300 306 309 315 320 321 317 309 305 301 305 308 306 305 306 309 309 310 311 312 312 312 312 313 313 313 315 315 314 314 313 313 313 313 312 314 315 313 313 313 315 315 316 315 315 315
300 301 304 307 314 320 320 317 311 304 300 308 307 307 306 306 307 309 310 311 312 311 312 310 312 312 313 313 313 314 314 313 314 313 311 312 314 315 317 315 314 314 314 314 315 313 316
300 300 304 305 312 320 319 316 309 303 300 309 309 309 306 307 307 308 310 311 311 312 311 310 311 312 313 314 314 314 313 313 313 312 312 313 314 308 312 313 314 314 314 313 313 314 313
298 301 305 308 311 321 319 314 308 301 300 306 307 308 308 309 309 308 310 311 310 312 311 311 311 312 312 314 313 314 314 313 314 312 313 313 311 311 309 311 311 312 313 313 313 313 313
297 300 303 311 312 320 317 313 307 300 299 303 306 307 307 308 308 309 310 311 311 312 312 311 310 310 311 310 309 309 311 312 313 313 313 314 311 310 313 310 310 309 310 311 312 312 312
297 298 301 305 310 318 316 310 305 300 299 302 303 304 307 307 308 309 310 310 311 311 312 311 311 311 310 309 308 310 310 311 312 312 312 314 313 311 311 308 308 310 307 308 310 311 311
296 298 301 301 303 311 314 308 303 300 298 301 300 303 305 306 307 307 308 309 308 309 312 311 310 308 309 309 310 311 311 311 311 310 311 311 313 313 312 311 311 307 308 308 309 310 311
296 300 302 304 305 308 308 306 300 300 298 299 299 301 303 305 302 304 306 308 308 309 310 308 308 309 310 310 312 312 311 310 311 310 309 310 311 311 310 310 311 310 309 309 309 311 310
296 300 308 307 307 308 308 303 300 300 299 299 298 299 302 300 299 301 304 304 303 307 308 309 308 310 310 311 311 311 311 309 311 310 310 310 310 309 311 311 309 308 307 309 309 311 309
295 300 305 308 307 308 307 302 301 301 299 298 299 298 301 298 298 298 299 300 301 302 307 303 308 308 308 311 311 310 310 308 308 310 309 309 309 310 310 311 309 307 307 309 308 308 307
297 300 302 305 306 306 304 299 301 301 299 298 298 299 300 299 296 297 297 298 300 299 301 304 304 303 304 307 308 309 308 307 307 308 307 309 309 310 309 309 308 307 307 307 305 304 304

GFSGBSN_850_thetae_075.txt.gz
Theta_e
320 322 322 324 324 323 321 320 318 312 310 306 307 307 308 307 307 307 306 306 308 303 306 305 304 301 302 306 306 306 305 304 307 307 308 309 313 316 317 318 320 323 323 324 324 325 325
315 320 322 324 325 324 321 321 320 314 311 306 306 307 308 307 306 306 306 305 307 307 301 303 304 301 305 306 304 305 303 305 307 307 307 310 313 315 317 318 320 320 321 322 324 325 325
316 318 321 323 326 326 323 321 321 317 312 308 306 306 307 306 306 305 306 306 306 305 306 301 304 303 305 305 305 305 306 306 306 306 307 310 312 314 316 317 319 319 321 322 324 323 325
321 318 320 322 325 325 325 321 321 319 314 308 306 305 306 305 305 303 304 304 303 302 301 303 303 304 305 306 304 303 306 306 306 307 306 309 310 313 316 317 319 319 318 319 320 322 322
322 322 320 321 323 324 325 322 321 320 314 309 306 305 305 303 302 303 303 303 302 302 302 304 306 306 307 306 306 306 305 307 307 307 307 307 310 314 315 318 320 318 318 316 318 322 323
319 321 321 321 323 323 323 324 322 322 316 310 306 305 305 302 302 302 303 302 304 303 303 307 307 307 307 307 306 305 306 307 308 308 308 310 312 315 316 319 321 321 318 318 316 321 323
317 317 319 321 323 323 323 324 323 322 316 310 307 305 304 301 301 302 304 305 308 307 306 307 308 308 309 305 304 305 306 307 308 308 310 309 312 317 315 317 316 317 320 318 318 320 321
313 315 316 318 321 324 324 323 323 323 317 309 307 305 303 301 301 304 302 306 306 305 305 308 308 308 308 308 306 306 307 308 309 311 309 312 315 314 317 317 318 318 318 320 320 319 320
301 305 312 315 320 322 324 323 324 323 318 309 307 305 302 301 304 305 305 306 304 303 307 309 309 309 308 308 307 305 308 309 310 311 313 313 313 314 316 318 318 317 317 318 321 322 320
303 303 303 311 314 320 323 323 323 323 321 310 306 305 301 301 307 305 306 305 302 303 306 311 310 309 309 308 309 309 308 311 311 312 314 314 315 316 316 317 316 316 316 319 320 320 321
302 302 304 308 311 314 319 322 322 322 321 310 306 304 301 301 307 306 308 303 302 307 303 310 310 310 310 309 309 310 310 312 313 315 314 315 317 317 318 317 316 317 317 319 319 320 318
301 303 304 305 309 312 314 318 322 321 322 308 306 303 301 305 306 306 305 303 308 304 300 308 311 311 310 311 311 311 312 312 313 313 315 316 315 316 316 315 316 315 315 315 316 316 313
303 302 303 303 307 310 311 314 321 320 322 307 305 301 304 306 307 306 304 307 308 302 307 308 312 311 310 311 312 312 312 313 312 312 315 314 316 315 315 314 314 314 313 314 315 311 315
301 302 302 304 307 311 310 313 321 320 319 306 303 302 306 307 307 305 307 306 305 309 310 310 310 311 310 311 311 312 313 312 312 311 312 314 314 316 314 315 315 315 313 314 316 315 313
300 301 302 302 306 309 310 312 320 320 317 304 300 305 307 306 306 306 308 303 312 308 311 311 312 312 311 312 312 312 313 312 312 313 313 314 315 314 315 314 313 314 310 312 313 311 310
299 300 300 302 300 307 309 313 317 319 316 303 303 306 307 306 305 307 308 308 307 310 311 311 314 312 313 312 311 312 312 312 312 313 313 313 315 314 314 315 315 315 312 311 307 311 313
298 299 299 300 300 303 307 309 315 316 315 302 306 307 307 306 306 307 308 308 311 310 312 312 313 314 312 311 311 311 313 312 313 314 311 312 312 315 314 315 315 315 314 314 311 310 312
297 299 299 301 300 303 306 308 308 314 313 305 307 308 306 306 306 307 306 309 310 311 311 311 311 313 312 311 311 312 312 314 312 312 312 313 310 315 314 313 314 314 315 313 311 311 308
297 298 298 299 298 302 306 309 308 312 316 305 308 306 306 306 304 307 307 311 311 311 311 311 312 311 312 313 314 314 313 312 313 312 312 311 309 313 314 311 311 314 315 315 313 310 309
297 297 296 298 298 302 303 311 310 310 309 307 307 307 305 306 306 307 307 310 311 311 312 310 311 311 312 312 312 313 313 312 313 312 311 311 311 308 308 310 311 313 314 314 312 305 314
296 296 296 299 297 302 303 308 312 311 306 308 307 305 305 306 305 306 308 310 312 311 311 309 310 311 311 313 312 313 312 314 313 312 312 311 311 306 311 311 313 312 312 312 311 313 313
296 296 296 298 298 303 305 307 310 308 306 307 308 307 305 304 305 304 307 309 310 311 310 310 309 310 312 312 310 312 311 312 313 311 311 310 307 309 307 310 310 311 311 311 311 312 313
296 296 296 298 298 302 310 307 310 304 305 308 307 307 307 306 303 304 306 309 310 310 311 310 308 309 310 309 308 309 311 312 311 310 311 311 307 306 307 308 308 308 307 309 311 311 311
297 297 297 297 298 300 307 309 308 303 303 305 306 307 307 306 305 306 308 309 310 310 310 311 311 310 310 308 309 310 310 311 310 310 312 311 310 307 307 306 307 307 306 307 309 310 310
297 297 298 297 299 300 301 306 305 304 302 302 304 306 305 304 305 306 308 308 309 310 310 310 308 309 309 309 307 309 309 310 309 309 308 312 313 314 307 305 307 306 307 307 307 309 309
297 298 297 297 300 302 304 304 305 303 300 301 301 303 304 303 300 301 305 307 305 306 307 307 309 309 309 307 309 308 308 308 310 309 307 308 311 309 308 307 311 308 308 309 308 310 308
297 297 297 299 303 306 305 305 306 303 300 300 299 301 303 300 299 301 302 304 306 306 304 306 309 309 310 307 309 308 306 308 309 308 308 307 308 310 309 306 307 307 307 309 306 306 307
297 297 297 300 306 307 304 305 305 301 299 299 298 298 302 299 298 299 301 301 302 305 304 305 306 306 305 307 307 306 307 306 306 306 307 307 306 307 307 307 308 306 306 307 306 305 305
297 296 297 300 300 305 304 304 303 301 301 300 299 299 300 300 296 297 298 299 301 302 304 304 303 303 304 304 304 305 306 303 303 307 305 307 305 306 306 306 305 306 304 303 303 303 303

GFSGBSN_850_thetae_078.txt.gz
Theta_e
322 320 316 316 321 322 324 325 322 321 319 312 311 307 307 309 308 307 307 306 305 308 308 303 304 304 301 305 306 306 305 303 307 307 307 307 308 313 315 316 319 318 322 322 323 325 325
322 322 321 319 320 321 323 325 323 320 320 315 312 308 306 307 307 307 306 306 306 306 307 306 302 305 304 306 304 305 304 304 305 307 307 308 312 313 315 317 317 319 322 323 323 324 324
320 321 322 322 321 321 323 324 325 321 321 318 312 309 306 306 306 306 305 304 306 307 306 305 305 305 303 303 304 305 304 304 306 307 306 309 310 312 315 317 319 319 321 322 323 323 324
317 319 320 321 321 321 322 323 324 323 321 319 313 309 307 306 304 303 303 303 304 303 302 302 304 304 305 305 305 304 303 305 306 306 306 307 310 311 315 316 318 320 317 323 318 320 321
311 315 317 318 319 320 321 324 323 323 323 320 315 308 307 305 303 301 302 303 303 302 301 304 306 306 307 306 305 306 306 306 307 307 307 308 308 312 313 315 319 318 319 319 319 317 320
305 305 309 314 316 318 320 321 322 323 323 321 315 308 307 305 302 302 303 302 304 305 303 306 307 307 307 307 304 305 306 306 307 308 308 310 311 314 314 313 320 320 317 318 319 319 320
304 304 302 303 306 311 315 319 321 323 324 321 316 310 306 305 301 302 304 306 307 307 306 306 307 308 308 306 305 305 305 307 308 309 309 310 313 312 314 313 316 316 317 318 317 316 318
302 304 304 303 301 303 308 314 318 319 323 321 317 309 305 303 301 304 303 306 306 304 304 308 308 308 307 307 304 306 307 308 309 310 310 312 314 313 313 313 317 318 319 320 317 317 320
302 303 304 303 303 302 304 310 313 315 321 321 318 306 306 302 302 305 306 305 304 303 306 309 309 309 308 308 307 305 306 307 310 310 311 311 313 314 316 313 318 317 318 318 321 319 320
301 303 304 304 304 303 303 308 311 313 318 321 318 308 306 302 304 305 305 305 302 302 299 308 310 309 310 308 309 309 308 310 310 313 313 314 311 314 316 316 317 318 316 316 317 319 322
301 301 302 302 303 303 303 303 307 311 314 318 319 307 305 301 306 306 307 303 302 307 300 306 309 309 310 309 309 310 310 311 314 314 313 315 312 317 317 317 316 317 316 317 317 319 319
302 301 301 302 302 302 303 303 305 311 312 316 317 305 303 302 304 307 306 303 306 300 298 308 310 310 311 310 311 310 312 312 312 313 315 316 315 315 315 315 315 316 318 318 316 316 318
300 300 300 301 301 301 303 304 307 309 312 316 315 305 301 305 306 306 303 307 302 299 304 308 311 311 310 311 311 311 312 313 313 315 315 316 315 314 313 315 315 317 316 318 320 316 316
300 300 300 299 300 301 302 302 305 310 312 314 311 304 304 306 307 304 306 302 302 304 307 309 310 309 309 310 310 311 311 310 311 311 311 312 317 315 313 314 315 315 313 314 317 317 314
299 299 299 299 301 302 301 300 305 308 311 313 307 304 306 306 306 305 307 298 303 306 310 311 311 311 310 311 311 311 312 311 311 312 310 310 313 312 314 313 313 314 312 311 311 308 312
298 298 298 299 300 299 300 299 304 311 311 310 304 305 306 306 306 306 304 305 306 309 309 311 312 311 310 311 311 311 312 311 311 312 311 311 311 313 314 313 313 313 311 312 308 312 314
297 297 298 298 297 297 299 298 302 307 308 305 305 306 306 306 305 307 305 302 309 310 312 310 313 312 311 311 309 311 311 312 312 313 310 309 309 312 312 313 314 313 313 312 308 310 312
297 297 297 297 296 295 299 299 303 304 305 304 305 307 306 305 306 307 306 307 310 310 311 311 310 312 310 309 309 309 312 312 313 311 311 312 310 308 314 312 313 313 314 310 309 311 306
296 296 297 296 296 296 298 299 302 303 305 306 306 306 307 305 306 307 305 308 310 310 310 311 311 312 311 310 311 312 312 312 312 311 311 310 308 307 309 309 310 313 314 314 309 307 306
297 297 297 297 296 297 299 299 302 307 306 306 306 305 306 305 306 304 305 309 311 311 311 310 310 311 312 312 311 312 313 313 312 311 311 310 308 307 307 309 309 313 313 313 310 304 310
297 297 297 298 297 297 299 299 302 306 307 306 306 306 305 307 305 305 305 308 311 312 310 309 309 310 312 311 311 312 312 314 313 312 311 309 308 304 310 311 311 311 312 312 311 312 311
297 297 297 297 297 298 297 299 302 306 306 305 306 305 305 303 304 304 305 308 311 310 309 309 309 309 310 310 310 311 311 313 313 310 311 308 307 307 307 309 309 310 309 310 310 312 312
297 297 298 297 298 298 298 302 305 304 306 306 307 307 306 304 302 303 303 307 311 309 310 309 308 309 309 308 308 310 311 311 310 309 310 310 305 304 306 306 307 308 307 308 310 309 311
296 298 298 298 297 297 298 300 307 306 305 305 305 306 306 305 303 305 306 308 310 309 309 309 308 308 309 308 309 310 310 310 310 309 311 309 308 304 304 304 306 307 305 306 308 309 309
298 297 297 298 297 297 298 300 300 305 304 303 302 305 306 304 304 305 307 308 309 310 309 308 308 309 308 309 308 310 309 309 308 306 308 309 310 313 304 303 306 308 306 305 306 309 306
297 298 298 298 298 298 301 303 304 305 304 302 301 302 303 304 300 300 305 308 306 306 305 306 308 309 309 306 308 308 309 307 308 308 306 310 309 307 309 307 311 306 307 308 307 308 306
297 297 298 298 297 299 304 305 305 305 304 303 300 300 302 299 298 301 303 304 308 305 303 306 308 309 309 305 307 307 305 306 308 307 309 309 310 308 307 305 306 304 307 307 305 304 306
297 298 298 297 297 299 304 305 304 304 302 302 298 299 301 299 297 299 302 302 304 307 304 305 306 306 305 306 306 305 305 305 306 305 305 306 305 306 306 308 308 305 305 305 303 304 304
297 298 298 297 299 300 304 305 304 304 302 301 298 299 301 302 296 297 299 301 303 304 305 304 302 303 304 301 302 303 305 302 303 306 303 306 304 305 305 305 304 305 306 306 305 304 303

GFSGBSN_850_thetae_081.txt.gz
Theta_e
319 320 320 322 322 321 320 321 322 324 323 321 320 316 310 307 309 306 306 306 307 307 307 308 306 303 306 304 304 304 305 304 303 306 307 308 307 308 311 313 316 317 317 318 320 323 325
314 316 318 319 320 321 321 320 321 323 323 322 321 319 313 307 306 306 304 303 305 307 306 307 306 304 306 304 304 305 304 305 304 306 307 308 307 310 312 313 315 316 316 316 316 321 324
307 308 312 315 318 319 320 320 320 320 324 322 321 321 314 307 305 307 303 302 303 306 306 306 305 307 305 304 304 304 305 304 304 306 306 307 308 310 313 314 316 317 317 315 320 322 322
305 306 306 306 311 316 318 319 320 319 321 321 321 320 314 307 305 304 302 302 303 303 302 302 305 306 305 305 305 305 304 304 304 306 307 306 307 310 313 315 317 318 316 317 318 322 320
304 304 305 305 305 306 312 316 317 318 318 318 320 320 314 309 305 302 302 303 303 303 302 302 306 305 306 306 306 305 306 305 305 307 307 307 308 311 313 316 316 317 317 316 320 319 318
303 304 303 304 304 304 304 308 313 315 317 318 319 318 315 308 305 301 302 303 303 305 303 305 306 307 307 308 306 305 305 305 305 308 308 309 311 311 312 314 318 320 316 314 321 320 317
302 303 303 303 304 304 303 300 302 308 311 313 317 318 317 307 304 301 304 306 307 307 305 307 306 307 307 307 305 305 305 305 307 308 310 310 311 312 314 310 312 315 315 316 318 317 317
301 302 303 303 304 303 304 302 301 304 310 311 315 317 315 307 302 303 304 306 305 304 304 307 307 306 307 307 304 305 306 307 308 310 310 311 312 312 313 311 312 317 318 318 318 317 319
301 302 303 303 303 303 304 304 302 301 303 310 314 316 314 306 301 304 304 305 304 303 305 308 308 308 308 307 306 306 306 307 309 310 311 312 314 313 315 313 316 317 317 317 319 318 318
301 302 303 303 302 303 304 303 303 302 301 308 312 314 313 305 302 305 304 304 302 303 298 306 309 309 309 308 308 308 308 309 310 311 312 313 312 315 314 314 314 318 316 317 318 318 322
301 300 301 301 301 301 302 303 302 302 303 306 311 313 312 306 307 306 306 304 302 307 300 304 309 309 310 309 308 309 310 311 313 313 312 313 313 315 313 316 316 317 316 316 316 317 320
300 300 300 301 301 299 300 300 302 302 303 305 310 313 311 304 304 306 307 302 306 301 300 307 309 310 310 310 310 310 311 311 312 314 314 314 314 315 316 316 316 315 317 316 316 317 320
299 299 299 299 299 299 300 300 302 302 301 305 308 312 310 303 303 307 305 306 303 303 304 307 310 310 310 310 310 311 311 312 314 315 315 316 315 314 313 317 315 317 317 319 320 318 320
298 298 298 298 298 298 298 298 298 301 300 305 307 309 306 303 306 306 305 302 306 303 306 307 309 309 309 310 309 310 311 310 311 311 308 313 317 314 314 314 317 315 314 317 319 318 315
298 298 298 297 298 298 298 298 298 300 301 304 308 306 303 306 307 303 306 300 302 304 307 310 310 309 309 310 310 310 311 310 310 311 310 311 313 312 313 313 314 315 314 311 310 309 311
297 297 297 297 297 297 297 297 298 299 301 308 309 305 305 306 306 305 303 305 303 306 309 309 309 308 308 310 310 310 311 310 311 312 310 310 311 312 313 312 313 312 310 313 310 314 314
297 298 298 298 297 296 296 297 298 299 300 304 305 305 305 307 305 307 303 301 306 309 309 309 310 309 308 309 308 309 311 311 311 312 309 308 308 311 310 312 314 312 313 310 309 310 311
296 297 298 298 297 296 297 297 298 299 299 302 302 303 305 305 306 306 303 304 308 309 311 310 310 311 309 308 308 308 311 310 311 311 311 310 308 307 313 311 311 313 313 309 309 310 305
296 297 297 297 298 296 297 297 297 299 299 300 302 302 305 305 306 306 305 306 308 309 309 310 311 311 308 308 309 309 310 311 311 310 310 309 307 303 307 308 309 313 313 309 307 306 306
296 297 297 297 297 297 297 298 299 299 300 301 303 304 305 305 305 304 304 306 310 310 309 309 310 310 311 310 310 308 313 312 311 311 310 309 306 306 306 308 309 313 313 312 309 305 309
296 297 297 297 298 298 298 299 298 299 300 304 303 303 305 306 305 304 304 307 309 310 310 308 309 311 312 312 311 311 313 313 312 311 310 307 307 304 308 310 310 310 311 312 309 310 309
297 297 297 298 297 298 298 298 297 300 303 304 304 304 303 303 306 304 304 306 309 309 308 308 308 310 310 309 309 310 311 313 312 310 310 306 307 306 306 307 308 310 309 310 310 311 310
297 297 297 297 297 298 298 298 299 300 303 304 304 304 303 303 304 304 304 306 309 308 309 308 307 308 309 308 309 310 310 310 311 310 310 308 305 304 305 304 306 308 307 307 309 308 310
296 296 297 297 299 298 298 299 299 300 305 304 304 304 304 305 303 304 304 305 309 308 309 308 308 307 308 309 310 310 310 310 309 308 308 307 306 302 302 304 305 306 304 306 307 308 308
296 297 297 298 298 298 299 299 301 301 304 304 304 305 303 303 302 304 305 306 309 308 307 306 308 309 308 310 308 311 310 310 309 305 309 307 307 308 304 302 305 308 305 304 306 308 306
296 297 297 297 298 298 297 300 304 302 304 303 305 302 302 302 299 299 304 307 308 306 304 307 308 308 308 305 308 309 309 308 309 309 307 308 306 305 310 307 311 305 306 306 305 306 306
297 297 297 298 298 298 297 301 303 303 303 304 302 301 301 298 297 300 303 306 307 304 303 306 308 308 308 304 306 306 304 305 307 308 310 311 310 311 307 305 305 303 306 305 306 304 306
297 297 297 298 298 297 301 303 304 304 304 304 300 301 300 298 297 299 300 302 305 306 304 306 307 307 304 307 306 304 304 304 304 304 305 308 309 308 308 311 307 305 306 304 302 305 306
297 296 298 298 298 300 302 305 304 305 304 303 299 300 301 301 297 297 299 301 304 304 307 304 303 303 305 300 302 301 304 300 302 305 302 307 304 304 305 305 303 304 304 305 305 305 303

GFSGBSN_850_thetae_084.txt.gz
Theta_e
308 308 309 310 311 313 315 317 319 320 320 320 321 322 319 316 311 307 306 308 307 307 307 307 309 308 304 305 305 303 305 304 304 303 305 307 308 308 309 309 310 310 314 315 317 317 320
307 307 306 308 308 309 310 313 317 318 319 319 320 321 320 318 314 308 307 308 307 306 307 306 307 307 307 306 304 304 305 304 304 304 305 306 308 308 308 309 310 313 313 316 317 319 319
306 305 306 306 306 307 307 308 311 315 315 319 318 318 318 318 315 309 308 307 306 305 306 306 307 306 307 306 305 304 304 304 304 304 305 306 306 308 309 310 310 311 315 316 317 316 317
304 304 304 303 304 304 306 307 307 310 312 314 316 317 318 319 315 310 306 302 304 306 304 306 304 307 306 306 306 306 305 305 305 304 305 307 306 308 310 312 314 313 315 317 316 317 315
304 303 303 303 304 304 304 305 306 306 308 310 313 314 318 318 315 310 304 302 303 305 305 307 306 306 305 306 307 306 305 305 305 305 308 307 307 308 311 314 315 315 318 316 316 318 316
303 302 302 302 303 303 304 304 304 305 305 306 311 311 315 317 314 307 303 302 303 304 306 305 307 306 305 307 305 305 304 304 305 305 308 308 309 308 307 315 317 319 316 315 317 319 316
302 302 302 302 302 302 303 303 302 303 304 301 307 311 315 316 313 308 303 304 307 307 304 307 306 306 307 307 304 305 304 305 305 308 309 309 312 312 309 314 314 314 315 316 316 317 318
302 301 301 302 302 302 302 302 303 303 303 304 304 311 315 314 312 308 304 304 306 305 303 305 305 306 306 307 304 305 306 307 308 310 309 310 312 313 312 312 313 316 315 315 315 317 317
301 301 301 301 300 301 302 301 302 303 303 302 302 307 312 313 311 306 304 304 305 303 304 307 308 308 308 307 306 308 307 307 309 310 310 312 312 313 314 313 315 318 317 316 317 316 317
299 300 300 300 300 301 301 301 302 302 302 302 302 304 308 311 309 305 305 305 304 303 299 306 308 308 309 308 308 308 308 308 311 311 311 313 312 313 314 315 313 319 316 317 317 317 321
300 299 299 299 299 299 299 299 300 301 300 300 301 302 306 310 307 306 306 305 303 306 302 303 308 309 310 308 308 311 310 310 313 312 311 314 315 313 315 314 313 317 315 315 316 317 318
300 300 299 299 299 298 299 299 300 299 299 299 301 303 308 308 308 305 306 304 304 303 304 307 308 309 310 309 310 310 311 311 312 313 311 313 313 315 314 316 315 315 315 316 316 317 320
299 300 299 299 299 298 298 299 299 298 298 297 300 302 302 307 308 304 306 304 302 305 304 306 309 309 309 309 309 310 311 312 314 315 315 310 315 314 314 316 316 316 315 319 320 318 320
298 299 298 298 298 299 298 298 298 298 297 298 300 302 303 305 304 304 304 303 304 303 305 306 309 308 309 309 308 309 310 310 311 309 309 313 317 314 314 315 317 315 315 317 319 318 317
298 298 298 297 298 298 299 298 297 297 296 299 300 305 304 307 306 306 305 306 303 304 306 309 308 308 309 309 309 309 310 310 310 310 309 310 317 312 313 313 314 316 312 310 310 309 310
298 297 297 297 298 298 298 297 297 298 297 299 299 305 307 305 306 304 304 306 304 304 307 307 308 307 307 308 309 309 310 310 311 311 308 310 314 312 312 313 313 313 311 314 311 314 314
298 298 297 298 298 297 297 297 297 298 298 300 300 304 305 306 305 303 307 305 305 307 308 308 308 308 306 308 307 308 310 311 311 311 307 307 308 312 310 313 314 312 312 309 309 309 312
297 297 297 297 297 297 297 297 297 298 299 299 300 303 306 305 304 305 307 304 306 308 310 309 309 309 307 307 307 308 310 310 310 309 310 308 306 310 313 311 310 312 311 308 309 310 303
297 296 297 297 297 297 297 297 298 298 299 298 300 301 305 305 307 308 305 306 306 309 309 309 310 310 307 307 308 309 311 310 310 309 310 308 306 303 307 307 308 312 312 307 305 305 306
296 297 297 297 297 297 297 297 298 298 299 299 300 303 304 304 304 305 306 305 307 309 309 309 310 309 308 308 309 308 312 312 311 311 310 307 305 306 306 308 309 313 313 310 308 303 308
296 297 297 298 297 298 297 298 298 299 299 299 300 303 304 305 305 304 303 304 309 310 310 308 309 311 310 310 310 310 312 312 311 311 308 306 307 303 307 308 309 310 311 311 307 308 309
296 297 297 298 298 298 298 298 299 299 299 299 302 303 303 301 305 303 303 304 307 310 309 308 310 311 309 309 308 309 310 310 311 309 308 304 306 305 305 305 306 309 309 309 310 311 310
296 297 298 298 298 298 298 298 299 300 299 300 303 303 303 302 304 305 303 304 307 308 308 307 307 308 310 309 308 308 309 309 309 309 308 306 304 304 305 303 305 308 307 307 309 308 309
297 297 297 298 297 297 298 299 300 300 301 301 304 304 304 305 304 305 303 303 308 308 309 306 308 308 307 309 310 310 309 308 307 305 308 307 304 301 301 303 304 306 304 305 307 308 307
297 298 297 297 297 297 298 299 299 301 303 302 303 304 304 303 302 303 303 303 307 307 306 306 308 308 309 310 309 312 311 312 308 305 307 307 306 307 303 301 304 307 304 304 306 306 305
298 297 297 297 297 298 299 298 300 302 303 303 304 304 302 301 300 299 302 306 307 304 305 307 307 307 308 306 308 310 310 309 309 308 308 305 307 307 309 306 310 305 305 305 305 305 306
297 297 297 297 298 298 298 298 302 303 303 304 304 304 301 299 297 299 302 306 306 304 302 306 308 308 307 304 309 306 304 304 307 308 309 310 311 312 311 305 305 303 305 304 305 304 306
297 297 297 298 298 298 299 302 302 303 303 304 303 302 301 299 297 298 299 303 305 306 304 306 307 307 305 306 307 305 304 303 304 304 305 306 305 309 310 310 305 304 305 305 302 304 306
296 298 296 298 298 300 303 304 304 303 303 304 304 304 302 302 297 297 298 300 302 303 306 305 303 303 305 300 301 301 303 299 301 305 301 306 303 303 304 304 302 303 303 304 305 305 304

GFSGBSN_850_thetae_087.txt.gz
Theta_e
307 307 305 306 307 306 306 307 307 308 311 315 318 319 320 320 318 317 315 311 307 305 306 307 306 309 308 305 305 305 303 305 304 304 302 305 307 308 308 308 308 309 308 309 311 314 315
305 304 305 306 306 305 306 306 306 306 307 311 315 318 318 318 318 317 315 310 308 303 306 306 306 308 307 307 306 303 303 304 304 304 303 304 306 307 308 308 309 309 308 306 305 313 315
304 304 304 304 304 304 304 305 305 305 305 306 311 315 315 316 318 318 315 309 305 304 303 306 306 307 306 306 306 305 304 305 304 305 304 303 306 306 305 308 308 309 310 307 306 315 317
304 303 304 303 303 304 303 305 303 304 306 305 302 309 311 314 317 317 314 307 302 302 304 306 305 305 307 306 306 306 305 305 305 305 304 304 307 306 305 306 310 310 308 311 314 316 315
303 303 303 303 303 303 303 303 302 302 303 305 304 303 309 312 315 316 313 305 302 303 304 306 305 305 306 306 306 305 305 305 305 304 305 307 307 307 308 310 312 310 311 315 316 316 316
303 302 302 303 302 302 303 302 302 303 303 305 302 302 308 310 315 315 312 304 304 304 304 306 306 305 305 306 306 304 304 304 304 305 306 308 308 310 309 310 315 314 314 316 317 318 317
301 301 301 301 301 301 302 302 301 302 302 302 303 302 308 311 314 315 311 304 306 307 306 306 306 306 306 307 305 304 305 305 305 307 309 309 311 312 311 311 313 313 315 316 317 318 317
302 301 300 301 301 301 301 301 301 301 301 301 301 301 303 310 311 313 310 304 306 305 304 305 306 306 306 306 305 306 304 307 308 309 309 310 312 310 309 311 315 315 316 317 318 317 315
302 301 301 301 300 300 300 300 300 301 300 300 299 301 303 304 309 310 308 304 305 305 303 305 305 306 307 307 307 308 307 307 308 310 309 312 311 312 311 312 316 314 316 315 316 316 316
301 301 301 301 300 300 300 299 299 300 299 299 299 298 300 304 307 309 306 304 305 303 301 307 308 308 308 307 308 309 307 308 309 311 310 312 312 313 313 315 315 317 315 315 316 317 318
301 300 300 300 300 299 299 298 299 298 298 296 298 297 298 302 306 306 306 305 304 305 309 305 308 308 309 308 308 311 310 309 311 311 312 314 314 313 313 314 311 317 316 316 316 317 319
301 300 300 299 299 298 298 299 299 299 297 296 296 298 299 302 305 306 306 304 303 305 308 308 308 308 309 309 309 310 311 310 311 313 311 313 313 314 314 314 314 315 316 316 316 317 319
301 301 299 299 298 298 298 298 298 298 298 298 298 298 300 300 303 306 305 303 306 309 305 308 309 308 308 309 309 310 311 313 313 313 315 310 313 314 314 316 315 315 316 317 316 316 320
300 299 298 298 298 298 298 298 298 298 298 298 298 299 300 300 303 304 302 305 307 305 307 306 308 307 309 308 308 309 310 312 310 308 312 314 318 314 314 315 316 314 314 316 319 318 319
300 299 297 298 298 298 298 297 298 298 298 298 299 300 301 302 303 304 304 307 306 306 307 309 307 307 308 309 309 308 309 310 309 309 311 312 317 313 313 313 314 316 315 310 310 309 314
299 298 297 298 297 298 297 298 298 298 298 298 299 299 301 304 305 304 304 307 306 304 307 307 307 306 307 308 308 309 310 309 310 310 307 310 315 312 312 313 313 313 311 313 311 314 313
299 297 297 298 297 297 297 297 297 298 298 300 299 299 305 305 304 303 307 303 305 306 307 307 307 306 305 307 306 308 309 310 310 309 306 306 309 312 310 313 314 312 312 309 310 309 314
298 297 297 298 297 297 298 297 298 297 299 300 299 301 302 304 302 303 307 304 306 308 308 307 307 307 305 306 306 307 310 309 310 308 309 308 306 311 313 310 308 311 311 307 313 312 305
297 296 297 298 297 297 298 298 298 298 300 300 299 300 302 304 306 306 306 305 306 308 309 308 310 308 306 306 307 308 310 310 310 308 309 308 306 306 307 307 308 312 311 306 305 306 307
296 296 297 297 297 297 298 298 298 298 299 300 300 302 303 302 303 306 307 306 306 307 308 308 308 307 307 308 305 309 311 310 310 310 309 306 304 306 306 308 308 312 312 308 307 306 309
296 296 297 297 297 297 298 297 298 299 300 300 299 302 303 305 304 305 305 305 307 309 309 307 309 309 308 309 309 310 311 311 310 309 307 305 306 303 305 306 309 310 311 311 308 307 309
296 297 297 297 298 298 297 297 298 299 300 300 300 303 302 302 304 304 304 306 307 309 309 308 309 309 308 308 308 308 309 309 310 307 307 304 306 305 305 305 305 309 309 309 310 309 309
295 297 297 298 297 297 297 297 299 299 300 300 301 303 303 301 303 305 306 304 307 308 307 306 308 307 309 308 307 308 308 308 308 308 307 305 304 304 306 303 304 308 307 308 309 308 308
296 297 297 297 298 297 298 298 299 300 300 300 302 302 304 305 305 306 304 303 305 308 308 306 308 308 307 309 309 309 308 307 307 305 307 305 303 301 302 302 305 305 303 305 306 307 306
296 297 297 297 297 298 298 299 299 300 302 303 302 304 304 304 303 302 303 303 307 307 305 306 308 307 309 309 307 308 308 309 307 307 307 306 306 305 304 302 304 306 305 305 306 306 305
296 297 297 297 298 299 299 298 300 302 303 303 303 304 305 301 299 297 302 304 307 307 305 307 306 307 308 305 306 310 308 308 308 308 308 306 306 306 307 306 310 304 304 304 304 305 305
296 296 297 298 298 299 299 301 302 302 303 303 304 303 302 298 297 299 302 305 305 305 303 306 308 308 309 305 308 306 303 304 307 307 310 310 310 310 310 308 305 303 304 304 306 304 306
297 296 297 298 299 299 302 303 303 303 303 304 303 301 301 299 297 298 299 302 304 305 304 306 308 308 305 308 307 304 303 302 303 303 306 306 305 306 308 306 305 303 304 305 303 304 306
296 297 296 297 298 302 304 304 304 304 303 304 303 301 301 302 298 298 299 300 301 303 306 305 304 304 306 300 300 300 303 299 300 304 301 305 302 303 304 304 301 303 304 304 305 306 306

GFSGBSN_850_thetae_090.txt.gz
Theta_e
305 305 305 305 305 306 305 306 306 306 306 306 307 312 315 317 320 320 318 317 316 309 308 307 307 306 308 308 307 306 305 304 306 305 305 305 306 307 307 308 308 309 310 309 307 306 308
304 304 304 304 304 304 304 303 305 303 303 306 306 305 312 315 316 316 318 318 315 311 307 306 306 306 309 309 307 306 303 304 305 305 306 306 305 307 308 307 309 309 309 309 307 308 308
304 304 304 304 305 304 304 304 302 303 304 304 305 305 302 310 313 314 316 317 315 307 303 306 306 307 307 307 306 306 305 305 305 305 306 306 305 307 307 307 307 309 311 310 309 307 309
304 303 304 304 304 302 302 303 302 302 303 304 305 305 304 304 309 312 316 316 313 304 303 306 306 306 306 306 306 306 306 306 305 305 305 306 306 307 308 307 307 311 310 312 310 307 306
304 303 303 303 303 303 302 302 302 301 303 302 303 302 303 306 308 313 316 316 309 305 306 305 305 305 307 306 305 306 304 306 306 306 305 306 307 308 308 307 311 311 312 312 310 312 312
303 303 302 302 302 302 301 302 301 301 301 301 300 301 301 306 309 313 314 313 305 305 306 306 306 306 306 306 307 304 304 304 306 306 307 307 309 310 309 311 314 314 311 311 312 316 317
303 303 302 302 302 302 302 301 301 301 301 300 299 300 300 303 311 312 313 308 306 306 306 307 307 308 306 306 306 304 304 305 306 307 308 309 311 311 313 312 313 312 312 317 316 317 318
303 303 302 302 301 302 301 301 301 300 300 301 299 297 298 301 305 309 309 306 306 305 307 306 306 307 306 306 307 305 304 308 309 310 309 310 311 312 310 310 312 312 315 317 317 317 317
303 302 302 302 301 301 301 300 300 300 300 300 299 297 296 299 301 306 307 309 305 305 306 305 305 306 306 306 308 308 307 308 308 309 311 313 312 311 312 312 315 316 315 318 319 317 317
302 302 302 301 300 300 299 299 299 299 299 299 299 298 298 297 301 305 306 307 305 303 308 308 307 307 307 308 309 308 307 308 309 311 311 313 312 312 314 315 315 316 316 317 317 320 321
302 302 301 301 300 299 299 299 298 298 299 299 299 299 299 298 301 304 306 304 305 304 314 309 308 308 308 309 310 310 308 308 311 312 312 313 313 313 314 314 314 317 316 317 318 319 320
302 302 301 300 299 299 299 299 298 299 299 299 298 297 298 298 300 302 305 305 303 309 312 309 309 310 310 310 310 311 311 309 310 313 311 313 313 314 313 313 312 317 318 318 318 319 323
304 302 301 300 299 298 298 299 297 299 299 298 297 297 297 299 301 302 304 303 309 312 306 310 310 310 311 311 311 312 313 314 314 316 316 312 313 314 314 316 316 317 318 321 322 324 322
304 302 300 299 299 298 298 297 298 299 298 298 298 298 300 300 300 301 302 304 312 308 307 308 310 310 311 310 310 311 312 313 308 308 315 319 319 314 314 315 317 317 317 320 321 322 322
303 301 299 298 299 299 297 298 298 298 298 298 299 300 299 300 300 302 302 310 313 308 308 310 309 310 310 311 310 311 313 313 312 313 315 317 317 312 314 315 316 317 316 313 316 316 319
304 300 297 298 298 298 297 298 298 298 298 299 300 299 299 301 301 303 304 310 308 307 308 309 310 309 311 311 311 312 313 312 313 311 311 313 317 313 315 314 315 315 313 317 317 319 319
301 300 298 298 297 298 297 298 298 298 298 300 299 299 303 303 303 302 308 310 307 307 308 308 308 309 309 310 310 311 312 312 312 312 310 311 315 315 314 316 316 316 315 313 314 314 318
301 299 297 298 297 297 297 298 298 298 299 300 299 301 301 304 303 302 308 307 307 307 307 308 309 308 309 309 310 311 313 313 311 310 313 311 314 317 315 312 310 313 315 312 316 315 312
301 297 297 297 297 298 298 298 298 299 300 300 299 299 303 304 308 308 307 307 306 308 309 310 312 310 308 309 310 311 313 311 310 312 312 311 313 317 316 313 312 315 313 311 311 313 312
300 296 297 297 297 298 298 298 297 299 300 299 299 303 301 302 304 306 308 307 308 306 308 309 310 309 309 311 310 312 313 312 311 311 308 308 310 312 315 313 313 315 314 313 313 320 314
298 296 297 297 297 297 297 296 298 299 300 299 299 302 302 307 306 306 306 305 308 308 309 308 311 310 310 311 312 313 313 312 312 310 310 311 312 310 310 309 312 313 314 314 314 311 315
295 296 297 298 297 298 298 298 298 299 300 300 300 303 303 303 304 306 305 306 308 307 310 311 312 310 310 311 311 312 313 312 312 312 311 310 313 310 311 309 309 312 312 313 313 311 313
294 296 297 297 298 298 298 298 299 299 300 300 301 302 303 301 304 306 307 306 307 308 308 307 310 311 312 310 309 310 310 310 311 312 311 311 313 314 314 309 309 313 310 312 312 312 313
295 296 297 297 298 298 299 300 299 299 300 300 301 301 304 305 304 305 304 305 306 309 309 308 308 311 307 309 309 310 310 310 310 310 309 311 311 311 314 311 316 309 306 307 310 310 311
296 297 296 297 298 299 300 300 300 301 301 300 302 302 304 305 304 304 304 305 306 308 308 308 307 306 308 308 312 312 311 310 310 310 310 310 311 312 315 313 310 309 307 308 309 309 308
296 297 297 297 298 300 302 302 301 302 302 301 302 303 304 304 302 298 303 304 308 307 309 308 307 307 307 309 311 312 311 311 310 311 310 308 309 311 311 313 312 309 306 304 306 310 307
296 297 297 297 299 302 304 303 303 303 303 303 303 304 302 300 298 299 304 305 306 306 308 308 308 308 309 311 311 310 311 307 311 311 311 312 311 312 311 312 310 308 306 305 309 309 308
296 297 297 296 298 304 304 304 303 302 303 303 303 303 300 299 298 299 300 303 304 306 309 307 309 309 310 312 311 309 309 308 309 308 311 312 311 311 310 311 311 305 306 308 307 304 307
296 296 296 296 302 305 305 304 303 303 303 303 301 301 302 301 299 299 300 301 303 303 304 305 306 307 308 310 307 306 308 306 307 310 304 311 309 309 310 309 305 305 306 304 305 307 306

GFSGBSN_850_thetae_093.txt.gz
Theta_e
305 305 305 305 305 305 305 305 305 303 304 305 305 307 305 307 312 314 317 319 318 316 315 311 307 308 307 309 310 307 306 306 308 308 306 306 307 307 308 307 307 309 309 308 309 310 310
305 305 305 304 305 305 304 303 304 304 304 304 305 306 305 305 306 312 314 316 317 316 316 309 306 307 309 309 309 307 305 305 306 307 307 307 307 306 306 307 308 308 309 310 310 310 310
305 305 304 304 304 304 304 303 303 303 303 303 304 304 305 304 305 304 309 315 316 316 312 305 306 307 308 308 308 307 306 305 306 306 307 306 307 306 306 307 307 308 309 310 311 310 311
305 305 305 304 304 303 303 302 301 301 302 302 302 301 301 302 304 306 305 311 315 315 308 304 306 308 309 308 308 308 307 307 307 306 307 307 307 307 306 306 307 309 309 312 311 311 310
305 305 304 304 303 303 303 303 302 301 301 301 300 301 300 301 302 307 307 310 313 311 307 306 306 309 309 308 306 307 307 307 307 307 307 307 307 307 309 309 310 310 313 313 311 310 310
304 304 304 303 303 302 303 302 302 301 301 299 299 299 299 300 301 310 312 312 309 307 306 307 307 308 307 308 308 307 306 306 306 306 306 307 307 310 310 310 313 315 314 313 312 313 313
303 303 304 303 303 303 302 301 300 301 300 300 301 300 296 299 301 303 308 309 308 306 307 309 309 308 308 308 307 307 306 307 307 307 308 308 312 313 313 311 312 313 314 315 313 314 316
303 304 303 303 303 303 301 301 300 300 299 299 300 300 295 298 300 301 304 306 307 305 308 308 308 308 308 308 308 307 307 308 308 310 310 311 313 311 312 312 313 314 314 315 316 317 317
304 304 303 303 301 302 301 300 300 300 298 299 300 300 299 294 296 303 303 305 306 305 306 308 308 308 308 307 309 309 307 308 309 309 310 312 313 312 311 313 314 314 314 317 319 317 318
306 305 304 303 302 301 300 300 299 299 298 299 299 299 299 297 300 303 303 306 306 305 310 310 308 307 308 309 310 310 309 309 309 310 311 312 312 313 313 314 315 317 315 317 318 319 321
308 307 304 303 301 300 299 299 299 298 298 299 299 298 297 297 300 302 304 305 305 304 315 310 308 308 309 310 311 310 309 310 311 312 313 315 314 313 314 315 315 317 315 318 318 320 319
309 309 305 302 299 299 299 299 298 299 299 299 298 298 297 299 301 300 302 305 304 310 315 311 309 310 311 311 311 311 310 309 311 312 313 314 312 312 313 313 314 316 317 317 319 319 324
309 310 304 300 298 298 299 298 299 299 299 298 298 298 298 299 299 301 303 303 309 313 309 310 310 310 312 313 313 313 313 313 314 317 316 313 312 311 312 314 317 318 319 322 325 324 323
310 305 300 297 297 299 298 298 299 299 299 298 299 299 300 300 300 299 301 303 313 311 310 310 310 311 312 312 312 313 313 313 309 310 316 320 319 314 314 316 319 318 317 321 326 325 321
306 301 298 296 299 299 299 298 299 299 299 299 300 300 300 301 300 301 301 308 314 310 309 311 311 312 312 312 312 313 314 316 314 311 318 320 318 314 315 316 316 317 318 315 319 319 319
303 301 297 298 299 298 298 298 298 298 299 300 300 300 300 299 300 301 303 312 309 309 310 310 311 311 312 312 313 314 315 314 315 312 312 316 319 315 316 316 317 316 314 319 319 324 320
303 300 297 298 298 297 298 298 298 299 300 299 300 300 301 300 300 303 307 310 310 309 309 310 309 310 311 312 313 314 314 314 314 313 312 314 317 317 316 317 316 318 316 315 315 316 321
301 298 297 298 297 298 298 298 297 300 300 300 300 302 302 303 304 304 311 309 307 309 309 310 310 310 311 311 312 314 315 315 312 313 314 313 316 319 317 315 313 314 314 314 318 316 317
300 294 297 297 298 298 298 297 298 300 300 300 300 300 302 304 308 309 308 308 307 308 310 311 312 311 310 311 312 314 315 313 313 313 313 312 316 319 317 315 315 316 315 315 314 317 315
298 292 297 298 298 298 298 298 299 300 300 301 302 305 304 304 306 308 308 307 309 308 309 310 311 310 310 311 312 314 315 314 313 313 310 311 313 316 318 315 314 316 315 314 316 322 315
296 294 297 298 298 298 299 299 299 299 301 302 303 303 303 309 307 308 307 306 308 310 310 311 312 311 311 311 312 314 314 314 313 311 312 314 314 313 312 312 313 314 314 314 315 314 316
292 296 298 298 297 299 299 300 300 300 301 301 303 304 304 304 304 306 307 307 309 310 311 311 312 311 311 312 312 312 313 313 313 313 313 313 315 313 314 312 312 313 314 314 314 314 314
290 297 297 297 298 299 300 301 300 300 300 301 301 302 304 303 304 307 307 308 309 309 310 310 311 312 312 311 312 312 312 312 312 313 313 314 314 316 316 312 312 314 311 313 314 314 314
290 297 297 297 298 299 301 302 300 300 300 300 302 302 305 305 304 306 305 306 308 310 311 310 311 312 310 311 311 311 311 311 311 311 311 313 313 314 317 314 319 312 308 309 311 312 313
293 297 297 298 298 300 302 303 301 302 302 301 302 303 304 305 305 305 305 306 307 309 310 310 309 309 309 311 312 312 312 311 311 311 311 312 313 314 318 314 312 310 309 310 311 311 310
293 296 296 296 299 302 303 303 303 302 302 302 301 302 304 305 304 300 306 307 308 310 311 309 308 308 310 312 312 313 313 312 311 311 311 311 311 313 313 315 312 311 308 307 308 312 309
293 296 296 296 302 304 304 304 303 303 303 303 303 304 303 304 301 300 305 307 307 308 309 310 309 310 311 313 312 311 312 310 312 312 312 312 312 314 313 314 312 309 308 307 311 312 309
295 295 294 297 304 304 305 304 303 303 303 304 304 303 301 302 300 301 301 305 307 308 310 309 311 311 313 314 313 311 310 311 310 310 311 312 312 312 311 312 313 308 308 310 308 307 309
295 296 294 300 304 304 304 303 303 303 303 302 301 301 301 302 300 301 302 303 303 304 306 308 309 311 312 313 311 310 310 309 310 310 309 311 311 311 311 311 307 307 308 306 306 308 309

GFSGBSN_850_thetae_096.txt.gz
Theta_e
306 306 306 306 305 305 305 305 305 303 304 304 305 305 305 304 305 305 308 313 316 318 316 316 311 307 308 309 310 308 306 304 308 310 308 307 307 307 308 308 307 307 308 308 308 308 309
306 306 306 305 305 305 304 304 304 303 303 303 304 304 304 304 304 304 303 307 313 315 316 316 310 307 308 309 309 309 308 307 307 309 308 307 307 307 306 306 307 307 307 308 308 308 309
305 305 305 305 305 305 305 304 304 304 303 303 303 303 303 303 302 302 303 302 307 314 314 312 308 306 309 309 308 308 306 306 307 307 307 307 306 307 307 307 306 307 308 308 309 309 310
306 305 305 306 305 304 304 303 303 302 302 302 303 302 302 302 301 301 309 308 305 313 313 309 306 306 308 309 308 308 307 307 307 307 306 306 306 307 306 307 307 308 308 309 309 310 310
305 305 305 305 304 304 304 304 303 302 302 302 300 300 301 301 300 298 305 309 307 312 310 306 307 307 310 309 308 309 308 308 307 307 307 307 307 307 307 308 309 309 309 310 311 311 311
306 306 305 305 304 304 303 303 302 302 302 300 299 300 300 301 300 297 301 308 311 311 308 307 309 309 308 309 308 308 308 307 307 306 307 307 306 307 308 309 310 311 312 312 313 313 312
308 307 306 306 305 304 303 302 302 301 301 300 299 299 299 300 301 296 298 302 307 306 308 309 309 309 309 309 308 308 307 307 307 306 307 307 308 308 308 309 309 309 312 312 313 314 314
310 310 309 308 305 304 302 302 301 300 300 299 299 299 299 299 300 298 302 301 303 304 308 309 310 308 309 308 309 308 307 308 308 308 308 310 312 309 310 312 313 313 314 312 314 315 316
309 309 311 310 306 302 300 299 300 299 299 298 298 298 299 298 297 302 301 301 304 304 307 309 309 309 308 308 308 309 308 309 309 310 309 311 311 312 312 312 313 314 313 313 316 316 316
309 310 309 309 302 300 298 299 299 299 298 298 298 299 299 298 299 301 302 302 303 304 309 309 309 308 309 308 309 309 308 309 308 309 309 310 310 312 314 313 313 316 315 315 315 318 320
310 309 308 301 300 298 297 300 299 299 299 299 299 298 298 298 297 300 300 301 302 303 314 309 308 308 308 310 310 310 310 309 310 311 312 314 314 314 314 314 315 316 317 316 317 319 316
306 304 303 300 298 298 299 299 299 299 299 299 299 298 298 299 300 299 301 301 304 309 314 311 309 310 309 310 312 310 310 309 310 312 312 313 313 312 312 312 313 314 316 317 317 318 322
306 304 299 298 299 300 299 300 299 299 299 299 299 299 300 300 300 300 301 303 308 310 310 310 310 310 310 311 312 312 312 312 313 314 315 313 311 308 310 314 315 316 319 321 322 322 323
303 299 297 298 299 299 299 299 299 299 300 300 300 300 300 301 301 300 300 304 310 313 311 310 310 310 313 312 313 312 314 314 310 311 313 318 318 313 314 317 318 316 316 321 322 326 322
302 298 298 298 299 299 299 299 300 300 300 301 300 300 299 300 300 300 301 307 309 311 310 311 311 312 313 312 312 314 313 312 314 310 316 319 318 314 315 315 316 318 319 314 317 320 321
301 293 298 300 299 298 298 299 300 300 301 301 301 299 299 301 300 301 304 309 310 310 310 310 311 312 313 312 314 314 315 314 315 313 312 316 320 315 315 316 317 317 315 318 318 324 323
299 292 298 299 298 297 298 299 300 301 302 301 300 301 300 299 301 303 308 309 310 309 310 310 311 311 312 312 315 315 315 314 313 313 312 313 317 316 316 316 315 316 314 314 314 315 319
298 293 297 298 299 298 299 298 299 301 302 302 301 301 301 303 304 304 310 309 308 308 310 311 311 311 311 312 313 315 315 314 313 313 314 313 316 318 317 314 313 314 314 314 314 315 315
296 294 297 298 297 298 299 299 300 300 302 302 302 302 304 304 309 308 308 307 308 309 310 311 311 310 310 311 313 314 314 313 313 312 312 311 313 316 316 315 314 315 313 314 314 317 314
294 295 296 298 296 299 300 301 300 300 302 303 303 305 304 306 307 308 308 306 309 308 309 311 311 310 311 312 313 315 315 314 313 312 311 311 312 313 313 314 313 314 313 313 314 312 313
293 296 295 295 297 299 301 301 301 300 302 304 304 304 304 306 306 307 307 307 309 309 311 311 312 310 311 311 313 314 314 314 313 313 312 312 312 309 311 312 313 313 313 313 312 312 312
293 296 295 296 298 299 301 302 301 300 302 302 303 305 304 305 305 306 307 307 309 309 311 312 312 312 312 312 312 313 312 312 312 312 313 312 311 313 312 312 312 312 312 313 313 312 312
292 296 295 297 299 300 301 302 301 301 301 302 302 303 304 303 305 307 308 308 309 310 310 311 312 312 312 312 311 311 311 311 311 311 312 312 312 312 313 311 311 312 310 312 313 312 313
292 296 294 297 302 303 302 302 302 302 300 302 302 303 305 305 305 305 306 307 308 310 311 311 310 312 310 310 311 311 311 311 311 309 310 312 312 311 311 312 311 310 308 308 310 312 311
292 296 294 297 301 303 303 303 303 302 302 301 302 304 305 305 304 305 305 307 308 310 311 310 309 309 309 311 312 312 311 311 311 310 309 309 311 311 311 309 309 309 309 309 310 309 308
292 297 294 297 302 304 303 304 303 302 302 302 303 303 304 305 303 301 306 308 308 310 311 310 309 310 312 312 311 312 311 311 311 311 310 310 310 310 311 311 312 310 307 307 307 309 309
292 297 294 299 304 304 305 304 303 303 302 303 302 304 303 304 301 302 304 306 307 308 309 310 310 310 312 311 311 310 309 310 311 311 311 311 310 310 311 311 311 308 308 307 309 309 309
291 297 294 302 303 304 304 303 303 303 303 304 304 303 302 303 302 302 302 303 306 308 309 309 310 311 312 312 311 309 308 309 309 310 311 310 309 309 310 310 308 308 307 309 307 309 309
291 296 294 303 303 304 303 303 303 303 303 302 301 301 300 302 303 303 303 304 304 304 303 309 309 311 310 310 309 308 308 307 308 308 308 309 308 308 309 309 307 307 307 306 307 309 309

GFSGBSN_850_thetae_099.txt.gz
Theta_e
307 307 306 306 306 306 305 306 305 305 305 305 304 304 304 304 304 304 303 301 305 313 316 316 316 310 307 308 309 308 305 304 308 310 311 309 307 307 307 306 306 307 307 307 307 308 308
307 306 307 306 306 306 306 305 305 304 303 304 304 304 303 303 303 303 302 303 307 308 314 315 314 309 307 309 309 310 307 307 307 310 308 307 307 307 307 305 305 306 306 306 306 307 307
308 308 307 306 306 305 306 305 305 304 303 303 303 303 302 302 302 301 302 304 308 302 313 314 313 308 307 309 309 309 308 306 307 308 308 306 306 306 307 305 306 306 305 306 306 306 307
310 309 309 308 307 306 305 305 305 304 303 303 302 302 301 302 302 300 297 303 308 306 309 313 310 307 309 309 308 307 306 306 306 306 307 307 306 306 306 306 306 306 307 306 307 308 308
310 310 311 311 310 308 307 305 304 304 302 302 301 298 300 301 301 300 294 301 309 308 313 312 309 308 309 309 308 308 308 307 307 306 306 306 307 307 307 308 306 308 305 307 308 309 309
309 310 310 309 309 309 307 306 302 302 301 301 300 299 299 301 301 298 295 298 309 310 309 308 307 309 308 309 308 309 308 308 307 306 306 307 307 307 306 306 307 306 306 310 311 312 313
310 310 310 309 309 310 307 301 301 300 300 299 300 300 298 300 300 297 299 298 304 308 307 308 308 310 309 308 307 308 308 307 306 306 306 306 305 305 304 306 306 307 309 310 310 311 312
309 307 304 305 305 301 301 301 300 300 300 299 298 298 298 300 299 299 301 301 300 301 306 309 309 309 308 308 308 307 306 307 306 308 307 308 308 306 306 307 309 312 314 311 311 311 314
306 301 302 301 301 300 300 300 300 300 299 299 299 299 299 299 299 300 301 300 301 302 305 308 309 309 308 308 309 307 307 308 308 309 309 309 308 309 309 310 314 311 313 313 312 312 314
303 298 299 299 299 299 299 299 299 299 299 299 299 299 298 298 300 298 302 300 302 303 308 311 310 309 308 308 308 309 307 309 309 309 309 309 308 309 310 312 312 314 313 316 317 316 319
302 298 297 299 300 299 299 300 299 299 299 299 299 299 298 299 299 300 300 301 303 304 312 308 308 308 308 309 309 309 308 309 310 309 311 312 313 313 314 314 314 315 315 315 317 319 314
301 300 299 300 300 300 300 300 300 300 300 300 300 300 300 300 299 299 301 302 304 307 312 311 308 308 308 308 311 309 310 309 310 310 310 311 311 312 312 311 311 312 314 315 317 318 320
301 299 299 300 301 300 300 300 301 301 302 302 301 301 300 300 300 300 300 304 305 310 310 309 311 309 309 310 312 311 311 311 312 313 315 312 311 309 309 312 313 314 317 319 319 321 322
299 296 299 299 300 300 300 301 301 302 302 301 302 300 300 300 300 299 301 304 311 314 311 310 310 310 312 311 312 312 314 314 310 311 312 316 316 314 313 315 317 317 316 319 320 324 322
297 294 299 300 301 300 302 302 302 301 301 299 300 300 300 300 300 300 302 307 309 312 311 310 311 314 313 313 312 313 313 312 313 309 314 318 316 314 314 315 315 317 319 315 318 320 322
296 295 299 300 299 300 301 303 302 302 300 300 300 300 301 300 301 302 301 309 310 310 310 310 311 311 311 312 314 312 314 314 315 311 310 315 319 315 315 315 315 316 315 316 316 320 325
295 296 297 299 296 299 301 301 301 302 300 300 300 299 300 302 302 305 308 308 308 309 310 309 310 312 311 313 314 316 314 312 312 313 311 313 316 314 315 315 315 315 314 314 313 315 320
295 296 294 298 297 299 301 301 300 302 300 301 301 297 303 304 303 304 306 307 307 308 309 310 309 309 310 311 312 313 313 313 312 312 313 312 315 316 315 314 312 312 313 312 313 314 313
295 296 295 296 297 299 301 301 300 302 302 302 301 302 304 305 307 302 307 307 307 307 308 310 310 309 309 310 312 313 313 313 312 311 310 310 311 311 312 312 310 313 312 311 312 312 311
295 296 295 297 298 299 300 301 301 301 303 304 303 302 304 306 306 307 305 306 307 308 308 310 311 309 309 312 311 313 314 313 313 311 311 311 310 310 309 311 311 312 312 311 311 310 312
296 296 295 297 300 300 301 302 301 301 302 304 303 302 304 305 305 305 305 306 308 308 309 310 309 310 310 310 311 312 313 312 312 311 311 310 310 306 310 311 312 310 311 312 310 310 311
298 297 295 296 302 302 303 302 302 301 302 302 303 303 304 304 304 304 304 306 308 309 309 310 311 310 310 310 309 311 310 310 311 309 310 309 306 311 310 309 308 309 309 311 311 311 310
300 295 297 295 301 302 303 303 302 301 302 302 302 303 304 303 302 304 305 307 308 310 310 310 309 309 310 309 309 310 310 309 308 309 309 310 308 308 309 308 309 309 308 308 311 310 311
301 294 298 294 300 303 304 303 302 302 301 302 303 303 305 303 304 304 304 305 307 309 310 309 309 309 310 310 311 311 310 309 309 307 307 309 309 306 305 307 306 308 307 307 309 308 309
302 293 298 294 302 304 304 304 303 302 301 302 303 304 304 303 303 304 304 305 306 309 309 308 309 309 311 311 309 309 308 309 309 308 308 306 308 306 307 303 307 308 308 308 308 308 307
303 293 297 295 303 304 304 304 304 302 302 302 303 303 303 303 300 300 302 307 306 306 306 309 309 310 311 309 308 310 308 309 309 308 308 308 306 307 308 308 311 308 307 306 306 307 307
303 292 297 295 303 304 304 303 303 302 302 303 304 304 303 303 302 302 302 303 306 307 304 307 309 309 311 308 308 307 305 308 309 309 309 307 307 307 308 307 308 307 306 306 308 306 308
303 293 297 295 303 304 303 303 303 303 304 303 302 302 302 303 302 302 303 304 306 306 305 308 308 308 307 308 308 306 306 306 306 307 309 308 306 307 306 307 306 307 306 307 305 308 309
304 293 296 295 302 303 303 303 302 302 302 303 303 301 302 302 302 302 303 304 305 305 304 307 307 308 307 302 305 304 306 303 304 305 306 306 306 306 305 306 305 307 307 306 307 308 308

GFSGBSN_850_thetae_102.txt.gz
Theta_e
310 310 311 310 310 309 308 307 307 305 305 304 303 304 305 304 303 304 303 303 303 306 309 315 318 314 309 308 309 310 313 313 307 305 309 310 308 306 306 305 306 305 306 307 307 307 307
310 310 310 311 312 312 310 309 307 306 305 304 303 303 303 302 303 303 302 299 303 305 306 312 315 313 308 309 308 310 308 308 307 309 310 309 306 306 306 305 304 305 305 305 306 306 306
309 309 310 311 312 311 309 311 308 307 307 305 304 303 301 302 302 301 300 295 299 306 305 311 314 312 311 309 309 310 306 307 307 308 309 307 306 306 306 305 305 306 305 305 305 305 305
310 312 310 306 305 305 307 308 310 306 304 303 303 302 300 301 302 301 299 294 302 308 306 312 313 311 309 309 311 310 307 307 308 308 307 307 306 306 306 306 305 305 305 305 305 306 307
309 306 302 304 301 301 303 303 304 302 302 302 302 301 301 300 301 300 297 295 308 308 307 314 311 308 309 308 308 307 306 306 306 306 306 306 306 306 307 307 307 306 307 306 306 307 308
307 305 301 302 302 301 301 301 301 301 300 300 300 299 299 299 299 298 297 298 306 309 312 310 308 309 308 308 308 307 307 307 306 306 305 307 306 306 307 306 302 305 306 306 308 309 310
306 299 301 300 300 300 301 300 300 300 300 299 299 299 298 299 298 298 299 301 306 308 308 307 307 309 308 309 308 308 307 307 306 305 305 305 306 304 303 303 304 304 306 309 309 309 310
305 300 300 302 302 300 300 299 299 299 299 299 299 299 299 298 298 299 300 301 301 301 305 309 308 309 308 308 307 307 307 306 305 306 306 306 305 304 304 304 305 307 308 310 310 310 311
304 301 301 302 302 301 301 300 300 299 299 299 299 299 298 299 300 299 300 300 301 301 304 308 309 308 308 307 308 307 306 307 307 307 307 306 306 308 307 307 308 310 311 310 312 313 314
301 300 300 302 302 300 300 300 300 300 299 299 299 298 299 299 299 301 300 300 301 302 308 306 307 308 307 308 309 307 306 309 309 309 309 309 308 309 309 309 310 313 311 312 315 317 317
300 299 301 301 301 301 300 301 301 302 302 300 300 299 299 299 299 299 301 301 302 304 310 308 307 307 308 309 308 307 307 309 310 308 310 307 312 313 313 313 311 314 313 314 313 316 316
295 298 300 301 301 301 301 302 302 302 302 302 301 300 300 300 299 300 300 302 303 304 309 310 307 309 308 309 310 309 309 309 309 310 309 309 310 311 311 310 310 311 312 314 315 315 319
294 298 300 301 301 300 302 303 302 301 301 300 301 301 300 300 300 300 302 304 301 307 308 308 311 309 308 310 310 310 310 309 311 313 313 311 312 310 310 311 312 312 315 316 318 320 320
294 298 300 300 300 301 302 302 302 300 299 299 300 301 300 300 300 300 301 298 307 310 310 309 309 309 310 311 312 311 311 313 311 311 312 311 314 313 311 313 316 317 316 318 319 322 322
294 295 299 300 299 300 300 301 301 300 300 299 300 300 300 300 301 302 302 308 310 310 311 310 310 312 312 311 313 313 311 312 312 309 312 317 315 314 313 314 315 317 319 316 318 318 320
294 295 298 298 299 300 301 301 300 299 299 299 299 300 302 303 304 305 305 310 311 309 309 309 310 310 311 313 314 313 314 312 314 311 310 314 316 313 313 313 314 316 316 318 315 318 324
294 296 296 298 299 300 301 301 302 298 300 300 301 303 305 305 305 306 308 307 307 308 308 309 310 310 312 313 313 315 313 312 312 312 310 312 314 311 314 315 314 315 315 315 314 315 319
295 296 295 299 299 300 301 301 302 303 303 303 302 298 306 306 303 304 304 306 306 307 308 309 308 309 309 311 313 312 313 312 312 311 312 311 313 314 315 312 312 312 314 313 313 316 311
299 295 295 299 301 301 302 301 302 303 303 304 303 304 305 306 306 300 304 306 306 307 307 309 309 308 308 309 312 312 312 312 312 311 310 310 311 313 313 308 309 312 311 311 311 311 310
301 294 296 296 303 303 302 302 301 302 303 303 303 297 305 305 305 305 303 305 306 307 308 309 309 308 309 310 310 313 313 312 312 311 311 310 309 309 308 310 310 311 311 310 310 312 313
304 294 297 295 301 303 303 303 301 302 303 304 303 299 304 298 304 303 304 304 306 308 308 309 309 309 309 310 309 309 309 309 310 309 310 308 309 305 309 308 310 309 309 311 310 310 314
305 295 296 296 296 302 304 304 303 301 303 304 302 303 304 303 303 303 302 305 307 308 309 309 309 309 308 309 309 309 308 309 310 308 308 307 306 309 308 307 306 308 308 309 310 310 310
306 297 296 296 296 303 304 304 304 301 303 303 303 304 304 302 301 300 302 305 308 309 309 309 308 308 309 308 308 309 308 307 307 308 307 308 307 306 307 307 307 307 307 307 309 309 309
306 300 295 296 297 304 304 304 304 302 302 304 304 304 303 300 301 302 303 304 306 306 309 309 308 309 309 310 311 309 309 308 307 306 306 308 307 304 303 304 303 306 306 306 307 307 308
306 303 294 297 299 304 304 305 304 302 302 303 304 304 304 299 300 302 302 304 305 308 308 308 309 309 310 310 307 307 306 306 307 307 307 305 306 305 306 301 305 307 307 308 308 309 307
307 304 294 297 300 304 304 303 303 302 302 303 303 303 303 303 300 300 301 303 304 304 305 308 310 310 311 306 306 309 308 308 308 306 305 306 304 305 306 307 310 307 306 305 305 305 306
307 304 293 297 299 303 303 303 303 302 303 303 303 303 302 303 302 302 301 302 305 305 303 305 308 309 309 305 307 306 304 306 308 308 308 306 305 307 307 306 306 305 306 306 306 303 307
307 305 294 297 297 303 303 303 303 304 302 302 301 302 302 302 302 302 303 304 305 305 304 306 306 306 306 306 307 305 304 304 305 304 308 306 305 306 305 306 305 306 305 305 304 307 308
307 305 296 296 296 303 303 303 303 303 303 304 302 302 302 303 303 302 303 304 304 305 305 305 306 306 305 300 303 302 305 301 302 304 304 306 305 305 304 305 304 306 306 306 308 308 308

GFSGBSN_850_thetae_105.txt.gz
Theta_e
311 310 308 305 304 303 303 303 304 308 308 308 307 305 303 302 304 302 303 303 302 303 306 309 313 316 315 310 309 314 309 314 315 310 306 311 309 307 306 305 305 305 305 306 306 306 306
308 307 304 305 302 303 303 303 306 306 312 306 306 305 304 300 300 302 303 303 299 298 304 310 314 316 314 311 310 314 313 314 309 307 310 310 308 307 306 305 304 304 305 305 305 305 305
307 306 303 304 303 302 302 302 301 304 305 307 303 304 302 301 300 301 301 300 295 300 304 305 312 312 311 310 309 312 313 308 307 308 310 308 306 306 306 305 305 305 305 304 304 305 304
306 303 302 302 304 303 302 301 301 301 301 301 301 302 301 301 299 300 299 298 297 307 308 304 313 312 309 309 309 310 311 308 309 309 309 307 306 306 306 305 304 304 304 304 304 306 306
304 302 302 303 303 303 303 301 300 300 301 301 301 301 300 299 298 298 298 297 307 308 308 309 312 310 309 309 310 310 307 307 308 307 307 306 306 305 306 304 302 303 299 305 305 306 306
302 301 303 304 303 302 303 302 301 301 299 299 299 299 298 298 298 298 298 298 308 308 310 312 310 310 308 309 310 307 306 306 306 305 305 306 305 304 304 305 299 303 304 305 306 307 308
302 301 303 303 303 302 302 301 301 301 301 300 299 298 299 298 298 298 298 302 308 308 308 309 309 310 309 308 308 307 306 306 306 305 304 305 305 302 301 302 302 303 304 304 305 306 308
301 301 303 302 303 302 302 302 302 302 301 300 299 299 298 299 298 299 300 301 302 303 308 308 309 309 309 308 307 307 307 306 306 305 305 305 304 303 303 303 304 305 306 307 307 308 310
300 301 302 302 302 303 302 302 303 302 302 300 299 298 299 298 299 299 301 301 302 303 307 307 309 308 308 308 307 307 307 306 305 306 305 304 305 307 305 305 305 306 307 307 309 309 311
298 301 302 302 302 303 303 303 303 302 302 301 300 299 299 299 299 300 301 302 301 303 308 306 308 308 308 307 308 307 307 307 308 308 307 307 306 307 308 307 307 308 308 309 311 314 317
297 300 301 302 302 302 301 303 302 300 300 302 302 300 300 298 299 300 300 302 303 303 309 304 306 306 307 308 307 307 306 308 310 308 309 305 308 310 312 312 309 310 311 312 313 315 314
295 299 302 303 304 302 299 301 301 299 300 301 301 300 300 299 300 300 301 302 302 300 309 309 306 309 308 309 310 308 308 307 309 309 309 308 309 309 310 310 310 311 310 311 312 313 316
296 299 301 303 303 303 301 299 301 299 300 301 300 300 300 300 300 300 303 303 298 306 307 308 309 308 309 310 309 310 310 309 310 312 311 311 311 311 310 311 311 311 314 315 314 320 319
296 297 301 301 303 301 302 300 299 300 300 300 300 300 300 300 301 302 302 299 306 310 310 308 308 308 310 310 310 310 311 312 308 311 313 310 308 312 311 312 316 316 317 317 318 320 320
296 296 299 300 300 301 302 302 299 299 299 299 300 304 305 304 305 304 302 307 308 311 310 309 311 311 311 312 312 313 311 313 312 310 310 316 311 313 312 313 315 317 318 316 318 317 319
296 296 297 299 300 301 301 302 300 301 302 302 303 303 306 305 306 307 304 310 309 309 309 309 310 309 311 311 311 311 314 312 313 309 310 314 316 312 313 313 313 315 316 318 316 318 321
300 296 296 301 300 301 301 302 303 303 304 304 305 305 306 306 306 306 306 307 307 307 308 309 309 310 311 312 312 314 312 311 312 311 310 312 314 313 313 314 314 316 317 316 316 316 319
304 295 296 299 302 303 302 301 302 303 304 304 305 301 306 306 304 301 303 305 306 307 308 308 307 308 309 311 313 312 312 311 311 310 312 311 313 314 314 312 311 312 313 313 315 315 311
306 298 296 295 302 302 303 302 301 303 303 303 304 305 305 306 302 299 302 305 305 306 307 308 309 308 307 309 312 312 311 311 311 310 310 309 310 313 311 309 311 311 310 310 310 310 312
307 304 295 297 295 302 303 304 301 302 303 303 303 298 304 305 304 303 303 304 305 307 308 308 308 307 308 308 307 310 310 311 311 310 311 309 307 309 308 311 310 310 310 310 311 314 315
308 306 296 297 295 300 304 304 304 301 303 303 303 299 303 298 301 301 302 304 306 307 308 309 308 308 309 309 308 308 308 307 309 308 309 307 309 305 308 308 308 308 308 311 312 311 316
308 307 300 296 296 302 304 304 304 301 303 303 303 302 303 302 302 301 300 304 307 307 308 309 309 308 307 309 309 310 307 308 309 306 307 306 306 308 308 307 307 308 307 308 309 309 310
308 307 303 295 297 302 304 304 304 302 303 304 304 303 304 300 300 299 301 303 306 306 309 308 307 307 308 308 308 308 308 307 306 307 306 307 306 305 304 305 306 307 307 307 309 309 309
308 307 305 296 297 302 304 304 303 302 303 304 304 304 302 300 300 301 302 303 304 304 307 308 308 307 309 310 309 308 307 306 306 306 305 307 306 302 303 303 302 305 305 306 308 307 307
308 307 306 296 297 302 303 303 302 302 303 304 304 303 303 298 300 302 301 302 305 306 307 308 308 309 309 309 306 306 305 305 306 305 306 304 304 304 305 301 302 307 306 306 307 309 306
306 308 306 297 298 301 303 303 302 302 303 303 303 303 303 300 299 302 302 302 302 303 303 307 308 309 309 304 304 308 306 307 306 304 304 303 302 305 305 306 307 305 305 305 304 305 305
305 308 306 298 297 300 303 303 303 303 303 303 303 303 302 302 301 302 302 303 304 304 302 304 307 308 308 303 307 305 303 304 306 306 306 304 304 305 305 305 305 303 305 305 306 302 306
304 308 307 302 296 299 303 303 303 303 303 303 301 301 302 302 302 302 303 304 304 305 303 306 305 305 305 305 306 304 303 303 303 303 307 305 304 305 304 306 304 305 305 305 303 306 307
303 308 306 304 295 297 303 302 302 302 303 304 303 302 302 302 302 302 302 303 304 305 305 305 305 305 305 300 302 301 304 300 301 304 301 306 303 304 304 304 303 305 304 306 306 307 308

GFSGBSN_850_thetae_108.txt.gz
Theta_e
306 304 303 304 303 304 304 303 304 302 305 306 309 309 304 305 304 302 303 304 300 301 299 304 308 311 314 313 311 314 313 314 314 314 310 309 309 307 305 305 305 305 304 305 305 305 305
304 303 305 303 304 305 305 303 303 303 302 304 304 303 303 301 301 302 302 300 299 295 300 305 309 312 314 312 311 312 314 315 312 309 309 310 308 306 305 304 304 304 305 304 304 305 305
303 303 304 303 304 304 304 304 302 303 303 301 302 303 302 300 299 299 299 298 297 296 301 307 312 313 312 311 311 311 312 313 311 307 310 307 306 306 305 304 305 305 303 303 303 304 304
303 303 303 303 304 304 304 304 303 302 302 302 301 301 299 299 298 298 298 298 303 307 306 306 311 311 309 310 310 310 308 309 308 310 309 307 306 306 305 305 303 303 302 302 302 305 305
302 303 303 303 304 304 303 303 304 303 301 301 300 298 298 298 298 298 298 309 310 309 308 309 311 310 309 309 311 310 310 309 308 307 307 306 306 305 305 301 300 301 298 304 305 305 305
302 303 303 303 304 305 303 303 303 303 302 300 300 299 298 299 298 298 298 308 309 308 309 310 311 310 309 310 310 307 307 307 306 305 305 305 305 302 302 300 299 301 298 303 304 305 306
302 303 303 303 303 306 304 303 302 303 302 300 299 299 298 299 298 298 299 307 307 309 308 309 309 308 309 309 308 306 306 306 305 305 303 305 302 299 301 301 301 302 303 303 303 304 305
300 302 302 303 304 304 305 304 301 302 303 299 299 299 299 298 299 299 300 304 303 306 308 309 309 309 308 308 307 306 306 306 305 304 304 302 302 302 302 302 303 303 303 304 305 306 307
298 302 302 303 304 304 305 300 300 301 302 301 300 299 299 299 299 301 301 301 305 306 307 307 308 309 308 308 308 306 307 306 306 305 305 303 304 305 304 304 304 303 304 305 306 306 308
297 300 303 302 304 304 303 299 300 300 300 300 300 299 298 298 299 300 301 302 304 305 302 305 306 306 308 308 307 307 307 307 307 306 306 304 304 305 305 306 305 308 305 306 307 310 313
298 299 302 302 303 304 304 299 300 300 299 299 299 299 299 300 300 300 302 302 304 304 307 306 306 306 306 308 307 307 307 308 309 308 308 305 306 308 310 310 308 309 308 310 311 314 313
297 299 300 302 303 304 305 302 299 300 299 299 299 299 300 301 301 301 303 304 305 301 308 308 306 308 307 307 308 307 306 307 307 309 309 306 307 308 308 309 309 309 310 310 310 312 315
296 297 301 300 301 303 304 303 299 299 300 302 304 304 303 303 302 303 303 304 300 303 306 309 308 308 309 310 309 309 309 308 309 310 308 309 310 310 310 311 310 310 313 312 310 319 316
297 297 299 301 300 300 301 301 302 302 301 301 304 305 305 305 304 303 303 298 304 309 309 307 307 308 309 309 309 310 309 310 307 309 311 309 306 311 310 311 315 315 317 316 317 315 317
300 297 298 303 302 301 302 301 302 302 303 302 301 305 306 305 306 305 303 304 310 309 308 308 308 310 311 311 312 310 311 311 312 309 312 316 312 312 311 312 313 316 317 316 318 317 318
306 297 298 299 304 302 301 302 302 303 303 304 303 305 306 306 307 307 304 308 308 307 308 309 310 309 311 311 312 311 313 312 313 310 309 313 314 311 312 311 312 315 314 317 316 318 318
307 303 296 298 298 304 303 301 302 303 303 303 305 305 306 306 308 307 306 307 306 307 307 308 308 310 311 310 312 313 312 310 311 311 310 312 313 311 312 314 313 315 317 315 314 316 318
308 306 297 297 296 297 303 304 302 302 303 304 305 299 306 307 304 300 301 304 306 306 307 307 307 307 309 310 312 312 311 310 311 309 311 310 311 311 313 311 311 312 313 314 315 317 313
309 307 303 296 297 296 302 304 304 302 303 303 303 304 306 307 301 298 301 305 305 306 307 307 309 307 307 308 311 311 310 310 311 309 309 310 309 313 311 311 311 310 309 309 310 310 311
308 308 306 296 297 297 303 304 304 302 303 303 303 297 305 306 303 302 302 303 305 307 307 307 307 307 308 307 306 309 308 309 309 309 310 308 307 309 311 311 309 310 309 311 310 313 314
306 308 307 299 297 298 304 305 304 302 303 303 303 298 301 298 301 301 301 303 305 307 307 308 307 307 307 308 307 307 307 306 308 307 308 306 309 305 307 307 307 308 308 310 313 311 316
302 308 307 303 296 299 304 304 304 302 303 304 303 302 302 301 302 301 300 303 305 305 307 307 308 306 306 308 308 308 307 306 308 305 306 304 306 308 308 307 307 308 307 309 309 310 312
300 307 308 304 296 300 304 304 303 302 303 304 304 303 302 299 299 299 301 303 305 304 308 308 306 306 308 308 307 307 307 306 304 305 305 305 305 305 305 304 304 306 308 308 309 308 309
300 304 308 305 296 299 304 303 302 302 304 304 304 304 302 300 299 301 302 303 304 303 306 308 307 307 309 309 308 307 306 305 304 304 303 305 304 302 303 302 301 304 305 305 307 307 306
301 302 308 306 297 298 303 304 303 303 304 304 303 303 303 298 299 301 301 303 304 305 306 307 308 308 308 308 305 305 303 304 305 304 304 302 303 303 303 300 301 305 305 306 307 307 305
302 302 307 307 299 298 303 303 303 303 303 303 303 302 302 300 299 301 301 303 302 303 303 306 307 308 308 303 303 307 305 306 305 303 303 302 301 303 304 305 304 302 305 304 304 305 303
309 303 305 307 302 297 302 303 303 303 303 303 302 302 302 302 301 302 301 302 304 303 302 303 307 307 307 303 306 305 303 303 305 305 306 303 302 304 304 304 303 302 304 304 306 302 305
315 305 304 307 305 296 299 303 303 303 303 303 302 302 301 302 302 302 303 304 304 304 302 304 303 304 303 304 305 304 302 302 302 302 305 304 303 302 302 304 302 304 304 304 302 305 306
315 311 303 307 306 298 297 302 303 302 303 303 303 303 302 302 302 302 302 303 304 304 305 305 303 304 304 300 301 300 304 299 299 304 300 304 302 303 303 303 302 305 305 306 305 306 307

GFSGBSN_850_thetae_111.txt.gz
Theta_e
304 304 304 305 304 304 305 305 304 304 303 304 304 303 303 304 304 305 303 302 301 298 298 303 308 310 312 313 312 310 313 315 315 311 308 307 308 307 305 304 305 305 304 305 305 305 305
304 304 303 304 304 305 305 305 304 303 304 303 304 304 302 301 302 300 300 299 300 296 297 304 307 309 312 311 310 310 312 315 315 311 307 309 308 307 305 303 304 304 304 304 304 304 304
304 304 304 304 305 305 305 306 304 302 300 303 302 302 301 302 302 300 298 298 298 296 301 308 307 310 312 310 311 312 313 313 311 306 309 308 307 306 305 304 304 304 304 303 303 303 304
305 303 303 304 304 304 306 306 305 303 301 298 299 301 301 301 300 298 299 309 309 306 303 311 312 310 309 310 310 309 308 307 308 309 308 306 306 305 305 304 303 303 302 304 302 304 305
303 303 303 303 305 305 305 305 305 304 299 298 298 298 298 298 298 298 307 309 309 306 308 311 310 309 307 310 310 309 308 308 309 308 307 306 305 305 304 302 302 302 303 304 305 304 305
303 303 303 304 305 304 304 304 306 304 299 299 299 299 299 298 297 298 308 307 308 309 310 310 309 309 307 309 309 308 308 307 306 306 305 305 304 302 302 302 303 303 302 303 304 305 305
302 303 303 303 305 304 303 305 304 304 301 299 299 298 298 297 297 300 308 307 308 309 309 309 309 310 309 307 306 307 307 305 304 304 304 305 304 302 302 301 300 301 303 303 303 304 304
301 302 303 303 305 304 302 301 303 301 301 299 298 298 298 297 298 300 307 306 305 307 308 309 308 308 308 307 306 306 306 306 305 304 303 302 304 302 302 302 302 303 304 304 304 305 306
300 301 302 303 304 304 304 301 301 301 300 299 298 298 298 299 300 302 306 306 307 307 308 306 307 308 308 308 307 306 306 305 305 305 304 303 303 303 304 303 304 304 304 304 305 305 307
297 301 301 300 303 304 304 304 300 300 300 299 299 300 300 300 299 302 305 306 306 306 301 305 306 307 307 307 307 307 306 307 306 305 304 304 304 304 304 305 304 308 305 306 306 309 312
297 298 302 301 300 303 304 303 304 299 300 299 300 301 303 302 301 301 304 305 305 305 300 305 307 306 307 308 306 307 307 307 309 309 305 304 305 307 309 309 306 310 308 308 309 311 312
297 298 301 301 301 299 302 304 304 304 302 303 304 304 303 305 303 303 304 305 304 300 305 308 307 307 307 307 308 307 306 307 306 309 307 304 306 308 307 309 308 308 309 310 311 313 314
302 297 298 303 302 301 300 301 303 303 302 303 303 304 306 305 304 305 305 305 300 302 305 308 308 308 309 309 308 308 307 307 308 308 305 306 308 308 308 311 309 310 312 314 311 316 317
306 298 297 297 303 302 301 301 302 302 303 303 303 304 305 306 305 304 305 300 303 308 308 306 308 307 308 308 308 309 308 307 306 307 309 309 307 310 310 310 314 314 315 317 317 316 317
308 305 296 298 296 302 303 302 301 302 303 303 304 304 305 306 306 305 305 306 307 307 307 307 307 309 310 311 310 309 310 309 310 308 311 314 310 310 310 311 312 316 318 314 318 318 318
308 307 301 296 297 296 302 304 303 302 303 303 304 305 305 307 307 306 303 308 306 306 307 308 310 308 310 310 311 310 312 310 312 310 309 313 314 310 312 311 312 314 314 317 316 317 319
306 308 306 296 297 297 302 304 305 302 303 304 305 305 305 307 308 308 305 306 306 306 307 308 307 310 310 310 311 312 311 310 311 311 310 312 313 311 311 314 315 315 316 315 314 316 318
302 308 307 299 297 298 303 304 305 303 304 304 304 299 306 306 305 300 301 303 305 306 307 307 307 306 309 309 311 311 311 310 310 309 311 309 311 313 312 311 310 311 313 313 314 316 313
300 305 308 304 297 299 304 304 305 303 304 304 304 305 306 306 302 298 302 304 305 305 306 307 308 307 307 308 310 310 310 310 310 309 310 309 309 311 311 311 310 311 311 310 312 310 311
300 303 308 306 297 300 304 304 304 302 304 304 304 298 306 306 303 301 303 304 305 306 307 307 306 306 307 307 306 308 307 308 308 308 310 308 307 309 311 312 309 309 309 312 311 311 314
300 301 307 308 297 301 304 304 303 303 304 304 303 299 301 298 301 300 301 303 306 306 307 307 307 306 306 307 305 307 307 305 307 306 307 306 308 305 306 307 307 308 308 310 311 311 314
303 300 305 308 299 300 304 303 302 303 304 304 304 302 302 301 301 301 301 304 306 305 306 307 307 306 306 308 308 308 307 306 306 304 305 303 307 307 307 306 306 308 307 308 310 311 312
308 301 303 308 303 299 303 303 302 303 304 304 303 303 303 298 298 299 301 302 304 304 307 308 306 305 307 308 307 307 307 306 305 304 304 304 304 304 306 303 303 305 305 308 308 307 310
316 305 301 308 306 298 302 303 303 303 304 304 303 303 302 300 298 301 301 303 303 304 306 307 307 306 308 308 307 306 305 305 304 302 302 304 304 301 303 301 300 303 304 305 307 307 306
317 312 304 306 307 298 301 303 302 303 303 303 302 303 302 298 299 301 301 301 303 304 304 306 308 308 308 307 304 304 302 303 304 302 301 301 302 303 303 301 300 304 304 305 307 307 304
316 316 309 303 308 301 299 303 303 303 303 303 303 302 302 300 299 301 301 302 301 301 301 305 306 307 307 302 303 306 303 305 305 303 301 300 300 303 303 303 303 300 304 304 303 305 301
315 314 313 304 307 304 298 302 303 303 303 303 302 302 302 301 301 301 301 302 303 302 299 302 305 306 306 302 306 304 302 302 304 304 304 303 301 304 303 303 303 300 303 303 306 303 303
313 312 314 309 306 307 299 298 303 303 303 303 303 303 302 302 302 302 302 303 303 303 301 303 302 302 302 303 304 302 301 301 302 300 303 302 301 302 302 304 303 302 303 304 303 304 306
313 313 313 312 304 307 304 297 300 303 303 303 303 303 302 302 303 303 302 302 303 304 304 304 303 303 304 299 300 300 304 298 298 303 298 302 302 301 302 302 301 304 304 305 304 305 305

GFSGBSN_850_thetae_114.txt.gz
Theta_e
305 304 305 305 305 306 306 305 304 304 304 305 304 305 305 305 306 305 303 302 301 299 300 305 307 310 314 313 313 312 314 317 313 306 305 307 307 308 310 309 308 309 308 307 307 307 307
305 305 304 305 306 306 306 305 305 304 303 303 303 303 302 304 302 301 302 301 299 297 297 305 311 312 312 313 312 315 314 316 312 309 307 307 308 307 307 307 307 307 307 307 306 306 306
305 305 304 306 305 306 305 305 305 304 303 302 301 299 300 299 299 298 299 299 298 296 300 304 309 311 312 312 312 312 315 313 311 308 308 307 306 307 306 307 306 306 307 307 306 306 307
306 305 304 306 306 306 304 303 305 304 302 302 302 298 298 298 298 302 309 310 306 300 308 307 310 310 310 311 310 310 308 308 309 308 307 306 306 306 306 305 305 306 307 310 306 307 307
307 306 304 305 305 304 306 304 304 304 301 300 301 299 298 297 300 309 310 306 303 310 311 309 309 309 309 308 309 309 309 308 309 308 307 306 305 306 306 308 308 307 312 308 308 307 308
306 306 304 305 305 304 305 306 303 303 301 300 300 298 297 297 304 308 309 309 310 309 307 308 307 307 307 309 308 308 307 307 307 307 306 306 306 308 307 308 312 308 309 308 308 308 307
305 304 306 305 305 305 307 303 304 302 301 299 298 298 298 298 308 308 309 308 309 308 308 309 310 307 306 307 307 307 306 305 305 305 308 306 309 309 306 305 305 306 306 308 308 308 308
299 304 303 305 305 305 304 304 300 299 301 301 299 299 299 300 307 307 307 308 307 307 308 308 308 308 307 307 307 306 306 306 307 308 306 308 309 307 305 305 306 306 308 310 310 308 309
297 302 303 304 304 305 304 303 301 301 300 300 301 300 299 301 305 307 308 307 307 307 308 306 307 307 308 308 307 306 307 306 307 307 307 308 308 306 306 306 307 308 310 311 310 310 311
297 298 304 303 304 302 303 302 303 304 305 303 302 302 300 301 305 306 307 306 306 306 310 306 306 306 308 308 308 307 307 308 308 307 307 308 306 306 307 307 308 311 309 309 310 311 315
303 297 298 304 303 303 300 301 302 302 303 305 305 304 301 301 304 306 306 306 305 305 312 306 307 306 307 308 307 307 307 308 309 309 308 308 309 309 310 310 308 311 310 311 311 312 313
306 298 297 296 302 302 302 301 302 303 303 305 305 305 305 304 305 306 306 305 303 317 310 307 307 307 308 308 308 307 307 307 307 309 309 309 306 309 309 310 310 310 311 312 313 313 316
308 305 296 297 295 300 302 302 301 302 303 306 305 306 306 305 305 305 305 305 316 310 306 307 308 308 309 309 308 309 308 309 310 313 312 310 311 309 308 311 312 310 312 319 320 319 320
309 307 301 296 297 296 302 304 303 302 303 304 306 306 307 307 305 305 306 312 310 308 308 307 308 309 309 310 309 310 310 310 308 309 311 312 316 312 311 313 315 314 315 319 320 319 319
305 309 306 296 297 299 302 303 304 302 303 303 305 307 307 307 307 307 308 312 310 308 308 309 309 311 311 311 311 310 311 310 310 309 312 314 315 312 311 312 314 316 318 315 318 317 320
301 307 308 300 298 300 303 304 304 302 304 304 306 306 306 307 307 307 312 309 309 308 308 309 312 311 312 310 312 311 312 311 311 309 309 312 315 312 313 312 313 314 314 319 317 319 321
302 303 309 305 297 301 304 304 304 303 304 305 305 306 306 307 308 309 310 310 309 307 307 310 310 312 312 312 312 313 313 312 313 313 311 312 314 314 312 315 316 315 317 316 316 315 320
302 303 307 308 298 302 305 304 303 304 304 305 306 312 306 306 310 307 311 307 306 308 307 309 309 308 311 312 313 313 313 312 312 311 312 311 313 314 315 313 314 313 315 314 316 318 316
306 303 305 309 301 302 305 304 302 304 304 304 306 306 306 306 314 311 306 307 306 309 308 309 310 309 309 310 312 312 312 310 311 312 313 312 313 315 313 313 312 313 313 311 312 313 316
316 304 305 309 304 301 304 304 303 303 304 304 304 313 307 306 304 309 309 309 309 307 308 307 308 308 309 310 308 310 309 309 308 310 310 310 312 313 315 313 312 312 311 312 313 315 317
319 309 306 308 308 300 304 303 303 304 304 304 304 304 302 310 308 306 307 308 310 310 308 308 309 309 309 310 309 310 310 309 308 307 309 309 313 310 311 311 310 310 310 313 313 314 317
318 316 308 307 308 300 303 304 304 304 304 304 304 305 303 303 302 305 306 309 309 308 309 310 310 309 310 311 311 311 310 309 309 308 308 308 313 309 310 309 310 310 310 310 314 315 314
318 317 312 307 309 302 301 304 304 304 304 304 304 303 304 300 304 305 307 307 308 306 308 308 308 309 309 310 309 308 308 309 309 309 308 308 310 311 312 307 307 309 309 310 312 312 315
316 316 316 307 308 307 300 303 304 304 304 303 302 303 303 306 304 306 304 304 306 306 307 308 307 308 307 307 307 305 305 306 307 308 306 309 309 308 312 309 310 307 307 309 311 311 311
315 315 315 310 307 307 300 302 304 304 304 303 302 302 302 304 303 302 303 304 304 304 305 306 307 307 307 306 309 309 308 306 307 306 306 306 308 311 311 309 308 306 305 308 310 311 308
315 315 314 315 305 307 300 300 303 304 303 303 302 302 302 302 302 302 304 303 307 307 306 306 306 306 307 306 308 309 308 307 308 306 303 304 306 309 307 309 306 306 306 305 306 310 305
314 314 312 312 312 307 304 299 302 303 303 304 303 303 302 302 302 301 303 305 303 304 306 304 305 306 306 308 309 309 309 305 308 307 306 307 307 309 310 309 308 305 306 304 309 308 305
313 312 312 312 313 308 307 301 299 302 303 303 303 303 302 302 302 302 302 303 303 303 306 303 305 305 307 309 308 308 308 307 306 306 307 307 307 308 307 309 309 304 304 308 307 304 306
312 312 312 312 312 312 308 307 299 299 302 303 303 302 302 301 303 303 302 302 303 304 304 304 304 305 307 309 307 307 309 306 306 307 302 306 307 307 307 308 304 304 306 305 305 304 305

GFSGBSN_850_thetae_117.txt.gz
Theta_e
306 306 306 307 308 306 306 305 305 303 304 304 303 304 302 303 306 305 304 302 301 303 304 305 310 314 314 313 312 313 316 316 311 308 309 308 308 310 311 311 310 310 311 310 310 309 309
306 306 307 308 305 306 305 305 306 303 303 303 302 302 301 300 300 302 305 303 300 299 303 308 309 313 312 312 313 313 315 315 309 308 308 308 309 309 310 310 311 310 310 309 309 308 308
306 306 306 308 306 305 304 304 305 302 302 300 301 302 299 298 298 299 301 299 299 296 300 311 312 310 310 310 311 315 316 313 309 309 308 308 308 308 308 309 308 308 309 309 309 309 308
306 305 306 307 307 306 305 304 304 301 300 302 302 301 298 298 307 309 309 308 301 305 303 310 310 310 310 309 308 307 309 308 308 308 308 307 307 307 308 307 307 309 309 313 310 309 309
305 307 305 306 306 306 305 305 303 302 299 298 297 298 298 306 306 305 306 309 310 309 307 310 310 309 308 309 309 308 308 308 308 308 307 306 307 308 307 310 311 310 316 312 311 309 310
305 304 304 305 306 307 306 302 304 302 300 298 297 298 300 308 308 309 309 309 308 308 308 307 308 308 308 308 307 308 307 308 309 308 308 307 308 310 310 311 316 314 312 310 310 311 309
299 304 303 304 304 307 307 306 302 301 301 299 297 298 307 309 309 308 308 309 309 308 306 306 306 307 307 307 306 307 306 306 307 307 310 309 312 314 311 308 308 308 308 309 310 311 310
297 301 304 303 302 302 306 306 306 304 302 302 298 298 305 308 308 307 308 309 306 308 307 308 308 307 307 307 307 307 308 308 309 310 309 310 313 309 307 307 307 308 310 312 312 310 311
301 296 298 302 302 300 301 303 303 304 305 303 300 298 306 307 306 308 308 307 307 308 308 307 308 308 308 308 308 308 308 308 309 309 309 312 310 308 308 308 310 310 311 312 312 312 314
306 297 297 297 302 302 301 302 303 302 304 305 302 299 304 306 308 307 307 307 306 306 311 308 308 308 308 309 308 308 308 309 309 309 309 310 307 308 308 309 309 313 311 311 312 313 316
308 303 296 298 296 302 303 302 302 303 303 305 305 300 302 305 307 308 306 306 305 306 313 308 308 307 308 309 308 308 308 309 309 310 311 310 310 310 312 312 310 313 312 313 312 313 313
309 306 298 297 298 299 303 303 302 303 304 305 306 305 303 305 307 307 306 305 305 315 311 309 308 309 310 309 309 308 309 308 308 311 310 311 308 310 312 310 311 311 312 314 313 314 316
306 308 302 296 299 302 302 304 302 303 304 306 306 307 305 305 307 306 306 307 316 312 307 309 310 309 309 310 310 310 310 311 311 315 313 313 313 311 310 312 312 312 314 319 322 320 321
303 308 306 297 299 303 304 304 304 303 304 305 307 307 307 306 305 306 308 313 312 309 309 309 310 311 311 311 311 311 311 312 311 311 312 314 317 314 313 314 316 314 316 319 321 323 320
303 306 309 300 299 304 305 305 304 304 304 307 307 307 307 306 306 308 311 313 310 310 310 311 311 312 313 312 312 313 313 313 311 311 313 316 317 313 313 313 314 316 318 316 317 318 319
308 303 309 304 300 305 304 304 304 305 305 307 307 307 307 307 308 311 313 311 311 309 310 311 313 312 313 312 313 312 314 313 313 311 310 313 316 313 314 313 314 315 314 319 317 321 323
311 306 307 308 300 304 304 303 304 305 305 305 305 311 308 308 311 313 316 313 311 309 310 312 312 313 313 313 313 313 314 314 313 313 311 312 314 316 314 316 317 316 316 315 315 317 321
317 310 307 309 302 303 304 303 304 305 306 306 307 314 307 308 315 313 314 311 308 310 309 311 311 311 312 313 314 314 314 313 312 313 314 313 314 315 316 314 315 314 315 315 318 320 316
319 312 309 309 305 302 304 303 304 305 305 306 310 309 307 308 318 314 310 310 309 311 311 311 312 311 311 312 314 313 313 312 312 313 314 313 315 317 317 315 313 314 315 313 313 313 316
319 316 312 309 309 301 304 304 304 305 305 305 308 314 311 310 309 312 312 312 312 309 310 310 311 310 311 311 310 312 310 311 310 311 309 311 314 314 316 314 313 313 313 313 313 316 318
319 317 314 312 310 304 303 305 305 304 304 305 307 309 306 315 311 310 310 311 312 312 310 310 311 311 312 311 311 310 311 311 310 309 311 312 314 313 313 312 312 312 313 312 315 314 318
318 317 316 313 310 309 302 304 305 305 304 304 308 309 306 308 307 310 309 312 311 311 311 311 311 311 311 312 311 311 311 311 310 310 310 310 313 312 311 311 312 312 312 312 312 314 315
316 316 316 314 311 310 303 303 304 304 303 303 304 304 307 306 309 310 311 310 310 309 310 310 310 310 311 311 309 309 309 310 311 310 311 310 311 311 313 310 310 310 310 310 311 312 315
314 315 316 315 311 309 305 302 304 304 304 303 302 302 306 310 308 309 307 307 309 309 310 309 309 310 310 308 309 308 308 309 309 310 310 311 311 311 313 312 313 311 309 310 310 312 313
314 313 313 314 312 308 308 301 302 304 304 303 303 302 304 307 306 306 306 307 307 307 307 308 309 309 308 309 310 310 311 309 309 309 310 309 310 311 312 311 310 309 306 310 311 311 312
313 313 312 311 312 309 308 303 300 303 304 304 303 302 302 305 306 304 306 306 308 309 308 307 307 307 308 309 310 310 309 309 309 308 306 308 309 310 311 310 307 308 308 307 308 310 308
313 312 312 312 311 312 308 307 300 300 303 303 303 303 302 304 304 302 305 307 306 307 308 307 307 308 307 310 310 309 310 307 308 308 309 309 309 310 311 311 310 308 307 306 310 309 307
313 312 311 312 311 311 311 308 306 300 300 302 303 303 303 303 304 303 303 304 305 306 308 307 307 307 309 310 309 310 309 309 308 308 308 309 309 309 309 309 310 306 306 308 308 307 307
313 312 312 311 311 311 311 309 308 304 299 300 302 302 302 302 303 303 303 303 303 305 306 305 307 308 309 311 309 309 309 309 308 307 306 308 308 309 308 310 307 306 308 308 306 306 306

GFSGBSN_850_thetae_120.txt.gz
Theta_e
308 306 308 310 307 306 306 305 303 301 303 303 303 302 302 299 301 304 305 302 302 305 305 307 313 316 315 314 313 313 316 315 307 309 310 310 310 311 312 312 311 311 312 310 310 310 309
308 306 307 308 307 306 306 304 304 303 303 303 303 301 300 299 300 300 300 300 299 302 306 307 312 314 313 312 313 313 317 312 308 309 309 309 309 310 311 311 311 310 311 311 309 309 309
307 309 306 307 307 307 304 304 304 302 300 301 298 299 305 308 308 308 309 301 297 299 308 308 309 311 310 309 312 315 315 310 309 309 309 309 309 309 310 309 308 308 309 310 310 309 309
305 308 305 307 307 307 306 303 303 301 298 298 298 304 306 306 307 307 308 306 302 301 310 308 309 310 307 308 310 312 312 309 309 308 307 307 308 308 309 308 308 309 309 312 310 309 309
305 306 305 305 306 306 308 305 303 300 297 298 299 306 307 309 309 307 308 309 306 309 309 310 308 308 309 307 308 308 308 308 308 307 307 307 308 308 308 311 310 310 317 312 310 309 310
298 303 305 305 306 306 306 307 305 302 298 298 303 307 308 309 309 308 308 307 307 308 309 308 308 309 307 307 308 308 309 309 309 308 308 308 308 310 310 311 314 313 312 311 310 311 310
297 298 301 305 305 305 303 306 307 304 301 298 304 308 309 308 308 307 309 309 307 307 306 307 308 307 307 307 307 306 307 307 308 309 310 309 310 314 312 308 308 308 308 309 310 311 310
304 297 297 299 304 306 303 303 304 305 302 299 301 307 308 307 307 308 309 308 308 307 309 309 308 308 308 308 308 308 308 309 309 310 309 310 311 308 308 308 308 308 310 311 312 311 311
308 299 297 298 299 304 303 303 304 305 303 299 299 306 306 307 309 308 308 308 308 308 308 308 308 309 309 309 308 309 309 309 310 310 311 311 310 308 308 309 310 310 310 311 312 312 312
309 306 298 299 300 303 303 302 304 306 306 302 299 304 306 307 308 307 306 306 305 308 310 308 309 308 309 309 308 309 309 310 309 310 310 310 307 308 309 309 309 312 311 311 313 311 310
308 309 300 299 302 302 303 302 302 305 306 306 303 304 306 305 307 309 306 305 304 309 309 309 308 309 309 309 308 308 308 310 310 310 311 310 310 310 312 312 310 313 312 312 313 312 313
307 309 304 299 304 305 304 304 302 303 306 307 307 304 305 306 307 307 306 305 309 312 310 310 309 310 310 309 309 309 309 309 309 311 311 310 308 310 311 311 311 311 312 313 313 313 311
306 309 308 300 304 305 305 304 303 303 304 306 307 307 306 306 307 307 306 310 312 311 308 309 310 309 310 310 311 310 311 311 312 313 312 312 313 311 310 312 312 312 313 311 317 315 312
306 308 310 301 304 304 305 304 304 304 306 307 307 307 307 306 305 306 311 314 310 310 310 309 310 311 312 311 311 312 311 312 311 311 312 315 316 313 312 314 316 314 315 316 317 319 317
312 308 310 305 303 305 303 304 305 305 307 307 307 307 307 307 309 311 312 310 310 311 310 311 313 312 313 312 312 312 313 313 311 310 313 315 315 313 313 314 314 316 315 315 314 313 317
316 309 310 309 302 305 304 303 304 305 306 307 306 310 308 309 312 312 312 311 311 310 311 311 314 313 312 312 313 313 314 313 312 311 311 312 315 314 314 313 313 315 314 317 316 316 319
318 314 310 310 304 303 304 303 304 305 306 306 306 312 308 309 314 313 314 313 311 310 310 312 312 313 313 313 313 313 314 313 313 312 311 311 313 315 314 315 317 315 316 314 314 315 319
319 315 313 310 308 302 304 305 304 305 305 306 310 310 308 313 316 314 312 311 309 311 310 311 311 312 312 313 314 314 314 313 313 313 313 313 313 312 315 314 314 314 315 314 317 319 315
318 317 314 312 310 305 304 305 305 304 305 306 311 308 308 314 318 314 310 310 310 311 312 312 312 312 311 312 314 313 312 312 312 313 313 312 313 312 316 314 314 315 314 313 312 313 314
317 317 316 314 311 309 303 305 305 305 304 305 310 309 313 311 311 313 313 312 312 310 311 310 311 311 312 312 310 311 310 311 311 311 309 311 313 313 312 313 312 313 314 313 313 315 314
316 316 316 315 312 310 306 304 305 304 304 307 309 309 307 316 311 311 311 311 312 312 310 310 312 311 311 311 311 310 311 311 310 310 310 311 312 310 311 312 312 311 311 312 313 312 315
315 316 316 316 314 311 308 304 305 305 304 305 310 310 308 309 308 310 309 312 312 311 311 312 311 311 311 311 311 311 310 311 310 310 309 309 309 310 308 310 310 310 310 310 311 313 312
315 315 316 316 315 312 310 305 304 305 305 303 303 304 308 309 309 309 311 311 311 310 311 310 310 310 310 311 310 310 309 309 309 310 310 309 309 308 309 310 309 307 308 308 310 310 310
314 314 314 315 315 313 310 308 303 303 304 304 303 303 306 310 307 309 308 308 309 309 310 310 310 310 309 309 308 309 309 309 308 308 310 310 309 308 308 308 307 308 309 309 309 310 309
312 313 313 312 313 313 311 309 304 302 303 304 303 303 305 306 306 306 307 307 308 308 307 308 308 309 309 308 309 308 309 309 309 308 308 309 309 308 307 307 307 307 306 309 310 310 307
312 312 312 311 311 312 312 309 309 302 302 303 304 303 302 304 305 304 306 306 306 307 308 308 308 307 307 309 309 310 307 308 308 307 305 308 308 307 309 309 308 307 307 308 308 307 307
312 312 311 311 312 311 312 310 310 307 301 301 302 303 303 304 305 303 304 306 306 307 307 308 308 308 308 308 308 307 306 307 306 308 306 306 307 308 307 308 308 307 306 307 308 306 307
311 312 312 311 311 311 311 311 310 310 305 301 302 302 302 303 303 303 303 303 304 306 306 307 307 307 308 308 308 308 307 307 306 306 307 307 307 307 307 307 307 306 305 306 306 307 307
312 311 311 311 311 311 311 311 312 310 309 302 301 301 301 301 302 302 302 302 303 305 306 306 306 307 309 308 308 307 307 306 306 305 306 306 305 305 305 306 306 306 307 307 307 306 306